ECMWFFLT1_925_thetae_000.txt.gz
Theta_e
313 310 310 310 309 309 309 311 311 314 318 318 318 318 318 318 319 318 318 317 317 318 319 320 321 321 322 322 323 323 324 325 326 327 328 329 331 332 332 331 331 331 330 330 332 333 336 339 335 331 331 330 329 329 329 329 329 330 330 328 328 327 327
313 308 308 308 307 307 309 312 313 314 317 319 319 319 318 317 316 315 314 313 314 315 316 317 318 319 320 321 321 321 322 322 323 325 326 327 328 328 329 329 331 332 332 332 334 332 332 334 336 335 331 329 330 330 330 330 330 330 330 329 328 327 327
312 307 308 309 306 306 308 312 314 314 315 317 318 319 318 315 311 308 307 307 308 308 309 311 313 317 319 319 319 320 320 321 321 322 323 324 325 327 328 329 330 332 332 333 333 332 330 330 332 334 329 328 330 329 329 330 330 330 329 328 329 327 327
313 308 309 310 308 308 308 309 313 315 315 315 315 316 315 312 308 306 305 304 305 305 306 307 310 314 317 317 318 318 318 319 319 320 321 321 322 324 326 328 329 330 330 331 331 331 330 329 330 331 329 328 329 328 328 329 329 330 330 328 328 327 327
314 310 311 312 310 309 308 309 313 315 316 315 313 312 313 312 310 309 306 305 305 305 306 306 307 310 312 314 315 315 315 316 316 317 318 319 320 320 322 323 326 328 329 330 330 329 330 330 329 328 328 329 329 328 328 328 328 328 328 328 328 328 327
313 312 311 312 311 310 309 310 313 315 315 315 314 312 313 314 313 311 308 306 306 306 306 306 307 308 308 310 311 312 313 314 315 315 316 317 318 318 319 319 321 324 327 328 329 329 329 329 329 328 328 328 329 328 328 328 328 327 327 327 328 328 328
312 312 312 312 312 311 310 310 312 313 313 314 314 313 313 315 314 312 309 308 308 307 307 307 307 308 308 309 310 311 312 313 314 314 315 315 316 316 317 318 319 321 323 326 328 329 329 328 328 328 328 328 328 328 328 328 328 328 327 327 327 327 327
314 314 313 313 312 311 311 311 310 311 312 313 314 313 314 314 313 312 311 311 310 309 308 308 308 308 308 308 308 309 311 311 312 313 313 314 314 314 315 316 317 318 320 322 325 327 328 327 327 328 328 328 329 329 328 328 329 329 329 328 328 327 327
315 314 313 313 312 311 311 311 310 311 312 312 313 313 313 313 312 312 312 312 311 310 308 309 310 310 309 308 308 308 309 309 310 310 311 312 312 312 313 314 315 316 317 319 320 323 326 327 328 328 328 327 329 331 330 329 329 329 330 329 329 328 328
315 314 314 312 312 313 313 312 311 312 312 312 312 312 312 312 312 312 312 312 311 309 309 309 309 309 308 308 308 308 308 308 308 309 309 309 310 310 310 311 312 314 315 316 318 320 322 325 327 328 328 326 327 329 330 329 329 327 328 329 329 329 328
315 314 314 313 312 313 313 312 312 312 312 311 312 312 312 312 312 312 313 312 310 309 310 309 308 307 306 306 307 307 308 308 307 308 308 308 308 308 308 309 310 311 312 313 315 316 318 320 323 326 328 328 326 327 328 328 328 326 326 327 328 328 327
315 314 315 314 313 313 313 312 312 312 312 312 312 312 312 312 312 312 312 310 309 309 310 309 307 306 305 304 305 305 306 306 306 306 306 306 307 307 307 307 307 308 309 310 312 313 315 316 317 320 324 327 328 328 327 326 327 326 326 326 327 327 327
315 315 315 314 313 313 312 312 312 312 312 312 312 311 312 312 312 311 310 309 309 309 308 308 306 306 305 305 305 305 305 305 305 305 305 305 305 305 305 305 306 306 307 307 308 310 312 313 315 316 318 322 325 327 327 325 325 326 326 326 327 327 327
316 316 316 315 313 312 312 312 312 311 310 310 310 311 312 311 309 308 309 309 309 308 308 307 306 305 305 305 305 305 305 305 305 305 305 304 304 304 304 304 305 305 305 305 306 307 308 310 312 313 314 317 321 324 327 326 326 326 326 326 327 327 327
316 316 316 314 313 312 312 312 312 310 308 308 309 310 310 308 307 307 308 308 308 307 307 306 305 305 305 305 305 305 305 305 305 305 305 304 304 303 304 304 304 304 305 305 305 305 306 307 309 310 312 314 316 320 324 326 326 326 326 326 326 327 327
316 316 315 314 313 312 312 312 311 310 308 308 309 309 308 307 307 308 308 308 307 306 306 305 305 305 304 304 304 304 304 304 304 304 304 304 304 304 304 304 304 304 304 305 305 305 305 305 306 308 309 311 313 316 320 323 325 326 326 327 327 327 327
316 315 314 313 312 312 312 312 311 309 308 308 308 308 307 307 308 308 308 307 306 306 305 304 304 303 303 303 303 303 303 303 303 303 303 303 303 304 304 304 304 304 304 304 304 305 305 305 305 306 308 309 311 313 316 319 323 325 325 326 326 326 327
316 315 314 313 312 311 312 311 310 308 308 308 308 308 308 308 308 308 307 306 305 305 304 304 303 303 303 303 302 302 302 302 302 302 302 303 303 303 303 303 303 304 304 304 304 304 305 305 305 305 306 307 309 310 313 316 320 323 324 323 324 324 326
316 315 314 313 312 311 311 310 309 308 308 309 309 309 309 308 308 307 306 305 305 304 303 303 303 303 302 302 302 302 302 302 302 302 302 302 302 302 303 303 303 303 303 303 304 304 304 304 304 304 305 306 307 309 311 314 316 319 322 322 322 323 324
317 316 314 313 312 311 311 310 309 309 309 310 309 309 308 308 307 306 305 304 303 303 303 302 302 302 301 301 301 301 301 301 301 302 302 302 302 302 303 302 303 303 303 303 303 303 303 304 304 304 304 305 306 307 309 310 311 313 317 320 322 323 323
317 316 315 313 312 312 311 310 310 310 310 310 309 309 308 307 306 305 304 303 303 302 302 302 301 301 301 300 300 300 300 300 300 300 301 301 301 302 302 302 302 303 303 303 303 303 304 304 304 304 304 304 305 306 306 307 309 310 312 315 318 321 323
316 315 314 313 312 312 311 311 310 310 310 310 309 308 307 306 305 304 303 302 302 302 301 301 301 301 300 299 299 298 298 298 298 298 299 299 299 300 300 300 301 301 302 302 302 302 303 303 303 304 304 304 304 305 305 306 307 308 310 312 313 316 320
316 315 314 313 312 312 311 311 310 310 310 309 308 307 306 305 303 302 302 302 302 301 301 300 300 299 299 298 298 298 298 298 298 298 298 298 298 298 298 299 299 300 300 300 301 301 301 301 302 302 302 303 304 304 305 305 306 307 308 309 310 312 315
316 315 314 313 312 312 311 310 310 309 309 308 307 306 305 304 303 302 302 301 301 300 300 299 299 298 298 298 298 298 298 298 298 298 298 298 297 298 298 298 298 298 298 299 299 300 300 301 301 301 301 302 302 303 304 305 306 306 307 307 308 310 312
315 314 314 313 312 311 311 310 310 309 308 307 307 306 304 303 302 302 301 300 299 299 299 298 298 298 298 298 298 298 298 298 298 297 298 297 297 297 297 297 297 297 297 297 297 298 298 299 300 301 301 302 302 302 303 304 304 305 306 307 307 308 309
314 314 314 313 312 311 310 310 309 308 308 307 306 305 303 302 301 300 299 298 298 298 297 297 297 297 297 297 297 297 297 297 297 297 297 297 297 297 297 296 296 296 296 296 296 297 297 297 298 299 300 301 301 302 302 302 303 304 304 306 307 307 308
314 314 313 312 311 310 309 309 308 308 307 306 305 304 302 301 299 298 298 297 297 296 296 296 296 296 296 296 296 297 297 297 297 297 297 296 296 296 296 296 296 296 296 296 296 296 296 296 297 298 299 300 301 301 302 302 302 303 304 306 307 307 308
314 313 312 311 310 309 308 308 308 308 306 305 304 302 301 299 298 297 297 296 295 294 294 294 294 294 294 295 295 295 296 296 296 296 296 296 296 296 295 295 295 295 295 295 295 295 295 296 296 297 297 298 299 300 301 301 302 302 303 305 305 306 307
314 312 311 310 309 308 308 308 308 307 305 304 302 301 300 299 297 296 295 294 293 293 293 293 293 293 293 293 294 294 294 294 295 295 295 295 295 295 295 295 295 295 295 294 294 295 295 295 295 296 297 297 298 298 299 300 301 301 302 303 303 304 304
312 311 310 309 308 308 308 308 307 306 304 303 301 300 299 298 297 296 294 293 292 292 292 292 292 293 293 293 293 293 293 293 294 294 294 294 294 294 295 294 294 294 294 294 294 294 294 294 295 295 296 297 297 298 298 299 299 300 300 301 302 302 302
311 310 308 308 307 308 308 307 306 305 303 302 301 299 298 297 296 295 293 292 292 292 292 292 292 292 292 292 292 292 292 293 293 293 293 294 294 294 294 294 294 294 294 294 294 294 294 294 294 295 296 296 297 298 299 299 299 299 300 300 300 301 301
310 308 307 307 307 307 307 306 305 304 302 302 300 299 298 297 295 293 293 292 291 291 292 292 292 292 292 292 292 292 292 292 292 292 293 293 293 293 293 293 293 293 293 293 293 293 293 293 294 294 295 295 297 298 298 299 299 299 300 300 300 301 301
309 307 307 307 307 306 305 303 303 302 301 300 299 299 298 297 295 293 293 291 290 290 291 291 291 292 291 291 291 291 291 291 291 292 292 292 292 292 292 292 292 292 293 293 293 293 293 293 293 294 294 295 296 297 297 298 299 299 299 300 300 300 301
307 306 306 306 304 303 302 301 301 301 301 300 300 299 298 297 295 294 292 291 290 290 290 291 291 291 291 291 291 291 291 291 291 291 291 291 291 291 291 291 291 291 292 292 292 292 292 292 293 293 294 294 295 295 296 297 298 299 299 299 300 300 300
305 305 304 303 302 301 301 301 301 301 301 301 300 299 298 297 296 294 292 290 290 290 290 291 291 291 291 291 291 291 290 290 290 290 290 290 290 290 290 291 291 291 291 291 291 291 291 292 292 292 293 294 295 295 296 296 297 298 298 298 299 299 299
303 302 301 301 301 301 301 301 301 301 301 301 300 299 297 297 296 294 291 290 290 290 290 290 291 291 291 291 290 290 290 290 290 289 290 290 290 290 290 290 290 290 290 290 291 291 291 291 291 292 292 293 293 295 295 296 296 297 297 297 298 298 299
301 301 300 300 300 300 300 300 300 300 301 300 299 298 297 296 295 293 291 290 290 290 290 290 290 291 291 291 290 290 290 290 289 289 289 289 289 289 289 289 290 290 290 290 290 290 291 291 291 291 292 292 292 294 295 296 296 297 297 297 297 298 298

ECMWFFLT1_925_thetae_003.txt.gz
Theta_e
310 308 307 307 308 310 312 313 313 315 318 317 317 318 318 318 318 318 317 317 317 318 318 319 319 320 320 320 321 321 322 322 323 324 325 326 328 328 328 328 328 328 328 328 328 328 331 332 331 329 330 329 330 329 329 328 327 327 328 328 328 328 329
311 309 307 307 306 307 308 310 312 315 318 318 318 318 317 317 317 315 314 314 314 314 315 316 317 318 318 319 319 319 320 320 320 321 322 323 325 325 326 327 328 328 327 327 328 328 328 330 331 331 330 328 329 329 329 330 329 329 328 328 329 328 328
312 310 309 308 307 306 307 309 310 314 316 318 318 318 317 316 313 308 307 308 309 310 310 312 313 314 315 316 316 316 317 317 318 318 319 320 321 321 322 323 324 326 327 327 328 329 329 329 330 330 328 328 329 329 329 329 329 330 330 329 329 329 329
312 311 309 309 308 306 307 308 309 312 315 316 317 317 316 313 308 305 305 305 306 306 307 307 307 308 310 311 311 312 313 314 314 315 316 317 318 318 319 319 321 322 324 325 327 328 328 328 328 329 329 328 329 329 329 329 329 329 329 329 329 329 329
313 311 308 308 308 307 306 306 308 311 313 315 315 315 313 311 308 306 306 306 306 306 306 306 306 307 307 307 307 308 310 311 312 313 313 314 315 316 317 317 318 319 320 322 324 325 326 327 328 328 329 329 328 328 328 329 329 329 329 328 329 328 328
314 313 310 308 308 307 306 306 307 308 311 312 313 312 312 311 311 310 309 308 308 308 307 306 307 307 306 306 305 306 307 309 310 311 312 313 313 313 314 315 316 317 317 318 320 322 324 326 327 327 328 328 327 328 328 328 329 328 328 328 327 327 326
315 314 312 310 310 309 308 307 307 307 308 309 310 310 311 312 312 312 311 310 310 310 308 306 306 306 305 306 306 306 307 308 308 309 309 310 311 311 312 312 313 314 315 316 317 319 321 324 326 327 327 327 327 327 327 327 327 327 328 327 327 327 327
316 315 314 312 311 311 310 309 308 307 308 308 309 310 311 312 312 313 312 311 311 310 308 306 306 305 305 306 307 307 307 307 307 308 308 308 308 309 310 310 311 311 312 313 314 315 317 319 322 324 326 327 327 327 327 327 327 327 327 327 328 328 327
314 314 314 313 311 311 312 311 309 308 308 308 310 312 312 313 313 313 312 311 311 311 308 306 305 306 306 306 305 305 306 306 307 307 307 307 307 307 308 308 309 309 310 311 312 312 313 314 316 319 322 325 326 327 327 326 326 326 326 327 327 326 326
314 314 313 312 312 312 312 312 310 309 308 309 311 312 312 313 313 312 312 312 312 311 308 306 306 307 306 305 304 304 304 305 305 305 305 305 305 305 306 306 307 307 307 308 309 310 311 312 312 314 316 319 322 325 327 326 325 323 323 324 325 324 324
315 314 313 312 312 312 312 312 311 310 309 309 311 312 312 312 312 312 312 312 312 310 308 307 307 307 306 305 304 304 304 304 304 304 305 304 304 304 304 304 304 304 305 305 306 307 308 309 309 310 311 313 316 321 325 327 325 324 323 323 323 323 324
316 315 314 313 313 313 313 312 311 311 310 310 311 312 311 312 312 312 312 312 311 309 307 307 307 307 306 305 304 304 304 305 304 305 305 304 304 304 304 304 304 303 303 303 304 305 305 306 307 308 308 309 311 315 319 323 324 324 324 324 323 323 324
316 315 314 314 314 314 313 312 311 311 311 311 311 311 311 311 311 311 312 311 310 308 307 308 307 307 306 305 304 304 304 304 304 304 304 304 304 304 304 304 303 303 303 303 303 304 304 305 305 306 306 307 308 310 313 318 321 322 322 324 325 324 324
316 315 315 315 315 314 312 312 312 312 312 311 312 311 311 311 311 311 311 309 308 308 308 308 307 306 305 304 304 304 304 304 304 303 303 303 303 303 303 303 303 303 303 303 304 304 304 304 304 305 305 305 306 308 310 314 317 319 320 321 323 324 325
317 316 316 315 314 313 312 312 313 313 312 312 312 312 311 311 311 310 309 308 308 308 308 307 306 306 305 304 303 303 303 303 302 302 302 302 302 302 302 302 303 303 303 303 303 303 303 304 304 304 304 305 305 306 308 311 314 316 317 319 320 322 323
317 316 316 314 314 313 313 313 313 312 312 312 312 311 311 311 310 308 307 307 308 307 307 307 306 305 303 303 303 302 302 302 302 302 302 302 302 302 302 302 302 302 302 302 302 303 303 303 304 304 304 304 305 305 306 308 310 313 315 316 318 320 322
316 316 315 315 314 314 313 313 312 312 312 311 311 311 311 310 308 307 307 307 307 307 307 305 304 303 303 302 302 302 302 301 301 301 301 301 302 302 302 301 302 302 302 302 302 302 303 303 303 303 304 304 304 304 304 305 308 311 313 315 316 318 320
315 315 315 315 315 314 313 312 312 311 311 310 310 310 310 308 307 307 308 308 307 306 305 304 303 303 302 302 301 301 300 300 300 300 300 301 301 302 302 301 302 302 301 302 302 302 302 302 302 303 303 303 303 303 304 304 306 308 310 312 313 314 316
315 315 315 315 315 314 313 312 312 311 310 310 310 310 309 308 308 308 308 307 306 305 304 303 303 302 302 301 301 300 300 299 299 298 299 299 300 301 301 301 302 302 302 302 302 302 302 302 302 302 302 303 303 303 304 304 305 305 307 308 309 311 313
316 315 315 315 315 314 312 312 312 311 310 310 310 309 309 308 308 308 307 306 304 303 303 302 302 301 301 301 300 299 299 298 298 297 298 298 298 298 299 299 300 301 301 301 302 302 302 302 302 303 303 303 303 303 304 304 304 304 305 306 307 309 310
317 316 316 315 314 313 312 312 311 310 310 310 309 309 309 309 308 306 305 304 303 302 302 301 301 301 300 300 299 299 298 298 297 297 297 298 297 297 297 298 298 298 299 299 300 300 301 301 301 302 302 302 302 302 303 303 303 303 304 305 306 307 308
317 316 315 314 313 312 312 311 311 310 310 310 309 309 309 308 306 305 303 302 302 301 301 301 300 299 299 298 298 298 298 298 298 297 298 298 297 297 297 297 297 297 297 297 298 298 299 299 299 299 300 300 300 301 301 301 302 302 303 304 305 306 307
315 315 314 314 313 312 311 311 310 310 310 310 309 309 307 306 305 303 302 302 301 300 300 299 298 298 297 297 297 297 297 297 297 297 297 297 297 297 297 297 297 297 297 297 297 297 297 297 298 298 298 299 299 299 300 300 301 301 302 303 303 304 305
314 315 314 314 313 313 311 311 310 310 310 309 309 308 306 305 304 302 302 301 300 299 298 296 296 295 295 295 295 296 296 296 296 296 297 297 297 297 297 297 297 297 297 297 296 296 296 296 297 297 297 297 297 298 298 299 300 301 301 302 303 304 305
314 315 314 314 314 313 312 311 310 310 310 309 308 307 305 304 303 302 301 300 299 297 295 294 293 293 293 293 293 294 294 294 294 295 295 296 296 296 296 296 296 296 296 296 296 296 296 296 296 296 296 296 296 296 297 297 299 300 300 301 302 303 303
313 314 314 314 314 312 311 311 310 310 309 308 307 306 305 303 302 302 300 298 297 295 293 292 291 291 292 292 292 293 293 293 293 293 293 294 294 295 295 295 296 296 296 296 296 296 295 295 296 295 295 295 295 295 296 296 297 298 299 300 301 301 302
314 313 314 314 313 312 311 311 310 309 309 307 306 305 304 303 302 300 299 297 295 293 292 291 291 290 291 291 292 292 292 292 292 292 292 292 293 293 294 294 295 295 295 295 295 295 295 295 295 295 295 295 295 295 295 296 296 297 298 299 300 300 301
312 312 313 313 312 312 311 310 310 310 308 307 306 304 303 302 301 299 297 296 294 292 292 291 291 290 291 291 291 291 292 292 292 292 292 292 292 292 293 293 294 294 294 294 295 295 295 295 295 295 294 294 294 294 294 295 295 296 297 298 299 301 301
310 310 311 311 311 311 311 310 310 309 308 306 305 304 303 301 300 298 296 295 293 292 292 292 290 290 290 291 291 291 291 291 292 292 291 291 291 292 292 293 293 293 294 294 294 294 294 294 294 294 294 294 294 294 294 294 294 295 295 296 297 298 299
310 309 310 311 311 311 310 309 309 308 307 305 304 303 302 301 299 298 296 294 293 292 292 291 290 290 290 290 291 291 291 291 291 291 291 291 291 291 291 292 292 293 293 293 294 294 294 294 294 294 294 294 294 294 294 294 294 294 295 295 296 297 297
311 310 310 311 310 309 309 308 308 307 306 305 303 302 302 300 299 297 295 294 293 292 292 291 290 290 290 290 290 291 291 291 291 291 291 291 291 291 291 291 291 292 292 293 293 293 294 294 293 293 293 293 293 293 293 293 293 293 294 295 296 296 297
311 310 310 308 305 306 308 308 307 306 305 304 303 302 301 300 298 297 295 294 293 293 292 291 291 290 290 290 290 290 291 291 291 291 290 290 290 290 290 290 290 291 291 291 292 292 292 292 292 292 293 293 293 293 293 293 293 293 294 294 295 296 297
310 309 308 306 304 306 307 307 306 305 304 303 303 301 300 299 298 296 295 294 294 293 292 291 291 291 290 290 290 290 290 291 291 290 290 290 290 290 290 289 289 290 290 290 290 291 291 291 291 291 292 292 292 293 293 293 293 293 294 294 294 296 297
310 308 307 306 306 307 307 306 305 303 303 302 301 300 299 299 298 297 296 296 295 294 293 291 291 291 291 290 290 290 290 290 290 290 290 290 290 290 290 289 289 289 289 289 290 290 290 290 290 291 291 291 291 292 292 292 292 293 293 294 294 295 295
308 307 306 307 306 306 305 303 301 300 300 300 300 300 299 298 298 298 297 297 296 295 294 292 291 291 291 290 289 289 290 290 290 290 290 290 290 289 289 289 289 289 289 289 289 289 290 290 290 290 290 290 291 291 291 291 292 292 293 293 294 295 295
306 306 306 307 305 303 301 300 299 299 300 300 300 300 299 299 298 298 297 297 296 295 294 293 291 291 291 291 290 289 290 290 290 290 290 290 289 289 289 289 289 289 289 289 289 289 289 289 289 289 289 290 290 290 290 291 291 291 292 293 293 294 295
305 306 306 305 302 300 299 299 299 300 300 300 300 300 299 299 298 297 297 296 295 294 294 293 292 292 292 291 290 289 290 290 290 290 290 289 289 289 289 289 288 288 288 288 288 288 289 289 289 289 289 289 289 290 290 290 291 291 291 292 293 294 294

ECMWFFLT1_925_thetae_006.txt.gz
Theta_e
308 308 307 308 309 311 313 313 314 316 316 315 317 317 317 318 317 316 316 316 316 317 318 318 318 318 318 319 319 319 319 320 321 322 323 324 324 325 326 327 326 326 327 327 327 328 329 330 328 328 328 328 328 328 328 329 328 328 328 327 327 327 327
309 308 307 306 307 309 311 312 314 316 317 317 317 317 317 315 313 312 313 312 312 312 312 313 314 314 314 315 315 315 316 316 317 319 319 319 320 321 323 323 324 324 325 326 327 327 327 328 328 329 328 328 327 327 327 327 327 327 328 328 328 328 327
310 308 307 306 306 306 308 311 313 316 318 317 317 317 316 311 307 307 308 307 307 307 307 307 307 308 308 309 310 310 311 313 313 315 315 316 317 318 319 320 321 322 323 325 325 325 326 327 328 328 327 327 327 326 325 325 325 325 326 328 328 328 328
310 309 307 306 306 305 307 309 312 314 317 318 317 317 315 309 305 305 305 306 307 307 306 306 306 305 305 305 306 307 308 309 310 311 312 313 314 315 315 316 317 319 321 322 322 322 324 325 326 326 326 326 326 326 326 325 324 325 326 327 327 328 328
311 310 308 307 306 305 306 308 311 313 315 316 316 316 314 310 307 307 307 307 308 308 306 305 305 304 304 304 304 305 306 307 307 308 309 310 311 312 313 313 313 315 316 317 318 320 322 322 323 324 325 325 326 326 325 324 324 324 325 326 326 327 328
311 311 310 309 308 307 305 307 310 311 311 312 313 313 312 311 310 310 310 309 310 309 307 305 305 304 304 303 303 304 305 306 306 306 307 308 308 309 310 310 311 311 312 312 314 316 317 319 321 322 323 324 325 325 324 323 324 324 324 325 326 326 327
311 311 311 310 310 308 306 306 307 308 308 308 310 311 311 311 312 312 311 310 311 310 308 305 305 304 304 304 303 303 304 305 305 305 305 306 306 307 307 308 308 309 309 310 310 311 312 313 316 318 319 321 323 323 324 323 324 325 325 325 324 324 324
311 311 312 311 310 309 308 307 306 306 307 307 308 310 310 311 311 311 311 311 311 311 308 306 305 305 305 304 303 303 304 304 304 304 304 304 304 304 305 305 306 306 307 307 308 309 309 309 310 312 314 318 320 321 322 323 323 324 324 323 322 321 321
311 311 312 312 311 310 310 309 308 307 307 307 308 309 309 310 310 311 312 311 311 311 309 306 305 306 306 305 303 303 303 303 304 304 304 304 304 304 304 304 304 304 304 305 305 306 307 307 308 308 310 314 317 319 320 321 322 322 322 322 321 321 321
311 312 312 313 312 311 310 310 310 309 308 307 308 308 309 310 311 312 312 312 312 311 309 306 306 306 306 305 304 304 304 303 304 304 304 304 304 304 304 304 304 303 303 303 303 304 305 306 306 306 307 309 312 315 318 318 319 320 320 321 322 322 323
312 312 313 313 313 312 311 310 310 310 308 308 308 309 309 310 312 312 312 311 312 311 308 306 306 307 306 305 304 304 304 303 303 303 303 303 303 303 303 303 303 303 303 303 303 303 304 304 305 305 306 306 307 311 315 315 316 317 318 320 322 322 322
313 313 313 314 314 313 312 311 311 310 310 308 308 309 310 311 312 312 312 312 312 310 308 307 307 307 306 305 304 303 303 303 302 302 302 302 302 302 302 302 302 302 302 303 303 303 303 303 304 304 304 305 305 307 310 312 314 315 316 318 318 319 319
314 314 314 314 314 313 313 312 311 311 310 309 309 309 311 311 311 312 311 311 311 309 307 307 307 306 306 305 304 303 302 302 302 302 302 301 301 301 301 301 301 302 302 302 302 302 302 303 303 303 304 304 304 305 307 310 312 312 313 314 314 315 316
314 314 314 314 314 313 313 312 311 312 311 310 310 310 311 311 311 311 312 311 309 308 307 307 306 306 306 305 303 302 302 301 301 300 300 300 300 301 301 301 301 301 301 302 302 302 302 302 302 303 303 304 304 304 305 308 310 310 311 311 312 313 314
315 315 315 315 315 314 313 312 311 312 312 310 310 310 311 311 311 311 311 310 308 306 306 306 306 306 306 304 303 302 301 300 300 299 299 299 299 300 300 301 301 301 301 301 301 301 301 301 302 302 303 303 303 303 304 305 306 308 308 309 309 310 312
315 315 315 315 315 315 313 313 312 312 312 311 311 311 311 311 311 311 311 309 307 306 306 306 306 306 305 304 302 301 300 300 299 299 298 297 298 298 299 300 301 301 301 301 301 301 301 301 301 302 302 302 302 303 303 303 304 305 306 307 307 308 310
316 315 316 316 316 315 314 313 313 313 312 311 311 311 311 311 311 311 310 308 306 305 306 306 306 306 304 303 302 301 300 300 299 299 298 297 297 297 297 298 299 300 301 301 301 301 301 302 301 301 302 302 302 302 302 302 303 304 305 305 306 307 308
316 316 316 316 315 315 314 314 313 313 311 311 311 311 311 311 311 311 309 307 306 306 306 307 306 305 303 302 301 300 300 299 299 298 297 297 297 297 297 297 298 298 299 299 300 300 301 301 301 301 302 302 302 302 302 302 303 303 304 305 305 304 305
316 315 316 316 316 315 314 314 313 312 312 312 312 311 311 311 310 309 307 306 306 307 307 306 304 303 302 301 300 300 299 298 298 298 297 297 297 297 297 297 297 297 297 297 298 298 299 299 299 300 301 301 302 302 302 302 302 303 303 303 303 303 303
316 316 316 316 315 314 314 314 313 312 312 312 312 311 311 310 309 308 307 307 307 307 305 303 302 301 301 300 299 299 298 298 298 297 297 297 297 297 297 297 297 297 297 297 297 297 297 297 298 298 299 299 300 300 300 301 301 301 301 302 302 302 302
317 315 315 314 313 313 313 313 313 312 312 312 311 311 310 309 309 308 307 307 306 304 302 301 301 300 300 299 298 298 297 297 297 297 297 297 297 297 297 297 297 297 297 297 297 297 297 297 297 297 297 297 298 298 298 299 299 299 300 301 301 301 301
316 315 314 313 314 314 313 313 313 312 312 311 310 310 309 309 308 307 307 305 303 302 301 301 300 299 298 297 296 296 295 295 295 295 295 295 295 296 296 296 296 296 296 297 297 297 297 296 297 296 296 296 297 297 297 297 298 299 299 300 300 300 301
317 315 314 314 314 314 313 313 312 311 311 311 310 309 309 308 308 307 305 303 302 301 300 299 298 297 296 294 293 293 293 293 293 293 293 294 294 294 294 295 295 295 296 296 296 296 296 296 296 296 296 296 296 296 297 297 297 297 298 298 299 300 301
316 315 314 313 313 313 313 312 311 310 311 310 309 309 308 308 306 305 303 302 301 300 299 298 297 294 293 292 291 292 292 292 292 292 292 293 293 293 293 293 293 294 294 295 295 295 295 295 296 296 296 296 296 296 296 296 296 296 297 297 298 298 299
315 314 313 313 312 312 311 311 310 310 310 309 309 308 307 306 304 303 302 301 300 299 299 297 294 292 291 291 291 291 291 291 292 292 292 292 292 292 292 292 292 292 293 293 294 294 294 295 295 295 295 295 295 295 295 295 296 296 296 296 296 297 298
315 314 314 313 312 311 310 310 310 310 310 309 309 308 306 305 303 302 301 301 300 299 298 295 293 292 292 291 291 291 291 291 291 291 291 291 291 291 291 291 291 291 292 292 293 293 294 294 294 294 295 295 295 295 295 295 295 295 295 295 295 296 296
314 313 313 312 310 309 308 308 309 309 309 308 307 306 305 304 303 302 301 301 300 299 296 293 292 293 293 291 291 291 291 291 291 291 291 291 291 291 291 291 291 291 291 291 292 292 293 293 293 294 294 294 294 294 295 295 295 295 295 294 295 295 295
313 312 311 310 309 307 307 307 308 308 308 308 307 306 304 303 302 301 301 301 299 297 294 293 293 293 293 292 291 291 291 291 290 290 290 290 290 291 291 291 291 291 291 291 291 291 292 292 293 293 293 294 294 294 294 294 294 294 294 294 294 294 295
313 311 310 310 308 307 308 309 309 309 308 307 306 305 304 303 303 301 300 300 297 295 294 294 294 294 293 292 291 291 291 290 290 290 290 290 290 290 291 291 290 290 290 291 291 291 291 292 292 293 293 293 294 294 294 294 294 294 294 294 294 294 294
312 311 310 309 307 307 309 309 309 308 308 306 305 305 304 303 302 301 300 298 296 295 295 294 294 294 293 292 291 291 291 290 290 290 290 290 290 290 290 290 290 290 290 290 290 291 291 291 291 292 292 293 293 293 293 293 293 293 293 293 293 293 293
312 311 309 308 307 307 308 309 309 308 307 306 305 304 303 302 301 300 299 297 296 296 296 295 294 294 293 292 291 291 290 290 289 289 289 290 290 290 290 290 290 290 290 290 290 289 289 289 290 290 291 291 292 292 292 293 293 293 293 293 293 293 293
312 311 309 308 307 307 308 309 308 307 307 306 305 304 303 302 301 299 298 297 296 296 296 295 295 294 293 292 291 291 291 290 289 289 289 289 290 290 290 290 290 290 290 289 289 289 289 289 289 289 289 290 290 291 291 292 292 292 292 292 292 292 293
312 310 309 307 307 308 308 308 307 307 307 306 305 304 303 302 300 299 298 297 297 296 296 295 295 294 293 292 291 291 291 290 290 289 289 289 289 289 290 290 290 290 290 289 289 289 289 289 289 289 289 289 289 290 290 290 291 291 291 292 292 292 292
311 310 309 307 307 306 306 306 305 305 306 305 304 304 303 301 300 299 298 297 297 296 295 295 295 294 293 292 291 291 291 291 290 290 289 289 289 289 289 289 289 289 289 289 289 289 288 289 288 289 289 289 289 289 289 289 290 290 290 291 291 291 291
310 309 308 307 306 305 303 303 303 303 304 304 303 302 302 300 299 299 298 297 297 296 296 296 295 294 293 293 292 292 291 291 291 290 289 289 289 289 289 289 289 289 289 289 288 288 288 288 288 288 288 288 288 289 289 289 289 289 289 290 290 290 291
307 306 304 304 303 302 302 303 304 304 304 304 302 301 300 300 299 299 298 297 297 296 296 295 294 294 293 293 292 292 291 291 291 290 290 289 289 289 289 289 289 288 288 288 288 288 287 288 288 288 288 288 288 288 288 289 289 289 289 289 289 290 290
305 304 302 302 302 304 304 305 305 304 303 302 301 300 300 299 299 298 298 297 297 295 295 294 293 293 293 292 292 292 292 291 291 290 290 289 289 289 289 288 288 288 288 287 287 287 287 287 288 288 288 288 288 289 289 289 289 289 289 289 289 289 290

ECMWFFLT1_925_thetae_009.txt.gz
Theta_e
308 308 309 311 312 313 313 315 316 315 316 317 317 318 317 316 316 315 316 317 317 318 318 318 317 317 316 316 317 318 320 321 322 323 323 324 324 325 325 326 326 327 327 328 329 329 330 330 329 329 330 329 329 329 329 329 329 329 328 328 329 329 329
307 308 310 311 312 312 313 314 316 316 316 317 317 316 313 313 312 311 310 310 311 312 313 313 312 312 312 312 312 314 315 317 318 320 320 320 321 322 322 323 324 325 326 327 327 327 328 328 328 328 330 329 328 329 328 328 328 328 328 328 328 328 329
307 308 309 311 312 313 313 313 316 317 316 317 317 313 309 309 308 307 307 306 306 306 306 306 306 305 306 306 307 309 310 312 313 315 316 317 318 319 319 320 321 322 324 325 324 325 326 327 327 327 327 327 327 327 328 328 328 327 327 327 327 327 328
310 308 309 311 312 313 312 313 316 317 316 317 317 312 307 306 306 307 308 306 305 305 304 304 303 303 303 304 305 306 307 308 310 310 311 312 314 315 316 317 318 319 320 322 322 322 324 325 325 325 326 325 325 326 327 328 327 326 326 326 327 328 328
312 309 308 309 310 311 310 312 315 317 317 317 316 312 307 306 307 308 309 307 305 305 304 303 303 303 303 303 304 305 305 306 307 308 309 309 310 312 313 313 315 316 316 317 318 319 320 322 323 323 324 323 324 325 325 326 326 326 326 326 327 328 328
313 311 309 307 308 308 308 310 313 316 316 316 315 312 308 308 309 309 310 309 306 305 305 304 304 303 303 304 305 305 305 306 306 307 307 307 307 308 309 310 311 312 313 313 314 315 316 318 320 321 321 321 322 323 323 324 325 325 325 326 327 327 327
313 312 310 309 307 306 306 307 309 312 312 312 312 311 309 310 311 311 310 310 308 306 305 305 304 303 303 304 305 305 305 306 306 306 307 306 306 306 306 307 308 309 309 310 311 312 313 314 316 317 318 319 320 321 321 322 324 324 325 326 326 325 325
315 314 311 310 309 307 306 306 307 308 308 308 309 310 310 311 312 312 311 310 310 307 305 305 305 304 303 304 305 304 304 305 305 306 306 306 306 306 305 305 306 307 307 308 308 309 310 311 313 314 315 316 316 318 319 319 320 321 321 322 324 324 324
317 316 313 311 310 309 307 306 306 307 307 307 308 310 311 312 312 312 311 311 310 308 306 305 305 304 303 304 305 304 304 305 305 306 306 306 306 306 305 305 305 306 306 306 307 307 308 308 309 311 312 314 314 315 315 316 316 317 318 320 321 322 324
318 316 313 311 310 310 309 307 306 306 307 308 308 309 310 311 312 313 312 311 311 309 307 306 305 305 304 304 304 305 305 305 305 305 305 306 305 305 305 305 305 305 305 305 306 306 306 307 308 308 309 311 313 313 313 314 315 316 317 318 318 319 322
317 315 313 311 311 311 311 309 307 307 307 308 308 308 309 311 312 313 312 312 311 309 307 306 306 305 305 304 304 304 304 304 305 304 304 304 304 304 304 304 305 305 305 305 305 305 306 306 307 307 308 308 310 311 312 312 313 315 316 316 317 318 319
316 314 312 312 311 311 311 311 309 307 307 308 308 309 309 310 312 313 313 312 311 310 307 306 306 305 305 304 304 304 303 304 304 304 304 303 303 303 304 304 304 304 304 304 305 305 305 305 306 306 307 307 308 309 310 311 311 312 314 315 316 317 317
316 314 312 311 311 311 312 312 311 309 308 308 308 308 309 309 311 312 312 312 311 310 308 306 306 306 305 305 305 304 303 303 303 303 303 303 302 303 303 303 304 304 304 304 304 304 304 304 305 305 306 306 306 307 308 309 309 310 312 312 313 313 314
315 314 313 312 312 311 312 312 313 311 309 308 308 308 309 309 310 312 312 312 311 310 307 306 306 306 305 305 304 303 302 302 303 302 302 302 302 302 302 303 303 304 304 304 304 304 304 304 304 305 305 305 306 306 306 307 308 309 310 310 311 311 311
314 314 313 312 312 312 312 313 313 312 310 309 309 308 309 309 311 312 312 312 311 309 307 306 306 306 305 304 303 302 302 302 302 302 302 301 301 301 301 302 302 303 303 304 304 304 304 304 304 304 304 304 304 305 305 305 306 307 308 308 309 309 309
314 314 313 313 313 313 312 313 314 314 312 311 310 309 309 310 311 312 312 311 310 308 307 306 306 305 305 304 303 302 302 302 302 301 301 301 300 300 301 301 301 302 302 303 304 304 304 304 304 303 304 304 304 304 304 304 305 305 306 307 307 307 308
314 314 314 314 314 313 313 313 313 314 313 312 311 310 310 310 311 311 311 311 309 307 306 306 306 305 305 304 303 302 302 301 301 301 301 300 300 300 300 301 301 301 301 301 302 303 303 303 303 303 303 303 303 303 303 303 304 304 305 305 306 306 306
316 315 315 315 315 314 314 313 314 314 314 312 311 311 310 310 311 311 311 311 309 307 306 306 306 305 304 303 302 301 301 301 301 300 300 300 300 300 300 300 300 300 300 300 301 301 302 302 302 302 302 302 303 303 303 303 303 303 304 304 305 305 305
317 316 316 315 315 315 314 314 314 314 314 312 311 311 311 311 311 311 311 310 308 306 306 306 305 304 303 302 301 301 300 300 299 299 299 299 299 299 299 299 299 300 300 300 300 300 300 301 300 301 301 301 301 302 302 303 303 303 303 303 303 304 304
318 318 317 316 315 315 314 314 314 313 312 311 311 311 311 311 311 311 311 309 307 306 306 305 304 303 302 301 301 300 299 298 297 296 296 296 297 298 298 298 299 299 299 299 300 300 300 300 300 300 300 301 301 301 301 301 302 302 302 302 302 303 303
318 318 318 317 315 315 315 314 314 313 312 310 311 311 311 311 311 311 310 308 306 306 305 305 303 303 302 301 300 299 297 295 294 294 294 295 295 296 296 297 297 298 298 298 298 298 299 299 300 300 300 300 300 300 300 300 301 301 301 301 302 302 302
317 318 318 317 316 315 315 314 314 313 312 311 311 311 311 311 311 310 308 307 307 306 305 304 303 302 301 300 299 297 295 293 293 293 294 294 294 294 295 295 296 295 295 294 294 294 295 296 297 298 299 299 299 299 299 300 300 300 301 301 301 301 302
316 317 317 316 316 316 315 314 314 313 312 311 311 311 310 311 311 309 308 307 306 305 304 304 303 302 300 299 297 294 293 292 293 293 294 294 294 294 294 295 295 293 293 293 293 293 293 293 294 295 296 297 298 299 299 299 299 299 300 300 301 301 301
316 316 316 316 315 315 314 314 312 312 311 310 310 310 310 310 310 308 307 306 305 304 303 302 301 300 298 296 294 292 292 293 293 293 294 294 294 294 294 294 294 294 293 294 294 294 293 293 293 294 294 295 295 296 297 298 299 299 299 299 300 300 300
315 316 316 315 315 314 313 312 311 310 310 309 309 310 310 309 308 307 306 304 303 303 302 301 300 297 295 294 292 292 292 293 293 294 294 294 294 294 294 294 294 294 294 293 293 294 294 294 294 294 294 294 294 294 295 296 297 297 298 299 299 299 299
315 315 315 315 314 313 312 311 310 309 309 309 309 310 309 308 307 306 305 303 303 302 301 300 298 295 294 293 293 293 292 292 293 293 293 293 293 293 293 293 294 294 294 293 293 294 294 294 294 294 294 294 294 294 294 294 295 295 296 297 298 298 299
314 315 314 314 314 312 311 310 309 309 308 308 308 309 308 307 306 305 304 303 303 301 300 298 296 294 294 294 293 292 292 292 292 292 292 292 292 292 292 293 293 293 293 293 293 294 294 294 294 294 294 294 295 295 295 295 295 295 295 295 296 297 297
313 314 314 314 313 312 311 309 309 308 308 308 308 307 307 306 305 304 303 303 302 300 298 296 294 294 295 294 293 292 292 291 292 292 292 292 292 292 292 292 292 293 293 293 293 293 292 292 292 293 293 293 294 294 295 295 295 295 295 296 296 296 297
312 313 313 313 312 311 310 309 308 308 307 307 306 307 306 305 304 303 303 302 301 299 297 295 294 295 295 294 293 293 292 292 292 292 292 292 291 291 292 292 292 293 293 293 293 292 291 291 291 292 292 292 292 293 293 294 294 294 295 295 295 296 296
311 312 312 312 312 311 309 309 308 307 307 306 305 306 305 304 304 304 303 301 300 298 295 294 295 295 294 294 293 293 292 293 293 293 292 292 292 292 292 291 291 292 292 293 292 291 291 290 290 291 291 291 292 292 292 292 293 293 293 293 293 294 294
310 311 312 312 312 311 309 308 307 306 306 305 305 305 305 304 304 303 302 300 298 296 295 295 295 294 294 294 294 293 293 293 293 293 293 293 292 292 292 291 291 291 292 292 292 291 290 290 290 291 291 291 291 291 291 291 291 292 292 292 292 293 293
309 311 311 311 312 311 309 307 306 305 305 304 304 304 304 304 302 301 301 299 297 296 296 296 295 295 294 294 294 293 293 293 293 293 293 293 293 293 292 292 291 291 291 291 291 290 290 290 290 290 290 290 291 291 291 291 291 291 291 291 292 292 293
308 310 311 311 311 310 308 307 305 304 304 305 305 304 303 303 301 300 299 298 297 297 297 297 296 295 294 295 295 294 292 293 294 294 293 293 293 293 293 292 292 292 291 291 290 289 289 289 289 289 290 290 290 290 290 290 290 290 290 290 291 291 291
308 310 310 310 310 309 307 306 305 304 304 304 304 303 302 302 301 300 299 298 297 297 297 296 295 295 295 295 295 294 293 292 293 293 293 293 293 293 293 292 292 292 291 290 290 289 289 288 288 288 289 289 289 289 289 289 289 289 289 289 290 290 290
308 309 310 310 309 307 306 305 304 303 303 303 303 302 302 300 299 298 298 298 298 297 297 296 295 295 295 295 294 293 292 292 291 291 292 292 293 293 292 292 292 291 290 290 289 288 288 287 287 287 288 288 288 288 288 288 289 289 289 289 290 290 290
308 309 309 308 307 305 303 302 302 302 302 303 303 302 300 299 298 298 298 298 298 297 296 296 296 295 294 293 292 292 291 291 291 291 291 292 292 292 292 291 291 290 289 288 288 287 287 287 287 287 288 287 287 288 288 288 288 289 289 289 290 290 290
308 308 307 305 304 303 301 301 301 301 302 302 301 300 299 298 298 298 298 298 297 297 296 295 295 294 292 292 291 291 291 291 291 290 290 291 291 291 291 290 290 288 288 287 287 287 287 287 287 288 288 288 287 287 288 288 289 289 289 289 290 290 290

ECMWFFLT1_925_thetae_012.txt.gz
Theta_e
317 318 319 320 319 319 320 320 320 321 321 320 320 320 320 320 320 320 320 320 320 320 320 320 320 321 321 321 321 322 322 322 323 324 325 325 327 327 327 328 328 328 328 329 330 330 330 331 330 326 327 329 329 332 333 332 333 333 334 334 333 333 333
317 317 317 319 319 320 321 321 320 321 321 320 319 318 318 317 318 318 319 318 318 317 317 318 319 319 320 320 321 321 321 321 321 321 322 322 323 323 324 324 325 326 326 328 328 329 328 329 330 328 328 328 328 331 332 332 332 333 333 333 333 332 332
316 316 317 318 319 320 321 321 321 321 320 318 317 317 315 314 314 315 315 315 314 314 314 314 315 315 316 317 318 319 320 320 320 320 320 320 320 320 321 322 322 322 324 325 325 326 327 327 327 327 328 327 327 329 331 331 331 331 332 331 331 331 331
316 316 318 319 319 319 320 321 321 320 319 317 316 315 314 314 314 314 313 313 313 312 312 312 313 313 314 314 314 315 316 317 317 318 318 318 318 318 319 319 319 320 321 322 322 322 323 325 324 324 324 324 324 325 327 328 329 329 328 328 329 330 329
317 317 317 319 319 319 319 320 320 319 319 317 315 315 315 315 315 314 313 313 313 312 312 312 312 312 313 313 313 314 314 315 315 315 316 316 316 317 317 317 317 318 318 319 319 319 320 321 322 322 321 321 322 323 323 324 326 325 324 324 326 327 328
319 316 317 318 318 318 319 319 320 319 319 318 316 314 315 316 315 315 314 313 313 312 311 311 311 311 312 312 312 313 313 313 313 313 313 313 314 314 314 314 314 316 316 316 316 317 318 318 319 320 320 319 319 320 319 319 321 321 321 322 322 324 326
321 318 317 318 318 317 318 319 318 319 319 318 317 315 315 316 316 316 315 313 313 312 311 311 311 311 312 311 312 312 312 312 312 312 312 312 312 312 312 312 312 313 313 314 314 315 315 315 317 317 317 317 317 317 317 316 317 318 320 321 321 322 323
322 320 318 318 319 318 318 318 317 318 319 318 318 316 315 316 317 316 315 314 313 312 312 311 311 311 311 311 312 312 312 312 312 312 312 312 312 311 311 311 311 311 311 311 311 312 312 313 314 315 315 314 314 315 315 316 316 316 317 318 318 319 320
323 322 319 319 320 319 317 317 317 318 318 318 319 317 316 317 317 316 315 314 314 313 312 312 311 311 311 311 312 312 311 311 312 312 312 312 312 311 311 311 311 311 310 310 310 310 311 311 312 312 313 313 313 314 314 315 316 316 316 317 317 319 320
321 322 322 321 321 319 317 317 317 318 318 319 320 319 317 317 317 316 316 315 314 313 312 312 312 311 311 311 311 311 311 311 311 311 311 311 311 311 310 310 310 310 310 309 310 310 310 311 311 311 312 312 313 313 313 313 315 316 316 317 317 318 317
320 321 322 323 322 320 318 317 317 318 319 319 320 319 318 318 317 317 316 316 315 314 312 312 311 311 311 311 311 310 310 310 310 310 309 310 309 309 309 309 309 310 309 310 310 310 310 310 310 311 311 311 312 313 313 313 313 315 315 315 316 316 317
321 322 322 323 322 321 319 317 317 318 319 319 319 319 318 318 318 317 317 316 315 314 313 312 312 311 311 311 311 310 309 310 310 309 308 308 308 308 309 308 308 309 308 308 310 310 309 310 310 310 311 311 311 312 313 313 313 313 314 315 316 316 315
321 323 323 323 323 321 319 318 317 318 318 318 318 318 318 318 318 317 317 316 315 314 314 313 312 312 311 311 311 310 309 308 309 309 308 307 307 307 307 307 308 308 307 307 308 309 309 309 309 309 309 310 311 311 312 312 312 313 313 313 314 314 313
321 322 323 323 323 322 320 319 318 317 318 317 317 318 318 317 317 317 317 316 315 314 314 313 312 312 311 311 310 310 309 308 308 308 307 307 307 306 306 306 307 307 307 307 307 307 308 308 308 308 309 309 309 310 310 311 312 312 312 312 313 313 312
321 322 322 323 323 322 321 320 319 318 318 317 317 317 317 317 317 317 317 316 315 315 314 313 312 311 311 311 310 309 308 308 308 307 307 307 306 306 306 306 306 306 306 306 307 307 307 307 307 307 308 308 308 308 309 309 310 311 311 311 311 312 311
321 322 323 322 323 322 321 321 320 319 319 318 317 317 317 317 318 317 317 317 315 315 314 313 312 311 311 310 310 309 308 308 308 307 307 306 305 306 306 306 306 306 306 306 306 307 307 307 307 307 307 307 308 308 308 308 308 309 309 310 310 310 310
321 321 323 323 322 322 321 321 320 320 319 318 318 317 317 317 317 317 317 316 316 315 314 313 312 311 311 310 309 309 308 308 307 307 306 305 305 305 305 305 305 305 305 305 305 305 305 306 306 306 306 307 307 307 308 308 308 307 308 308 309 309 309
322 322 323 323 323 322 322 321 320 320 319 318 319 318 317 318 317 317 317 317 316 315 313 312 312 311 310 309 309 308 307 307 307 306 306 305 304 304 304 304 304 304 304 305 305 305 305 305 305 304 304 305 305 306 306 307 307 307 307 308 308 308 308
322 322 323 323 323 322 322 321 321 320 319 319 319 319 318 318 318 317 317 317 316 315 313 312 311 310 310 309 308 307 307 307 306 305 305 304 303 303 303 303 303 303 303 304 304 304 304 304 304 304 304 304 304 304 305 306 306 307 307 307 307 307 307
323 323 323 323 323 323 322 321 321 320 319 319 319 319 319 318 317 317 317 317 315 314 313 312 311 310 309 308 308 307 307 306 305 304 303 302 302 302 301 302 302 302 302 303 303 304 304 304 304 304 305 305 305 305 305 305 305 306 306 306 307 307 307
321 322 322 323 323 323 322 322 321 320 319 319 319 319 318 317 316 316 316 316 315 314 313 312 311 310 309 308 307 307 306 305 303 303 302 301 301 300 300 300 300 300 301 301 300 300 301 301 302 303 303 304 304 304 304 304 304 305 305 305 306 306 307
317 319 321 321 322 322 322 322 321 320 319 319 319 319 317 316 317 317 316 316 314 313 312 311 310 309 308 307 307 305 304 302 301 301 300 300 300 300 299 299 300 299 297 295 294 295 295 295 296 298 300 301 302 303 303 304 304 304 304 305 305 306 306
315 317 319 320 320 321 322 321 321 320 320 319 319 318 317 317 317 316 316 315 313 312 311 310 308 307 307 306 305 303 302 301 300 300 300 300 300 300 299 299 299 298 295 294 295 295 294 294 294 294 296 297 299 301 302 303 303 303 304 304 304 305 305
314 315 317 318 319 320 321 321 320 320 320 319 318 316 317 317 316 315 315 313 312 311 310 308 307 305 304 303 303 302 301 300 299 299 299 299 299 299 299 298 298 298 297 298 298 297 296 295 295 294 294 294 295 296 298 300 301 302 303 303 303 304 305
311 313 316 317 318 319 320 319 319 319 319 319 317 316 316 316 315 315 314 313 312 310 308 306 305 303 302 301 300 300 300 299 299 299 299 299 299 298 298 298 298 298 298 298 297 297 297 297 297 296 295 295 294 294 294 295 297 299 301 302 303 303 304
309 311 314 316 317 318 318 318 318 318 319 318 317 317 316 315 314 313 313 312 310 308 306 305 304 302 301 298 296 297 299 299 298 298 299 298 298 298 298 297 297 297 298 297 297 297 298 298 298 297 297 296 296 295 295 295 295 296 297 298 300 301 302
308 310 312 315 316 317 317 317 317 317 317 317 317 317 316 315 314 313 312 311 308 306 304 303 302 301 299 296 294 295 298 298 297 298 298 298 298 298 297 297 297 297 297 297 297 298 298 297 297 297 297 297 297 297 297 297 296 296 295 296 297 298 299
308 309 310 313 315 316 316 317 316 316 316 316 316 316 315 314 313 311 310 309 307 304 303 302 301 299 296 295 294 295 297 298 298 298 298 298 298 297 297 297 297 297 297 297 297 296 296 295 296 296 296 297 297 297 297 297 297 297 297 297 297 298 299
308 309 309 311 313 315 315 316 315 315 315 315 314 314 314 312 312 310 309 307 305 303 302 301 299 296 295 295 295 295 298 299 298 298 298 298 297 297 297 297 297 296 296 296 296 295 294 294 294 295 295 296 296 297 297 297 296 296 296 296 297 297 298
308 309 310 310 312 314 315 315 314 314 314 314 313 312 312 311 310 309 307 305 303 302 300 298 296 295 295 295 295 296 298 298 298 298 298 298 298 297 297 297 296 296 296 296 295 294 293 293 293 294 295 295 296 296 296 296 296 295 295 294 294 294 295
308 309 310 310 311 313 314 314 314 313 313 313 312 311 310 309 307 307 305 304 302 301 299 296 294 295 295 295 295 296 298 298 297 298 297 297 298 298 297 297 295 295 295 295 295 293 292 292 292 294 294 294 295 295 295 296 296 295 295 294 294 294 293
308 308 309 310 312 313 314 313 313 313 313 312 310 309 308 307 305 304 303 302 301 299 297 294 294 295 295 294 294 296 297 297 297 297 297 297 297 297 297 297 296 295 295 294 293 292 292 291 292 293 293 293 294 294 294 295 295 295 295 294 294 294 294
308 309 310 311 312 313 313 312 312 312 311 309 308 307 306 305 303 303 302 301 299 297 296 295 295 295 295 294 294 294 295 296 296 297 297 297 297 296 296 296 296 296 295 294 293 292 291 291 291 291 291 292 292 293 293 293 293 293 293 293 293 293 293
308 309 310 311 312 312 312 311 312 311 308 307 306 305 304 303 303 302 301 299 297 296 296 295 295 295 294 293 293 293 294 296 296 296 296 296 295 295 295 295 296 295 295 294 293 292 292 291 290 290 290 290 291 291 291 291 291 291 291 291 291 292 292
308 308 309 310 311 311 311 311 310 309 307 305 304 303 303 303 303 301 300 298 296 296 296 296 295 294 293 293 292 292 293 294 294 294 294 294 294 294 295 295 295 295 294 293 292 292 291 290 289 289 289 289 289 289 289 289 289 289 290 290 290 291 292
307 308 309 309 310 311 311 310 308 307 306 305 304 303 302 302 301 299 298 297 297 296 296 296 296 295 294 293 293 292 292 292 291 291 293 294 294 294 295 295 295 295 293 292 291 290 289 288 288 288 289 288 288 288 288 288 289 289 289 290 290 291 291
307 307 308 309 310 310 309 307 306 305 305 303 302 301 301 301 299 298 298 298 298 298 298 298 296 295 293 293 292 291 291 290 290 291 292 293 294 294 295 294 293 292 291 289 289 288 288 288 289 289 289 289 289 289 289 289 289 289 290 290 290 291 291

ECMWFFLT1_925_thetae_015.txt.gz
Theta_e
320 321 322 321 321 321 321 322 322 322 323 322 322 322 321 322 322 321 321 321 321 321 321 322 322 322 323 323 323 323 324 325 326 327 327 327 328 328 328 328 328 328 328 329 331 331 330 331 331 329 327 327 328 327 327 327 328 328 330 330 331 332 332
320 319 320 320 320 321 322 322 322 322 322 321 320 320 320 320 320 321 320 319 319 319 319 319 319 320 322 322 322 322 322 322 323 324 325 325 325 326 326 327 326 326 327 328 330 329 328 328 330 331 330 328 328 326 325 327 329 329 331 330 330 330 330
319 318 319 320 321 322 322 322 322 321 321 320 319 318 317 317 317 317 317 316 316 315 315 316 316 317 318 319 320 321 321 321 321 321 322 322 322 322 322 323 323 324 325 326 327 327 326 326 327 328 329 330 331 327 325 326 328 328 330 331 330 329 330
319 318 320 320 320 322 322 321 321 320 319 319 319 317 317 316 316 316 315 315 315 314 315 315 315 316 316 317 318 318 319 319 320 320 320 320 320 320 320 320 320 320 321 322 323 323 322 323 323 323 323 325 327 326 325 325 326 328 328 329 330 329 329
319 319 320 320 320 321 321 321 321 320 319 318 318 317 318 317 316 316 316 315 315 315 315 315 315 315 316 316 317 317 317 317 318 318 318 318 319 319 318 318 318 318 319 319 319 320 320 319 320 319 318 317 319 321 323 324 325 325 324 325 325 326 328
319 319 321 321 320 320 321 320 321 320 320 318 317 317 318 318 316 316 316 316 315 315 315 315 315 315 315 315 315 316 316 316 316 316 316 316 316 316 316 316 315 316 317 316 316 317 317 317 317 316 317 317 317 317 318 318 318 319 319 320 320 321 324
320 319 320 320 320 319 320 320 320 320 320 319 318 318 318 317 317 317 316 316 315 315 315 315 315 315 315 314 315 316 316 316 316 316 316 316 315 315 315 315 314 314 315 315 315 315 315 316 317 316 317 316 315 315 314 314 315 316 318 320 320 320 320
320 319 319 320 319 319 319 320 319 319 320 320 319 318 317 318 319 318 317 316 315 315 315 314 314 315 315 314 314 315 315 315 315 315 315 315 315 315 314 314 315 314 313 313 313 314 314 314 315 315 316 315 315 315 315 315 315 315 316 318 319 319 319
321 320 318 319 320 319 319 320 319 319 320 320 319 318 317 318 319 318 316 316 315 315 315 314 314 314 314 314 314 314 314 314 315 315 315 315 314 314 313 313 315 314 312 312 313 313 313 313 313 314 314 315 315 315 315 315 315 315 316 317 317 318 319
323 322 319 318 320 320 319 320 319 319 320 320 321 319 317 318 319 318 317 317 316 316 315 315 314 314 314 314 315 315 314 314 314 314 314 314 314 314 312 312 313 314 311 311 313 312 312 313 313 313 314 314 314 314 315 315 315 315 316 315 316 316 316
325 324 322 320 322 322 320 319 319 319 320 320 321 320 318 319 319 318 318 317 317 316 316 315 314 314 314 314 314 315 314 314 314 313 313 313 313 312 312 311 312 312 311 311 313 313 312 313 313 312 313 313 314 314 314 314 314 315 315 315 315 315 316
325 324 323 322 323 323 321 319 318 319 320 320 322 321 319 319 319 318 318 318 317 317 316 315 314 314 314 314 313 313 314 314 314 313 312 312 313 312 312 311 311 311 310 310 312 313 312 312 312 311 311 312 313 314 314 314 314 314 314 315 315 315 315
324 323 323 323 323 324 322 320 319 319 320 320 321 322 319 319 319 318 318 318 318 317 316 315 315 314 314 314 313 313 313 313 313 313 312 311 311 312 312 312 311 311 310 309 311 311 310 311 312 311 310 311 312 312 313 314 314 314 313 314 314 314 314
324 323 323 323 324 324 323 321 319 320 321 321 322 322 320 319 319 319 318 318 318 317 317 316 315 315 315 315 314 314 313 311 312 312 312 311 310 310 310 310 310 311 311 310 310 310 309 311 311 311 311 311 311 311 312 312 313 313 313 313 313 314 314
325 324 324 324 325 325 323 321 320 320 320 321 321 322 320 319 319 319 318 318 317 317 316 316 315 315 315 314 314 314 312 311 311 311 311 311 310 310 310 310 310 310 310 309 309 309 309 309 309 309 310 310 310 310 310 310 311 312 311 311 312 312 312
323 323 323 322 323 324 323 321 322 322 321 321 321 321 320 319 319 319 319 318 318 317 316 316 316 315 314 315 314 313 312 311 311 312 311 310 310 310 310 310 310 310 309 309 309 309 309 309 309 309 309 309 309 310 310 310 311 311 311 311 310 311 311
323 323 323 321 322 323 323 321 321 321 321 320 320 320 320 319 319 320 319 319 318 318 317 316 316 315 314 314 314 313 312 312 312 312 311 310 309 309 309 309 309 309 309 308 309 308 308 308 309 308 308 308 308 308 309 310 310 311 311 311 311 310 310
324 324 323 321 320 321 322 321 321 321 321 321 320 320 320 319 320 320 320 319 319 319 318 317 316 315 314 314 314 313 312 311 311 311 310 310 309 308 308 309 308 308 307 308 308 308 308 308 308 307 307 307 306 307 307 308 308 309 310 310 310 310 310
324 325 323 322 321 321 322 323 323 322 322 321 320 319 320 319 319 319 320 320 319 319 318 318 317 316 315 314 314 313 312 311 311 310 310 309 308 308 307 307 307 307 307 307 307 307 307 307 307 307 307 307 307 307 307 308 308 308 308 308 309 309 309
322 323 324 323 322 322 322 323 324 323 322 321 320 319 319 320 320 319 320 320 319 319 319 318 317 316 315 314 314 312 311 311 310 309 309 308 307 307 306 306 306 305 305 306 306 307 307 307 307 306 306 307 307 307 307 307 307 307 307 308 308 308 308
313 316 319 320 321 323 324 324 323 322 321 321 321 320 320 321 321 320 320 320 319 319 319 318 317 316 315 314 313 312 311 311 310 309 308 306 306 305 304 304 304 304 304 304 303 302 301 301 301 302 303 303 304 304 305 305 306 306 307 307 307 307 308
310 312 315 317 318 320 322 323 323 322 321 320 321 321 321 321 321 321 321 320 319 319 319 318 318 316 315 314 313 312 312 310 310 309 307 305 305 304 303 304 303 303 303 300 296 294 294 294 295 297 299 300 302 303 303 304 305 305 306 306 306 306 307
312 313 315 316 317 318 319 320 322 322 322 321 321 322 321 322 322 321 321 320 319 319 319 318 317 316 314 313 313 312 311 309 308 307 306 305 305 304 303 303 303 302 301 298 296 295 294 294 294 295 296 297 298 300 301 302 303 303 304 304 305 305 306
311 312 313 314 316 317 318 319 320 320 322 322 322 322 322 322 322 321 320 319 319 319 318 317 316 315 313 312 312 311 309 308 306 306 305 305 304 304 303 303 302 302 301 300 300 299 297 296 296 297 297 296 296 296 297 299 300 301 302 303 303 304 304
308 309 310 311 314 315 317 318 319 319 319 320 321 322 321 321 321 320 320 319 318 318 317 316 315 313 311 310 310 308 308 306 305 304 304 304 303 303 303 302 302 302 301 301 301 299 298 299 300 299 299 298 297 297 296 296 297 298 299 300 301 302 303
307 308 308 309 311 313 315 317 318 318 318 319 320 321 321 321 320 320 319 318 317 316 315 314 313 311 310 309 307 306 306 305 304 304 304 303 303 302 302 301 301 301 301 300 300 299 300 301 301 300 299 299 298 298 298 298 297 297 298 298 299 300 301
308 308 308 308 309 310 312 314 316 317 317 317 319 320 321 321 320 320 318 317 317 316 313 311 311 309 308 307 305 304 304 304 303 302 303 302 302 301 301 301 301 300 300 300 300 300 301 300 300 299 299 299 299 299 300 300 299 298 298 298 298 299 299
308 308 308 308 309 309 310 312 314 316 316 316 316 318 319 320 320 319 318 317 317 313 310 310 309 308 306 305 302 302 303 303 301 301 301 301 301 301 301 301 300 300 300 300 300 300 299 298 298 298 297 298 298 299 299 300 300 299 299 299 298 299 299
308 308 307 308 308 309 309 311 313 315 316 315 316 316 317 318 319 318 317 317 315 310 308 308 307 305 303 301 298 299 301 302 301 301 301 301 301 301 300 300 300 300 300 300 299 298 297 297 296 296 297 297 298 298 299 299 299 299 299 299 298 299 299
308 308 308 307 308 308 309 310 312 313 315 315 315 315 315 316 317 317 316 316 312 307 306 306 304 301 299 297 296 299 301 301 301 301 301 301 301 301 301 301 301 300 300 300 299 298 297 296 296 296 296 297 297 298 298 298 299 298 298 298 297 297 297
308 308 308 307 307 308 308 309 310 313 314 314 314 314 314 315 316 315 316 314 309 305 304 301 299 298 297 296 297 299 301 301 301 301 301 301 301 301 301 300 300 299 299 299 298 297 297 296 295 295 296 296 297 297 297 297 298 298 298 298 297 297 297
308 308 308 308 308 308 309 309 310 312 313 313 313 313 313 314 314 313 312 309 306 305 302 298 295 296 296 296 297 299 300 300 300 300 301 300 300 300 300 300 299 298 298 298 297 297 296 295 295 295 296 296 295 296 296 296 296 297 297 297 297 297 297
308 309 309 309 310 310 310 310 310 312 312 312 312 312 313 313 311 308 307 305 303 303 300 296 294 296 295 295 296 298 298 298 298 299 300 299 299 299 299 299 298 297 297 296 296 295 294 294 293 294 294 295 295 295 295 294 294 294 294 294 294 295 295
308 309 309 310 310 311 311 311 312 312 312 311 312 312 311 311 308 305 304 302 300 299 297 295 294 295 294 294 295 296 296 297 298 298 298 297 297 297 297 297 297 297 296 296 295 294 293 293 292 291 292 293 293 293 292 292 292 292 292 292 292 292 293
308 309 309 309 310 311 311 312 312 312 311 311 312 311 309 307 305 303 301 300 298 296 295 295 294 294 294 294 294 294 295 296 296 295 295 295 295 296 296 296 296 296 296 295 294 293 293 292 291 290 290 290 290 290 290 290 290 290 290 291 291 291 292
308 309 309 309 310 310 311 311 311 311 311 311 311 309 307 305 303 301 300 299 298 296 295 295 295 295 294 294 294 294 294 294 293 292 293 294 295 295 295 296 297 297 296 295 294 293 292 291 290 290 290 290 290 290 289 289 290 290 290 290 291 291 291
307 308 308 309 309 309 310 310 311 311 310 310 309 307 305 304 302 301 300 299 299 298 297 296 296 295 295 294 294 293 292 292 292 292 293 294 295 296 296 297 296 296 295 293 292 291 290 291 291 291 291 291 290 290 290 290 290 290 290 291 291 291 291

ECMWFFLT1_925_thetae_021.txt.gz
Theta_e
321 321 321 321 321 320 321 322 322 321 321 321 320 321 321 321 320 318 318 321 321 322 322 322 322 322 323 324 325 324 324 326 327 327 327 327 327 327 327 328 327 328 329 328 328 329 332 335 333 330 328 327 327 326 325 325 323 321 322 322 324 325 326
321 320 320 321 321 321 322 322 321 319 319 319 318 319 318 319 319 316 315 317 317 316 317 318 319 320 321 322 322 321 322 323 325 326 326 325 325 324 325 326 327 328 329 328 327 325 326 331 334 333 328 326 328 327 327 326 324 322 322 322 323 324 325
321 321 320 321 321 322 321 320 318 318 318 317 316 316 316 316 317 316 315 316 315 314 314 315 316 317 319 320 320 319 319 320 321 322 322 320 319 319 320 321 324 326 326 324 323 322 322 325 329 328 321 320 324 325 325 326 324 322 323 322 322 322 323
320 320 320 321 321 321 320 319 319 317 316 316 315 315 315 315 314 314 315 315 315 315 316 316 317 317 317 318 319 318 318 318 319 319 317 316 316 317 317 318 319 320 319 318 318 317 318 319 322 322 316 315 317 316 319 323 323 323 323 321 320 321 322
320 320 320 321 321 320 320 320 320 318 316 315 316 315 314 315 315 314 314 315 316 316 316 316 316 316 316 317 317 317 317 316 317 319 316 315 316 315 315 316 315 314 314 315 316 315 316 316 317 317 315 315 316 314 314 317 319 322 321 320 319 318 319
320 320 319 321 321 320 320 320 319 318 317 317 317 315 313 315 316 315 314 315 315 315 315 314 313 313 314 314 313 314 314 311 313 317 317 316 315 314 314 313 313 313 313 314 314 314 315 314 314 315 314 315 316 315 315 314 315 316 318 320 322 321 320
320 319 319 321 321 320 321 320 319 318 317 317 317 315 313 315 316 316 314 313 313 314 314 315 315 314 313 312 312 312 312 309 308 311 313 314 314 314 313 313 312 313 313 313 314 313 314 314 313 314 315 315 315 314 314 314 315 314 314 317 321 324 326
320 319 319 321 321 320 321 320 320 320 318 317 317 315 315 317 316 315 313 311 311 313 313 315 315 315 314 311 310 312 313 311 308 307 309 312 314 314 313 312 311 312 312 313 313 312 312 313 313 313 314 316 318 317 314 314 315 314 314 314 316 318 320
320 320 320 321 321 321 321 320 320 321 319 318 318 316 316 317 315 312 310 309 309 309 310 313 314 315 313 310 311 313 315 315 312 309 309 310 313 314 313 312 310 310 313 313 310 309 310 312 313 312 313 314 317 318 318 318 317 314 313 313 314 313 313
321 320 320 320 321 321 320 320 320 321 320 319 319 317 315 317 316 314 311 309 308 308 309 313 314 314 313 312 313 315 316 315 313 311 310 308 310 313 313 313 310 309 312 312 311 310 310 311 312 311 312 312 314 317 318 321 319 314 313 313 313 313 312
320 321 320 319 320 321 320 320 320 321 321 320 320 318 316 316 317 315 313 312 310 308 308 312 314 313 314 314 314 314 314 312 312 312 311 307 307 310 312 312 311 309 310 312 312 312 311 310 310 310 311 311 312 314 314 317 318 315 311 312 312 312 311
320 320 321 320 318 321 321 319 320 320 321 320 320 319 318 317 318 317 315 314 313 311 309 312 315 313 314 315 314 314 312 311 312 311 310 307 306 309 310 311 310 308 309 312 312 311 310 310 311 309 310 310 310 312 312 313 316 314 311 311 311 310 310
320 318 320 321 319 320 321 320 319 319 321 321 320 320 319 318 318 317 317 316 316 314 312 313 315 313 313 314 314 314 312 313 314 311 310 310 309 310 311 311 309 307 307 309 309 309 309 310 311 310 311 311 311 311 311 311 313 312 310 310 310 309 309
323 321 320 322 319 319 320 321 320 319 320 321 320 321 321 320 319 318 317 317 317 317 315 314 315 313 313 314 314 314 312 313 315 312 311 312 311 310 311 311 311 309 307 305 306 309 309 309 309 309 310 310 309 310 310 309 310 310 309 309 309 309 309
325 324 323 323 321 320 320 320 320 320 320 321 321 321 321 321 320 319 318 317 318 318 317 316 316 314 313 314 314 314 313 313 314 313 312 312 310 309 310 310 310 311 308 305 305 308 308 307 308 308 308 308 308 308 308 308 309 309 309 309 309 309 309
323 323 323 323 323 323 322 321 321 321 321 321 321 321 321 321 321 320 319 319 319 318 319 318 316 315 314 314 314 314 313 313 312 313 313 311 310 310 309 308 309 310 309 306 305 307 308 308 308 308 308 307 307 307 307 308 308 308 308 309 308 308 307
322 323 322 323 323 323 323 322 323 322 321 321 320 321 322 322 322 321 320 320 320 319 319 319 318 317 316 314 314 315 315 314 312 312 313 312 311 311 310 308 309 310 310 308 307 307 308 309 309 308 307 307 307 307 307 306 307 307 307 307 307 307 307
321 321 321 322 322 322 322 322 323 323 322 322 320 320 321 322 322 322 321 321 320 320 319 319 318 318 317 316 315 315 315 315 313 311 312 312 310 310 311 310 309 310 310 309 308 308 308 309 308 307 306 306 306 306 306 306 306 306 306 306 306 306 306
320 320 321 322 321 321 320 320 321 320 320 320 319 319 320 320 320 320 321 320 321 320 319 319 319 318 317 317 316 315 315 315 314 312 312 312 311 310 310 310 309 309 309 308 308 308 308 307 307 306 306 306 306 305 305 305 305 305 304 304 304 304 304
321 321 322 322 322 321 320 320 320 319 319 320 319 318 317 318 317 318 318 319 320 320 320 319 319 318 318 317 316 316 316 315 315 313 312 312 312 311 310 309 309 309 308 308 307 307 306 306 306 304 303 302 302 301 301 301 302 302 303 303 303 303 303
323 323 324 324 323 322 321 321 321 320 321 321 319 318 317 317 317 316 317 318 319 320 320 320 319 319 318 317 317 316 316 316 315 314 313 312 312 311 310 309 308 308 307 307 306 305 306 305 302 298 296 296 296 296 297 298 298 299 299 299 299 299 300
321 322 322 322 322 323 322 322 322 322 322 322 321 321 319 319 318 318 318 319 319 319 319 319 319 319 318 318 318 317 316 315 315 314 312 312 311 310 309 309 307 307 306 306 305 305 305 303 299 295 293 293 293 294 295 295 296 295 296 296 296 297 297
315 315 315 316 317 318 318 318 318 319 319 320 320 321 320 319 319 319 320 320 320 320 320 319 319 319 318 318 318 318 317 316 315 313 312 312 311 310 309 308 307 306 305 305 305 304 304 302 298 296 295 294 295 295 296 296 296 296 297 297 297 297 298
311 311 312 313 313 314 314 315 316 316 316 317 318 319 320 320 320 320 320 320 320 320 320 320 320 319 318 318 318 318 317 316 314 313 312 311 311 309 308 307 306 306 305 304 304 304 303 301 299 297 297 298 298 298 298 297 297 297 298 298 298 298 298
309 309 310 311 312 312 313 314 315 317 318 319 319 320 320 321 321 321 321 321 321 321 320 320 320 320 319 319 318 318 318 316 314 313 312 311 311 310 308 307 306 305 305 304 304 303 302 301 299 299 300 300 300 299 298 298 297 298 298 299 299 299 298
307 307 308 308 309 309 310 310 310 312 314 316 318 320 320 321 321 321 321 321 321 321 321 321 321 320 319 319 318 319 318 316 314 313 312 312 311 309 308 307 305 305 304 304 304 303 302 301 300 300 301 301 300 299 298 297 297 297 297 298 298 298 299
307 308 308 308 308 308 308 308 308 308 309 310 313 316 317 318 320 321 321 321 321 321 321 320 320 320 319 319 318 318 317 315 314 313 312 311 309 308 307 306 305 305 304 303 303 302 302 301 301 301 301 301 300 299 298 297 297 296 296 297 298 298 299
308 308 308 308 307 307 307 307 308 308 308 309 310 312 314 316 317 318 318 319 320 320 320 320 320 319 319 318 317 316 315 313 312 310 309 308 307 306 305 305 304 303 303 302 302 302 301 301 301 301 301 300 299 298 298 297 297 296 296 297 297 298 298
308 308 308 308 308 307 307 307 307 307 308 308 308 310 312 314 315 316 317 318 319 320 320 319 319 318 316 315 314 314 312 310 309 308 307 306 306 305 304 303 303 302 302 301 301 301 301 301 301 301 300 299 298 298 297 297 297 296 296 297 297 297 297
308 308 308 308 308 307 307 307 307 307 307 307 308 308 310 312 313 314 316 318 319 319 319 319 318 315 313 312 312 311 309 308 307 306 305 304 304 304 303 303 302 302 301 301 301 301 301 301 301 300 299 298 298 297 297 297 297 297 297 297 296 296 296
308 308 308 308 308 307 307 307 306 306 306 307 307 307 308 311 313 313 314 315 316 317 318 318 316 313 310 310 310 308 306 306 305 304 303 303 302 302 302 302 302 302 302 301 302 302 302 301 300 299 298 297 297 297 297 296 296 296 296 296 295 295 295
307 307 308 308 308 307 307 307 307 307 307 307 308 307 308 310 313 313 313 314 314 315 316 315 313 310 308 308 308 306 305 304 303 302 302 302 302 301 301 301 301 301 301 301 301 301 300 299 298 297 296 296 296 295 295 294 294 293 293 293 292 292 292
306 306 306 307 307 307 308 308 308 308 308 308 308 309 309 311 312 312 313 314 314 314 314 313 309 307 307 306 306 305 304 303 302 301 300 300 300 299 299 298 298 298 299 299 299 298 297 297 296 296 295 294 294 293 293 292 292 291 291 291 291 291 291
306 306 306 306 307 308 308 309 309 308 308 308 309 310 310 310 311 311 312 312 312 312 313 311 307 304 304 304 304 304 303 301 301 300 299 299 299 297 296 296 296 296 296 296 296 296 295 295 295 294 294 293 293 292 292 292 291 291 291 291 291 291 291
306 305 305 306 307 308 308 308 309 308 308 308 310 310 310 309 309 309 309 309 310 309 309 308 306 303 303 303 302 301 301 299 299 299 299 298 297 295 295 295 295 295 296 296 296 295 295 294 294 293 293 293 292 292 292 292 292 291 291 291 291 291 291
306 305 305 305 306 307 307 308 308 308 308 309 310 309 308 307 306 306 305 305 306 306 304 303 302 302 301 301 300 299 299 298 297 297 296 294 293 293 294 295 295 295 296 296 295 294 294 293 293 293 293 292 292 292 292 292 292 292 292 292 291 291 291
305 305 304 304 305 306 307 308 308 308 309 309 309 308 307 306 304 303 303 303 302 301 300 299 299 299 299 299 299 298 297 296 294 294 293 293 293 293 295 295 296 296 296 295 294 293 293 293 293 293 292 292 292 292 292 292 292 292 292 292 292 292 292

ECMWFFLT1_925_thetae_024.txt.gz
Theta_e
322 322 321 321 320 320 320 320 319 319 320 320 321 320 319 321 323 323 324 323 323 324 324 324 325 324 324 324 324 325 327 328 328 328 327 327 327 327 327 327 327 328 328 328 328 327 330 333 330 328 325 323 325 326 326 324 321 323 323 323 324 324 326
322 322 321 320 320 321 321 320 321 320 319 320 320 320 318 318 320 320 320 320 321 322 323 322 323 323 322 322 323 324 325 326 326 327 326 326 326 327 327 327 326 328 328 327 325 324 327 330 331 330 322 316 320 322 324 326 325 324 322 321 323 323 326
322 321 320 320 322 322 321 320 320 319 318 318 318 319 317 315 316 316 315 313 314 317 319 320 321 321 320 320 321 322 323 324 324 322 321 321 322 323 325 326 327 327 325 321 320 320 322 324 326 326 318 314 317 317 318 322 324 325 324 322 322 322 323
321 320 320 321 322 321 319 319 318 317 317 316 316 316 316 315 315 315 313 312 313 314 315 317 318 318 318 318 319 319 320 320 318 317 317 317 318 318 320 323 324 322 319 316 316 316 317 318 321 320 315 314 316 314 314 317 319 323 323 323 324 322 322
321 319 320 322 321 320 317 317 316 316 315 315 314 314 314 315 315 314 314 315 315 315 315 314 315 316 317 317 317 318 318 317 316 316 316 316 316 316 316 316 317 316 315 315 315 314 314 315 317 316 313 314 316 314 314 314 315 317 319 321 324 325 325
320 319 321 322 321 319 317 316 316 315 314 313 313 313 312 313 315 314 314 315 315 314 314 313 313 313 314 314 314 314 317 317 316 314 314 314 314 314 313 312 313 313 313 313 313 313 314 313 313 313 313 314 315 314 314 314 313 314 314 316 319 323 326
319 319 321 321 320 318 317 316 315 311 311 311 310 311 311 311 312 312 314 315 314 313 314 313 312 310 309 309 307 308 312 315 316 314 314 314 313 312 312 312 312 313 313 312 312 312 313 313 313 313 313 313 314 312 313 313 313 313 313 312 313 316 318
318 319 320 321 320 318 318 317 314 310 310 309 309 311 311 309 309 310 313 313 313 313 315 314 313 310 306 306 305 305 306 308 312 314 313 313 313 312 311 311 312 312 311 310 309 311 312 313 312 312 313 315 318 316 313 313 312 312 312 312 312 311 311
319 318 320 320 319 319 318 317 314 313 312 311 310 312 313 310 308 308 309 310 312 314 314 314 314 310 306 306 307 306 306 306 307 312 314 313 313 312 310 309 309 310 309 307 307 309 311 312 312 312 312 313 317 319 317 316 315 312 311 311 311 310 310
319 319 319 320 320 319 319 318 317 315 314 313 312 313 314 312 309 307 307 308 311 313 314 314 313 310 307 306 307 308 308 306 306 309 313 313 313 312 310 307 308 309 309 309 308 309 310 310 310 310 311 311 312 317 318 319 318 313 310 311 310 310 308
320 319 318 319 320 320 320 319 318 317 317 315 313 313 315 314 312 310 308 307 309 311 313 313 312 311 310 309 309 311 311 309 306 306 309 311 312 311 309 307 309 310 311 310 310 309 309 310 309 308 310 310 310 312 314 316 317 313 310 310 309 308 307
319 319 319 320 321 320 320 320 320 319 318 317 315 314 315 315 314 312 310 309 309 309 311 313 313 312 312 312 311 312 312 310 308 306 306 308 311 311 309 307 308 310 312 311 310 309 310 310 310 309 310 310 310 311 311 311 313 312 310 309 309 308 308
319 320 319 319 320 321 320 320 320 320 319 319 318 316 315 315 315 314 312 312 311 310 310 312 314 313 313 314 313 311 311 310 310 309 308 308 310 310 310 309 309 308 309 309 309 309 309 309 310 310 310 310 310 310 309 309 310 310 308 308 309 309 308
320 321 320 319 320 321 321 320 320 320 319 319 319 318 317 317 316 316 315 314 314 313 311 311 313 312 312 314 314 313 311 310 311 312 310 310 310 311 311 311 310 309 307 306 307 309 308 308 308 309 309 308 308 308 308 307 308 308 307 307 308 308 307
319 320 320 320 319 320 321 320 320 320 320 319 320 319 319 319 319 318 318 317 316 316 315 314 314 313 312 312 313 313 313 310 311 313 312 311 310 309 310 310 310 311 309 305 306 308 308 307 308 308 307 307 306 307 307 307 307 307 307 307 307 306 306
320 320 320 320 320 320 321 320 319 319 320 320 320 320 320 320 320 319 319 319 318 317 317 316 316 315 314 313 312 313 313 311 312 313 312 312 311 309 309 309 309 309 309 307 305 306 308 308 308 308 307 307 306 306 306 306 306 306 306 306 306 305 305
321 321 321 321 320 320 321 320 319 319 320 320 321 320 320 320 320 320 320 320 319 319 318 318 317 317 316 315 313 313 313 312 312 312 312 312 312 311 310 309 308 308 308 308 306 305 307 308 308 308 308 306 305 305 305 305 305 305 305 304 304 304 303
320 321 321 321 321 321 322 321 320 320 320 321 321 321 321 320 320 321 320 320 320 319 319 319 318 318 317 317 316 314 314 313 313 313 312 312 312 312 311 310 309 309 308 309 308 306 306 308 308 308 307 304 303 303 303 304 304 304 303 302 302 301 300
320 320 320 320 320 321 322 322 321 321 321 320 320 320 320 321 321 321 321 320 320 320 319 319 319 319 318 318 317 316 315 314 314 314 313 312 311 312 311 310 310 309 308 309 309 307 307 307 307 307 304 301 299 299 299 300 299 299 298 299 299 298 297
320 320 319 319 320 320 320 322 322 322 322 321 321 320 320 320 321 322 321 320 320 320 320 320 319 319 319 318 318 317 316 315 314 315 314 313 311 311 311 310 310 310 309 308 308 307 307 306 306 305 302 298 295 295 295 295 295 295 295 296 296 296 296
321 320 319 319 320 320 320 321 321 321 321 320 319 319 319 319 319 320 320 320 319 319 319 318 319 319 319 318 318 317 317 316 315 315 315 314 312 312 311 310 310 310 308 308 308 307 306 306 305 303 300 296 294 293 293 293 294 295 295 295 296 296 297
321 321 321 321 322 322 321 321 321 321 320 320 319 319 319 319 319 318 319 318 318 317 317 317 318 319 319 318 318 317 317 316 315 315 315 315 313 312 312 311 310 310 309 308 307 307 305 305 305 303 299 296 295 294 294 295 296 296 295 295 296 297 297
322 322 321 320 319 319 319 320 321 320 320 321 321 321 321 321 321 320 320 319 319 319 318 318 319 319 319 318 318 318 317 316 316 315 315 314 313 312 312 311 311 310 309 308 307 306 305 304 303 302 300 298 297 296 297 297 297 296 296 296 296 297 297
319 318 317 314 313 314 314 316 316 316 317 318 318 318 318 319 319 320 320 320 320 320 320 320 320 319 319 319 318 318 318 317 317 316 316 315 313 312 312 311 311 310 309 307 306 305 304 304 303 302 300 299 298 299 299 299 297 296 296 296 296 296 297
313 312 312 311 312 313 313 314 314 314 315 315 316 317 317 318 319 319 320 320 320 321 320 320 320 320 320 320 319 319 318 318 318 317 316 315 314 313 312 311 310 309 308 307 305 305 304 304 303 302 300 299 299 300 300 300 298 297 296 296 296 296 296
309 309 309 310 311 311 311 311 311 311 311 311 313 315 317 318 319 319 320 320 321 321 321 320 320 321 320 320 319 319 318 318 318 317 316 315 313 312 311 310 309 308 307 306 305 305 304 304 303 302 300 300 300 301 301 300 299 297 297 296 296 296 296
308 307 308 308 308 308 308 308 308 308 308 308 309 311 313 315 317 317 318 320 321 321 320 320 320 320 320 320 319 319 318 318 318 317 317 315 313 312 310 309 308 307 306 305 304 304 304 303 302 301 300 300 300 301 301 300 299 297 297 296 296 296 296
307 307 307 307 307 307 307 307 307 307 307 307 308 308 309 310 313 314 316 318 320 320 319 319 319 319 319 319 318 318 318 318 317 316 315 313 311 310 308 307 307 307 306 305 304 304 303 302 301 301 300 300 300 301 300 299 298 297 297 296 296 296 296
307 308 308 307 307 306 306 307 306 306 306 306 306 307 307 308 309 312 314 316 318 319 318 317 317 317 318 318 318 317 316 315 315 314 312 311 309 308 308 308 307 307 305 304 303 302 302 301 301 301 300 301 301 300 300 298 297 297 297 297 297 296 296
307 308 308 308 307 307 306 306 306 306 305 305 305 306 306 307 307 309 312 314 315 317 317 316 316 316 317 317 316 315 314 313 311 311 310 309 308 308 306 306 306 304 303 302 302 301 301 301 301 301 301 300 300 299 298 298 297 297 297 296 296 296 296
307 308 308 308 307 307 307 307 307 306 305 304 305 306 307 307 307 307 310 313 314 314 315 316 316 316 316 316 315 314 312 310 308 307 307 306 305 304 304 303 303 302 302 301 301 301 301 301 300 300 299 299 298 297 297 296 296 296 296 295 295 294 294
306 307 307 307 308 307 307 307 307 306 306 305 305 306 306 306 307 307 309 312 314 314 314 315 315 315 314 313 313 312 310 309 307 305 304 304 302 302 302 302 302 302 302 302 302 301 301 300 299 299 298 297 296 296 295 295 294 294 293 293 293 293 292
306 306 306 306 307 306 307 307 306 307 307 307 307 307 306 306 307 309 309 311 314 315 314 314 313 313 312 311 310 310 309 308 306 304 303 302 302 301 301 301 300 300 300 300 300 299 298 298 297 297 296 295 295 294 293 293 293 292 292 292 292 292 292
306 306 305 305 306 305 305 306 307 308 308 308 308 307 306 306 308 309 310 311 313 313 313 312 311 309 309 308 307 307 306 305 304 303 301 300 300 299 299 298 298 297 297 297 297 296 296 296 296 295 295 294 293 293 293 292 292 292 292 292 292 292 292
306 305 305 305 305 305 305 306 307 308 308 308 308 307 307 307 308 309 309 310 311 311 310 308 307 306 306 306 305 305 304 303 302 302 301 298 297 297 297 296 296 295 295 295 295 295 295 295 295 294 294 293 293 292 292 292 292 292 292 292 292 292 292
305 305 305 305 305 305 305 305 307 308 308 308 307 307 307 308 308 308 308 309 309 308 306 304 304 303 303 303 303 303 303 301 299 299 299 296 295 295 295 295 295 295 295 296 295 295 294 294 293 293 293 293 293 293 292 292 292 292 291 291 291 291 291
305 304 304 304 304 304 304 304 305 307 308 308 307 307 307 308 307 307 307 307 307 305 302 301 301 301 301 301 301 300 300 299 298 297 296 295 294 294 294 295 295 295 295 295 294 293 293 293 293 293 293 293 292 292 292 291 291 291 290 290 290 290 290

ECMWFFLT1_925_thetae_027.txt.gz
Theta_e
316 315 318 320 321 321 321 321 321 320 319 319 320 320 320 323 324 323 323 324 325 325 325 324 324 324 325 325 326 327 328 328 327 328 327 326 326 325 326 327 326 327 326 326 326 326 328 329 327 325 320 319 322 321 323 326 324 323 323 324 324 325 326
316 315 318 321 321 321 320 320 320 319 319 319 319 320 321 322 323 322 322 323 324 324 324 323 322 322 323 324 325 326 327 327 326 327 326 326 326 326 326 326 326 327 325 323 324 323 326 328 329 327 320 314 315 316 320 325 325 325 325 326 325 323 325
318 319 319 319 320 319 319 319 319 319 319 318 317 318 320 320 319 318 318 320 321 322 322 322 321 320 321 322 324 324 324 323 322 323 323 323 324 325 326 326 326 326 322 318 319 320 321 322 324 323 317 314 316 315 316 320 322 324 325 325 325 323 324
320 320 318 318 319 319 320 320 319 318 318 318 317 316 317 316 315 314 312 313 317 319 320 320 319 319 319 319 321 321 319 318 317 318 318 319 321 323 325 325 324 321 317 315 315 316 317 317 320 318 313 313 315 313 313 315 317 321 323 324 324 324 325
320 318 317 319 320 320 320 319 319 317 316 316 316 316 315 315 315 313 310 309 311 313 315 316 316 316 317 318 319 318 316 316 316 317 317 317 318 319 319 319 317 315 314 314 314 314 314 314 315 315 312 313 315 313 312 313 313 315 317 318 319 320 322
319 317 317 318 319 320 319 318 317 316 315 314 315 316 316 316 315 313 309 309 309 310 309 310 311 312 314 316 317 316 315 315 315 315 316 315 315 315 314 313 313 313 313 313 313 313 313 312 312 312 312 313 314 313 313 312 312 312 311 312 312 312 315
319 317 316 317 319 320 318 316 316 315 315 313 313 315 315 315 314 311 309 310 311 310 308 306 307 308 308 310 314 316 316 314 314 314 314 313 313 312 312 312 312 311 310 311 311 312 312 312 311 311 311 312 312 312 312 312 311 311 311 310 309 308 310
318 317 316 316 319 320 317 315 315 314 313 313 312 314 314 314 313 310 309 310 311 310 308 305 305 305 304 304 308 312 314 314 313 313 312 312 311 311 311 311 310 308 309 310 311 311 312 311 311 311 310 312 313 311 310 311 310 310 311 310 308 307 308
319 317 315 316 318 319 316 314 314 314 312 312 312 313 314 313 310 309 309 309 309 310 309 307 305 304 304 304 304 306 309 313 313 313 312 311 310 308 308 309 308 308 309 310 310 310 310 310 310 310 310 311 313 315 316 316 313 310 309 309 308 307 308
319 317 315 315 317 319 317 315 314 313 312 311 312 313 313 312 311 309 309 308 308 309 309 309 307 305 305 305 304 303 306 309 312 312 312 311 309 307 306 307 307 308 309 310 309 309 309 309 309 309 310 309 311 315 319 319 315 311 309 308 308 308 308
320 318 316 314 316 318 318 316 316 313 311 311 312 313 313 312 311 311 310 309 310 310 310 310 308 306 305 305 305 305 305 306 309 311 311 311 310 308 307 308 309 309 309 309 309 309 310 309 309 309 310 310 310 311 313 314 313 312 309 308 308 308 307
320 319 318 315 315 317 317 317 317 315 313 311 311 312 313 312 310 310 311 311 311 312 312 311 310 308 307 306 305 304 305 305 305 307 309 310 309 307 306 308 309 310 310 309 309 309 309 309 309 310 310 310 310 309 308 310 311 310 308 308 307 306 306
320 319 318 317 315 316 317 318 318 317 316 313 312 312 313 313 311 309 309 309 311 312 312 312 311 310 310 309 307 305 305 306 305 305 306 308 309 307 306 307 307 307 308 308 308 309 308 308 309 309 309 308 308 307 307 307 308 308 308 307 306 306 305
320 319 319 318 317 317 318 319 319 319 318 316 315 313 312 313 312 310 309 308 309 309 310 310 311 311 311 311 311 309 307 307 307 307 306 307 308 308 308 308 307 306 305 306 307 308 308 308 308 308 307 307 307 306 306 306 306 306 306 306 305 304 303
320 319 319 318 318 318 319 320 319 319 319 318 317 316 314 314 314 313 311 310 310 309 309 310 311 312 311 312 312 312 311 310 310 310 309 308 308 308 309 308 308 308 307 305 304 306 307 307 308 307 307 306 306 305 305 305 305 305 305 305 304 302 299
320 319 319 319 318 317 319 320 320 320 320 319 318 318 316 316 315 315 315 314 314 313 312 311 312 312 312 311 312 312 312 311 310 311 312 310 309 308 308 308 307 308 308 307 305 304 306 307 307 307 307 306 305 304 303 303 303 303 303 302 301 298 296
320 320 319 319 319 318 319 320 320 319 319 318 318 317 317 317 317 317 317 317 318 317 316 314 313 313 313 312 312 312 312 312 311 311 311 312 311 310 309 308 307 307 307 307 306 305 305 307 307 307 307 305 301 300 300 299 299 299 298 297 297 296 295
320 320 320 320 320 319 319 319 320 320 319 319 318 317 316 317 317 318 318 318 319 318 318 317 316 315 314 314 313 313 312 313 312 312 311 312 312 312 311 310 309 308 307 307 307 306 305 305 306 306 306 303 299 297 296 296 295 295 294 294 295 295 295
320 321 320 320 319 318 319 319 320 320 319 320 319 318 318 317 317 317 319 319 319 319 319 318 317 317 316 316 315 314 314 314 313 313 312 312 312 312 312 311 310 309 309 308 307 307 306 305 305 305 304 301 298 296 295 294 293 293 294 294 295 295 295
320 321 321 321 320 319 319 320 320 320 319 319 319 319 319 318 316 317 318 319 319 319 319 319 318 318 318 317 317 316 316 315 314 314 313 313 313 312 311 311 311 310 310 309 308 307 307 306 305 304 303 301 299 298 296 294 293 294 295 295 295 295 295
320 320 321 321 321 320 319 320 320 320 320 319 320 320 319 319 318 317 318 319 319 319 319 319 319 319 319 318 318 318 317 317 316 315 314 314 313 313 312 311 311 310 310 310 309 307 307 306 305 304 303 301 299 298 296 295 295 295 296 296 296 296 296
320 320 320 320 320 320 320 320 319 320 320 320 320 319 319 319 318 317 318 320 320 320 320 319 319 318 318 318 318 318 318 318 317 316 315 314 314 314 312 312 311 311 310 310 309 308 307 306 305 304 303 301 300 298 297 296 296 296 297 297 297 297 296
319 319 320 319 319 319 318 318 319 319 319 319 319 318 317 317 318 318 319 320 320 320 319 319 319 318 317 317 317 318 318 318 318 317 316 315 315 314 313 312 312 311 310 310 309 308 307 306 304 303 303 302 300 299 298 298 298 297 297 297 297 297 296
319 320 320 320 320 319 319 320 320 320 321 320 320 319 318 319 320 320 320 320 320 320 320 320 320 320 319 319 318 318 318 318 317 317 316 315 315 315 314 313 312 311 310 309 308 307 306 305 304 303 303 302 301 299 299 299 299 298 298 298 297 297 296
320 321 321 320 319 318 318 319 318 318 318 318 318 318 318 319 319 319 319 319 319 320 320 320 320 320 320 319 319 319 318 318 318 317 317 317 316 316 315 314 312 311 310 308 308 306 305 305 304 304 304 302 300 299 299 300 300 299 298 298 297 297 296
315 316 316 315 314 313 313 314 313 312 312 312 312 313 315 316 316 317 318 318 319 320 320 320 320 320 320 320 319 319 319 318 318 318 318 317 317 317 316 313 311 310 309 308 307 306 305 305 304 304 303 302 300 300 300 300 300 300 298 298 297 297 296
309 310 310 309 309 310 310 310 309 308 308 308 308 309 310 312 313 314 315 315 316 319 319 320 319 319 319 319 319 318 318 318 318 318 318 318 317 317 315 313 311 309 308 306 306 307 306 305 304 304 303 302 301 300 300 300 300 300 299 298 297 297 297
307 307 307 308 308 308 307 307 307 307 307 307 307 307 307 308 309 311 312 313 314 315 317 318 318 317 316 316 316 316 317 317 317 317 317 318 317 316 314 312 310 309 308 307 307 307 306 305 304 304 302 301 300 300 300 300 300 300 299 297 297 297 297
307 307 307 307 307 306 306 306 306 306 306 306 305 305 306 307 307 307 309 311 312 313 314 316 316 316 315 314 314 315 315 315 315 315 316 315 315 313 312 310 309 308 307 306 306 306 305 304 303 302 301 301 300 300 300 300 299 299 298 297 297 297 296
307 307 307 307 307 306 306 306 306 306 305 305 304 304 304 305 305 306 307 308 310 311 313 315 316 316 315 315 314 314 314 314 314 313 312 311 310 309 308 308 307 307 306 306 305 304 303 303 302 301 301 301 300 300 300 299 298 297 297 296 296 295 295
306 307 307 307 307 307 307 306 305 305 304 304 304 304 303 303 303 303 304 305 307 309 312 315 316 316 315 314 314 313 313 313 312 312 310 308 307 307 307 306 306 306 306 305 304 303 302 301 301 301 300 300 300 299 298 297 297 296 295 294 294 293 293
306 306 307 307 307 307 307 306 306 306 306 306 306 305 304 303 303 303 303 303 305 307 310 314 316 316 315 314 313 313 313 312 310 309 308 307 306 305 305 305 304 304 304 303 302 301 301 300 300 300 299 299 298 298 297 296 295 295 294 294 293 293 293
305 306 306 307 307 307 307 306 306 306 306 306 306 306 306 305 305 305 304 304 305 308 310 313 315 314 313 312 312 312 312 310 309 307 306 305 304 303 303 302 302 301 302 301 301 301 300 300 299 298 298 297 296 296 295 294 294 293 293 293 292 292 292
305 305 305 305 305 305 305 305 305 306 307 307 307 307 307 306 306 305 305 305 308 309 310 312 313 312 311 310 310 310 310 309 308 306 304 304 303 302 302 301 300 299 299 299 299 298 297 297 296 296 296 295 294 294 293 293 293 292 292 292 292 292 291
305 305 305 305 305 305 305 305 305 306 307 308 308 308 307 307 306 306 306 307 308 309 310 311 310 309 309 308 307 308 308 307 306 305 304 302 301 300 299 299 298 297 296 296 296 296 296 295 295 295 294 294 293 293 293 292 292 292 292 291 291 291 291
305 305 305 305 304 305 304 304 304 304 306 308 308 307 307 307 306 306 306 308 309 309 310 309 307 306 306 305 305 305 305 305 304 304 303 301 299 298 297 297 296 296 296 296 295 295 295 294 294 293 293 293 293 293 292 292 292 291 291 291 290 290 290
305 304 305 305 304 304 304 304 303 303 304 306 307 307 307 306 306 306 307 308 308 308 307 306 305 304 303 304 304 303 304 303 302 302 301 300 298 297 296 295 295 295 295 295 295 294 294 293 293 293 293 293 292 292 292 291 291 290 290 290 290 289 289

ECMWFFLT1_925_thetae_033.txt.gz
Theta_e
321 321 320 320 320 319 319 319 319 319 319 319 319 321 322 322 322 322 324 324 324 323 324 324 324 324 325 326 326 326 327 326 326 327 328 327 327 327 326 326 326 325 326 327 328 328 328 323 319 318 319 319 320 322 323 326 327 327 326 326 326 325 325
320 320 320 320 319 319 319 319 319 319 319 318 318 321 322 322 321 322 323 323 323 323 322 322 322 322 324 326 326 327 327 326 327 327 327 326 326 326 326 326 325 323 323 323 325 327 327 323 320 320 320 318 317 316 318 322 324 325 326 326 326 326 326
320 319 319 320 319 319 319 319 319 319 318 318 319 321 322 321 320 321 322 323 323 322 322 321 320 320 322 323 324 325 325 325 325 325 326 326 325 325 325 326 324 323 323 323 323 324 324 323 319 319 319 318 315 314 314 316 317 320 322 322 323 323 324
319 318 318 320 320 319 319 318 318 318 318 318 320 321 321 319 318 318 320 322 322 322 321 318 317 318 320 319 319 320 320 321 321 323 325 324 324 324 324 325 324 324 324 323 321 321 320 320 319 318 317 316 314 314 313 312 313 314 315 315 315 316 317
319 316 316 318 319 319 318 318 317 317 318 319 319 319 317 315 314 314 317 319 320 320 318 316 316 318 319 316 317 317 316 317 318 320 321 319 318 320 320 321 320 320 319 318 318 320 320 320 319 318 317 315 314 313 313 312 312 311 311 310 310 310 310
319 316 314 316 318 318 318 317 316 316 317 317 316 315 314 313 312 312 315 317 317 317 315 315 316 318 317 316 316 316 315 315 315 316 316 315 314 315 315 315 315 315 314 313 314 318 320 320 319 318 317 316 315 313 313 312 312 311 309 309 309 308 308
318 315 312 313 315 316 317 317 315 315 315 315 315 314 314 314 311 310 312 313 313 313 313 315 317 316 315 316 315 314 314 314 313 313 312 312 312 312 312 311 311 311 311 311 312 314 317 318 319 318 316 316 315 313 313 312 312 311 309 308 307 307 307
318 315 312 311 312 315 317 316 314 313 313 314 315 315 315 314 311 310 311 311 309 309 309 311 314 315 315 315 314 313 313 312 311 311 310 309 309 308 308 309 310 310 309 310 310 311 312 314 317 317 316 315 315 314 313 312 311 310 309 307 305 306 306
319 316 313 311 311 314 316 315 313 311 311 312 313 314 314 314 312 311 311 311 309 307 305 305 309 313 315 314 313 312 312 311 310 309 308 308 306 306 306 307 310 310 309 309 309 309 309 310 313 315 316 315 314 314 314 312 311 310 308 307 305 304 304
319 317 313 311 311 313 314 313 312 310 309 309 310 312 313 314 313 312 311 311 311 310 307 305 305 308 311 313 313 312 311 310 309 307 307 307 306 306 307 307 309 308 308 308 309 308 308 308 310 312 314 315 314 313 313 313 312 311 308 307 305 303 302
319 317 314 311 311 311 309 310 312 311 308 307 308 309 311 312 313 312 312 311 312 312 311 309 307 306 307 309 311 312 311 310 309 307 306 307 307 307 307 307 308 308 308 308 308 309 309 308 308 309 309 312 314 314 314 312 311 311 309 306 304 302 300
320 317 315 313 310 309 306 308 313 313 309 307 307 308 309 310 312 312 312 313 312 313 313 312 310 309 308 308 309 310 311 311 310 308 307 308 308 308 308 308 308 308 309 308 309 309 309 308 308 308 308 308 310 311 314 313 310 310 309 306 302 300 298
319 318 317 314 310 308 307 310 314 314 310 308 308 308 308 309 310 311 311 312 313 313 314 313 312 310 310 309 308 309 309 309 310 309 307 307 308 309 309 308 308 308 308 308 309 308 308 307 307 308 307 306 305 307 311 313 311 309 307 303 301 299 298
319 318 318 314 311 311 309 309 314 315 312 311 310 309 309 309 310 311 311 312 312 313 313 314 313 312 312 312 311 310 308 308 308 308 308 307 307 307 307 306 306 307 308 308 308 308 307 307 307 306 305 305 305 305 308 311 310 309 305 301 300 299 298
319 319 319 317 314 314 310 308 312 315 314 314 314 312 311 310 311 311 313 313 312 311 312 312 313 313 312 313 313 312 311 309 308 307 308 308 309 308 307 307 306 306 306 307 307 308 308 308 307 305 303 303 303 302 304 307 307 307 305 301 300 300 298
319 319 319 319 317 316 313 309 311 315 317 317 317 316 315 314 313 313 314 314 313 312 311 311 312 312 312 312 313 313 313 312 311 309 309 310 309 308 308 308 307 306 306 306 306 307 307 307 307 304 301 301 301 299 300 302 303 304 303 301 301 301 300
319 319 319 319 319 318 316 314 314 316 317 317 318 318 318 317 316 315 315 314 314 314 314 313 313 313 313 313 313 313 313 313 312 312 312 312 310 309 309 309 308 307 307 306 305 306 307 307 305 302 300 299 299 299 298 299 300 302 302 302 301 300 300
319 318 318 319 319 319 318 317 317 318 317 317 318 318 318 319 319 318 317 316 316 316 316 316 317 317 316 316 315 314 314 313 313 312 313 313 312 311 310 310 309 307 308 307 306 306 306 306 305 302 300 299 299 299 299 298 299 300 302 303 302 300 300
318 317 316 317 318 319 319 318 318 317 317 318 318 318 319 319 319 319 319 318 317 317 317 317 317 318 317 317 316 315 315 315 314 314 313 313 313 312 311 311 310 309 308 308 307 307 306 305 305 302 300 300 299 299 299 299 299 300 302 303 302 302 301
318 316 317 318 318 319 319 319 318 317 318 318 319 319 319 319 318 319 319 319 318 317 316 316 317 318 318 317 317 316 316 316 316 315 315 314 313 312 312 312 312 311 309 309 308 308 307 306 305 303 301 300 299 298 299 299 300 301 302 302 303 303 302
318 318 319 319 319 319 319 319 318 317 318 319 318 319 319 318 317 317 318 319 318 318 316 316 317 317 317 318 318 317 317 317 317 317 317 316 314 313 312 312 313 312 311 310 309 309 308 307 306 304 301 300 299 299 299 300 301 302 303 304 303 303 303
318 319 319 319 319 319 319 319 319 318 318 318 318 318 318 317 317 317 318 318 317 316 316 316 317 317 317 318 319 318 318 317 318 317 317 317 316 315 315 314 314 313 313 313 312 310 309 309 307 305 303 301 301 300 300 301 302 303 304 305 305 304 304
319 319 319 319 319 319 319 319 318 318 318 317 318 319 318 318 318 317 317 317 316 315 315 316 318 317 318 319 319 319 318 318 318 317 317 317 317 317 317 316 316 314 314 314 313 310 310 310 308 307 305 303 302 301 301 302 302 303 304 305 305 304 305
319 319 319 319 319 319 319 319 319 318 318 318 318 319 318 318 318 317 317 317 317 316 317 317 318 318 319 320 319 319 319 318 318 318 318 318 318 318 317 316 316 315 314 313 311 310 309 309 308 307 306 303 302 303 302 302 302 302 303 304 304 304 304
318 318 318 319 319 319 319 319 319 319 319 319 319 319 318 318 318 318 318 318 318 318 318 318 319 319 320 320 319 319 319 319 319 319 319 319 318 318 318 317 316 316 315 313 312 310 309 308 307 306 304 303 303 303 303 303 303 302 301 303 304 304 303
318 317 318 318 319 318 318 318 318 319 319 319 319 319 319 319 319 319 318 318 318 318 318 319 319 319 320 320 320 319 318 318 318 318 318 318 318 318 318 317 317 317 316 314 313 311 309 308 306 304 303 303 303 304 304 304 304 302 301 301 302 303 302
316 316 317 319 319 319 318 318 317 317 317 318 318 317 316 316 317 318 318 318 318 318 318 319 319 319 319 319 317 315 314 313 312 313 314 315 316 317 317 317 316 316 316 315 314 311 309 308 305 303 303 304 304 304 304 303 302 301 301 300 301 302 301
309 310 313 317 318 318 316 314 314 314 313 314 314 313 313 314 315 316 316 316 316 317 318 319 319 319 318 316 314 313 312 311 310 310 311 313 314 315 315 316 317 316 316 315 313 310 308 307 305 303 304 305 304 303 302 301 301 300 300 300 300 300 299
306 307 308 310 312 313 312 311 310 310 309 310 310 310 310 310 310 311 311 312 313 314 316 317 318 318 317 315 314 313 313 312 311 310 310 312 313 314 314 315 315 316 315 313 311 309 308 306 304 303 304 304 303 302 301 301 300 299 299 299 299 298 297
306 306 306 307 308 309 310 309 308 307 307 307 307 307 306 306 306 305 305 306 306 308 311 313 315 317 317 316 315 314 313 313 311 310 310 311 312 312 312 312 312 312 311 310 309 308 306 304 303 303 304 303 302 301 300 300 299 299 298 298 297 296 295
306 306 307 306 307 308 308 307 307 306 306 305 304 304 304 304 304 303 303 303 302 302 304 306 309 312 315 316 316 315 314 313 312 310 310 311 311 310 309 309 308 308 308 308 306 304 302 302 303 304 303 302 301 300 300 299 298 297 296 296 295 294 293
305 306 306 306 306 306 306 306 306 305 304 304 303 303 303 304 305 304 304 303 302 302 302 304 305 308 311 314 316 315 314 313 311 310 310 309 309 308 307 307 306 306 306 305 303 302 302 302 303 303 302 301 300 299 298 297 296 295 294 294 294 293 293
305 306 306 306 305 305 305 305 305 305 304 304 305 304 304 305 306 305 305 304 303 303 303 304 306 308 310 313 314 314 313 312 310 310 309 307 307 306 305 305 304 303 303 303 302 302 302 302 301 301 300 299 298 297 296 295 294 293 294 294 294 293 293
304 305 306 306 306 306 305 305 305 305 305 305 305 305 305 305 306 306 305 304 304 303 303 303 305 308 310 312 312 312 312 311 310 309 308 305 304 303 302 302 301 301 301 301 301 301 300 300 299 298 297 296 296 295 294 294 293 293 293 293 293 293 293
302 303 304 305 306 306 306 306 306 305 305 306 306 306 306 306 306 307 306 305 304 304 304 304 305 308 310 311 311 311 310 309 309 309 307 305 303 302 301 301 300 299 299 299 299 299 298 298 297 296 295 294 294 293 293 293 293 293 293 293 293 293 293
301 301 303 304 305 306 306 306 306 306 306 306 306 306 306 306 307 307 306 305 305 305 304 304 306 308 310 311 310 310 309 308 308 307 306 305 303 302 301 300 298 298 298 298 298 297 296 295 295 294 294 293 293 293 293 293 292 293 293 293 293 293 293
300 301 301 302 303 304 305 306 306 306 306 305 305 305 306 307 307 307 306 305 305 305 305 305 306 308 309 309 309 309 308 307 306 305 305 304 302 301 299 298 297 297 297 296 296 295 295 294 294 293 293 293 292 292 292 292 292 292 292 292 292 293 292

ECMWFFLT1_925_thetae_036.txt.gz
Theta_e
327 327 326 325 323 322 322 322 322 322 323 324 324 325 325 325 325 325 326 327 326 326 325 325 325 325 325 326 326 327 328 329 330 330 330 330 330 329 329 329 329 329 330 331 330 329 328 328 326 325 325 325 325 326 327 328 328 328 328 327 327 328 328
326 326 324 323 323 323 322 322 321 321 322 324 325 325 324 324 323 324 325 325 325 324 324 324 324 324 325 326 327 328 328 330 330 330 330 330 330 330 329 329 329 329 329 330 330 329 329 328 326 326 325 325 324 323 324 326 326 326 326 325 325 326 326
327 325 323 323 323 323 322 322 322 321 322 323 324 325 324 322 323 323 323 324 324 323 322 322 322 323 324 325 327 328 328 329 329 329 330 329 329 329 329 329 329 329 329 329 329 329 328 327 326 326 325 325 324 322 322 323 324 323 323 322 322 322 323
327 325 323 323 323 323 322 322 321 321 322 323 323 323 323 322 321 322 323 322 323 322 321 321 321 322 323 324 324 324 325 327 327 328 328 328 328 329 329 329 328 329 328 328 328 328 327 326 325 324 323 322 322 321 319 320 319 319 319 319 319 319 319
326 325 324 324 322 322 322 321 320 321 322 323 322 322 321 321 320 321 322 321 321 320 320 321 322 321 321 321 321 321 322 323 324 325 326 326 327 327 328 327 326 327 326 326 327 326 325 324 324 322 320 319 320 319 318 318 317 316 316 316 316 316 317
326 324 323 323 321 320 320 320 320 320 321 321 321 320 320 319 319 320 320 319 319 319 320 321 321 321 320 319 318 319 319 320 321 321 322 323 323 324 324 323 323 322 322 322 323 325 325 324 323 323 321 320 320 319 318 317 316 315 314 315 315 315 315
327 324 322 321 321 319 319 319 319 319 320 320 320 320 319 317 317 318 317 316 316 317 318 320 319 320 320 318 317 318 318 319 319 318 319 320 320 320 320 318 318 317 317 317 318 320 322 322 322 322 321 320 319 319 317 316 316 315 313 313 313 314 314
326 324 321 321 320 319 318 318 318 318 319 319 319 320 319 317 316 315 315 314 314 314 315 317 318 318 318 317 316 317 317 317 317 316 316 317 317 318 317 316 314 314 314 314 314 315 317 319 320 320 319 319 318 318 317 316 315 314 312 311 311 312 312
325 323 321 320 320 319 318 317 317 317 318 319 319 319 318 317 316 315 314 314 313 313 314 315 316 316 317 316 315 316 315 315 315 315 315 315 315 316 316 315 313 313 314 313 313 313 314 316 318 318 318 317 317 317 317 316 315 313 312 310 308 308 310
325 323 320 321 322 320 319 318 317 317 317 318 318 319 318 317 316 316 316 316 315 314 314 314 314 315 316 315 315 315 314 313 313 314 314 314 315 314 315 315 313 313 314 314 314 314 314 315 316 317 317 317 317 316 316 316 316 314 311 309 307 306 306
325 322 318 319 321 321 321 319 319 319 317 316 317 318 318 317 317 317 317 318 317 315 314 314 314 314 314 315 314 314 314 313 313 313 314 314 315 314 315 315 314 314 315 315 315 315 315 314 313 314 315 315 316 316 315 315 315 315 311 307 306 304 304
326 323 318 318 320 322 322 319 319 321 319 316 316 317 318 317 317 318 318 318 318 317 316 316 315 315 314 314 314 314 314 314 313 313 314 314 314 314 314 315 314 314 315 315 314 315 314 314 312 311 312 313 315 316 315 315 315 314 311 307 304 303 304
326 324 320 319 320 321 319 316 318 321 320 317 317 317 317 317 317 317 317 317 318 317 317 317 317 316 315 314 314 313 314 314 313 313 313 313 314 314 313 314 313 314 314 314 313 313 313 312 312 311 310 311 313 314 314 315 315 312 309 306 304 304 303
326 325 323 321 321 321 318 317 319 321 321 320 318 317 317 317 317 317 317 317 318 318 317 317 318 318 317 316 315 314 314 314 313 312 312 312 313 313 312 312 312 312 313 313 312 312 311 311 311 310 310 310 311 312 312 313 313 310 307 305 305 304 304
327 326 325 323 323 321 318 319 320 320 321 321 319 318 318 317 317 317 316 317 317 317 317 317 318 318 318 318 317 316 316 315 314 314 314 313 312 312 313 312 312 312 313 313 312 312 311 311 310 310 310 309 310 311 311 311 312 310 307 306 305 304 305
326 327 326 324 323 321 319 318 319 321 321 320 319 319 318 318 318 317 317 317 317 317 317 317 317 318 318 318 318 318 318 317 316 316 315 314 313 313 313 314 313 312 313 313 313 312 312 311 311 310 310 310 310 310 310 311 311 310 309 307 306 306 306
326 326 326 325 323 323 321 317 316 320 322 321 321 320 319 318 318 318 319 319 319 319 319 319 319 319 319 319 318 318 318 318 317 317 317 317 315 315 315 315 314 313 313 314 313 312 312 312 311 310 310 310 310 310 310 310 311 311 310 309 308 307 307
325 326 326 326 324 324 323 321 318 319 321 322 322 321 321 320 320 320 320 320 320 321 320 320 320 320 320 320 319 319 319 318 318 318 318 317 317 316 316 316 315 315 314 314 314 313 312 312 311 310 310 310 310 310 310 310 310 311 311 310 309 308 308
324 325 325 325 325 324 324 324 321 320 320 322 322 323 322 322 321 322 321 321 321 321 321 321 321 321 321 321 320 320 320 319 318 318 318 318 316 316 316 316 316 315 315 314 315 314 313 312 310 309 309 309 309 309 309 310 311 311 311 311 310 309 309
324 324 324 324 324 324 324 324 323 322 320 321 322 323 322 322 322 322 322 322 321 322 322 322 321 321 321 321 321 321 320 318 318 318 319 319 318 317 316 316 316 316 314 314 314 314 314 312 311 309 308 308 308 309 309 310 311 311 312 312 311 311 310
324 324 323 323 323 323 322 323 323 322 322 322 321 322 322 323 323 323 323 323 322 323 323 322 321 321 321 321 321 321 321 320 320 320 321 320 320 319 318 317 317 316 315 314 314 314 313 311 310 309 308 307 307 308 309 310 310 311 311 312 311 311 310
324 324 323 323 323 322 322 323 324 323 324 324 323 322 322 322 323 323 323 323 323 323 322 322 322 321 321 322 322 322 322 322 322 322 322 322 321 320 320 319 318 317 316 315 314 314 313 311 310 310 308 306 307 308 308 309 310 311 311 312 312 311 311
324 323 323 323 322 322 322 323 324 325 325 324 323 322 322 322 323 323 322 322 323 323 323 322 319 317 319 321 322 322 322 322 322 322 322 322 321 321 321 320 319 318 316 315 314 313 313 312 311 310 309 308 308 308 308 309 310 311 311 312 312 311 311
323 323 323 322 322 322 322 323 324 324 324 323 323 323 323 323 323 323 323 322 323 323 323 321 317 315 316 318 320 322 323 322 322 322 322 322 322 321 321 320 320 319 317 315 313 313 313 312 311 309 308 307 306 307 308 309 310 310 310 310 310 309 309
322 322 322 322 322 322 321 322 323 323 323 323 323 323 323 322 322 322 322 322 322 322 322 321 317 316 318 318 319 321 323 323 323 323 322 322 322 321 321 321 321 319 317 315 313 312 312 311 310 309 307 305 304 304 306 307 308 308 308 308 308 307 308
322 322 322 322 321 322 322 322 322 323 323 322 321 322 321 320 321 321 320 320 320 321 321 320 318 317 318 319 319 320 322 322 321 321 321 321 320 320 320 320 320 319 318 316 314 313 312 311 309 308 307 305 303 302 303 304 306 307 307 306 306 307 307
319 320 321 322 321 322 322 322 322 322 321 320 319 320 319 318 318 318 318 319 320 320 321 320 319 318 319 320 319 318 319 320 319 318 318 318 318 318 318 318 318 317 318 316 315 315 313 310 309 307 304 303 302 302 303 304 305 305 304 304 305 306 307
313 315 318 320 321 321 321 321 321 320 319 318 317 316 314 314 314 315 317 319 321 321 320 319 319 319 319 319 316 314 316 317 315 315 316 316 316 317 317 317 317 316 317 316 316 315 312 309 307 305 303 303 303 302 303 304 303 302 301 303 304 306 305
310 312 313 315 317 318 319 319 319 318 317 317 317 315 313 313 314 315 316 318 319 319 319 319 319 319 319 317 314 313 315 315 314 314 315 314 315 315 316 317 316 316 316 315 315 314 310 307 306 305 305 305 304 303 303 302 302 301 301 301 302 302 302
309 310 310 311 312 313 315 316 317 316 316 316 317 316 315 316 315 314 315 316 317 317 318 319 319 319 317 315 314 314 315 314 314 315 314 313 314 314 313 314 315 315 315 313 313 311 309 307 307 307 307 306 305 304 303 302 301 301 301 301 300 300 300
309 310 310 309 310 311 314 315 315 315 314 314 315 314 313 313 313 312 313 313 313 314 314 315 318 318 317 316 315 315 314 314 315 314 313 313 312 311 311 311 312 313 312 310 310 309 307 307 308 308 308 307 307 306 304 301 300 300 299 299 299 298 298
309 310 310 310 311 312 313 313 313 312 312 312 312 311 310 309 309 309 308 305 305 309 308 307 310 314 316 316 316 315 313 314 314 314 313 312 311 309 309 308 308 309 308 308 308 307 305 306 309 309 308 308 307 306 303 301 300 300 299 299 299 298 298
308 309 310 310 311 311 311 312 311 311 310 309 309 308 307 308 308 308 306 302 303 307 307 303 302 306 309 313 315 315 313 313 314 314 312 311 310 308 307 306 306 307 306 306 305 303 303 305 308 307 307 306 306 304 301 300 299 298 298 299 299 299 299
307 307 308 309 310 310 310 310 311 311 310 308 308 307 307 308 309 308 307 306 305 305 305 303 302 302 304 308 312 314 313 313 313 313 312 311 310 308 306 304 304 304 304 303 303 302 302 303 304 304 304 303 302 300 299 299 298 296 297 298 299 298 298
306 306 307 307 309 309 309 309 310 310 309 309 310 310 309 309 310 309 309 309 308 305 303 303 303 304 305 308 311 313 313 312 312 312 311 310 309 308 305 303 302 302 302 302 302 301 302 301 301 301 299 298 298 296 296 297 298 297 297 298 298 298 298
305 305 306 306 307 308 309 309 310 309 309 310 311 311 310 309 310 310 309 309 308 307 305 304 305 306 307 310 311 312 312 312 312 311 310 309 308 306 303 302 301 300 300 300 300 300 300 299 298 297 296 296 295 294 295 296 297 297 297 297 297 297 298
303 304 305 306 306 307 307 308 310 309 309 309 309 309 309 309 309 309 309 308 307 306 306 306 306 308 309 311 311 311 311 310 310 310 309 308 307 305 302 301 300 299 299 299 298 298 298 297 296 295 295 294 293 294 295 297 297 297 297 297 297 297 297

ECMWFFLT1_925_thetae_042.txt.gz
Theta_e
326 327 326 324 323 323 323 324 325 326 326 326 326 326 327 327 326 327 326 326 326 325 325 325 326 327 327 328 329 329 329 329 329 328 329 329 329 329 329 329 330 330 330 330 330 329 330 329 328 326 326 327 327 328 328 327 326 326 327 327 327 327 327
327 326 325 323 323 323 323 324 325 326 326 325 325 324 325 325 325 325 326 325 324 324 325 325 326 327 328 328 329 330 329 329 329 328 328 328 329 329 329 328 329 329 329 328 328 328 328 328 328 327 326 327 327 327 327 327 326 326 325 325 325 326 326
325 324 323 323 324 325 325 324 325 326 325 325 325 325 324 324 325 325 325 324 323 323 324 325 326 326 327 327 328 329 329 328 329 329 329 328 328 328 328 328 328 328 327 327 327 328 328 328 328 327 326 327 327 327 326 325 325 325 324 324 324 323 324
323 323 323 324 324 325 325 324 324 325 326 325 324 324 324 324 324 324 323 322 323 323 324 324 324 324 325 326 326 326 327 327 327 328 328 328 328 327 327 328 327 327 327 327 328 327 328 329 328 328 327 325 325 326 325 324 323 323 324 324 322 321 319
323 323 323 324 324 324 324 325 326 326 325 324 322 322 323 323 323 322 322 323 323 323 322 321 321 321 322 323 323 324 324 325 325 325 325 325 325 325 325 325 325 326 326 327 327 325 325 327 327 327 325 322 322 323 322 322 321 321 322 321 319 318 316
324 324 324 324 324 324 324 325 326 326 324 323 322 322 323 323 321 320 321 322 323 322 322 321 319 319 320 321 321 321 321 322 322 322 322 320 320 319 320 320 321 322 323 324 325 325 324 325 325 324 323 321 320 319 319 319 318 319 319 319 318 317 317
324 324 324 324 324 324 324 324 325 325 323 321 321 321 321 321 320 319 320 321 321 321 321 320 318 318 319 319 319 319 318 318 319 319 319 318 317 316 316 316 316 317 318 319 321 323 323 324 323 322 322 322 320 318 317 316 315 316 317 318 318 317 317
324 324 324 325 324 323 323 323 324 324 322 320 319 319 319 318 317 318 318 319 319 319 319 319 318 317 317 317 317 316 316 316 317 317 317 317 316 316 315 315 315 316 316 316 317 320 321 321 321 320 321 323 323 319 315 313 314 314 316 317 317 317 316
325 324 324 324 323 322 323 323 324 324 322 320 318 318 317 316 316 316 316 317 318 318 318 318 317 317 316 316 315 316 316 316 316 316 316 317 317 316 316 316 316 316 316 315 316 317 317 318 319 318 318 320 322 321 318 315 314 313 313 315 315 315 314
324 323 323 322 322 322 322 323 323 323 321 319 318 317 316 315 315 316 316 316 316 317 317 317 317 316 315 315 314 315 316 316 316 316 317 317 317 317 317 316 316 316 316 315 315 315 314 315 316 316 317 317 319 322 321 319 317 312 310 312 312 312 312
323 323 322 321 322 322 322 322 322 322 321 319 317 316 316 316 316 316 316 316 316 316 316 317 316 315 315 315 315 315 316 316 316 317 316 317 317 317 316 316 317 316 316 315 315 315 314 313 313 313 316 318 318 320 319 318 318 313 308 309 309 309 309
324 323 322 322 322 321 321 321 322 322 321 319 318 317 317 317 317 316 316 316 316 316 316 316 315 315 315 316 315 315 315 315 316 316 316 316 315 315 316 316 317 316 315 314 314 314 313 313 314 313 314 316 316 318 317 316 316 313 309 308 307 307 308
324 322 322 322 321 321 321 321 321 322 320 319 318 317 318 318 318 318 317 317 317 317 317 316 316 316 316 316 315 315 315 315 315 315 315 315 315 314 314 315 316 316 315 314 314 313 312 313 313 313 314 314 315 317 316 314 314 312 309 307 307 307 308
324 321 321 322 321 321 321 320 321 321 319 319 318 318 318 318 318 318 318 318 318 318 318 317 317 317 317 316 316 316 315 315 313 314 315 315 314 315 314 315 316 315 315 315 315 314 313 313 313 314 314 314 315 316 315 312 311 311 309 308 308 308 308
325 322 321 322 322 322 322 321 321 320 319 319 318 318 318 318 318 318 318 318 318 319 319 318 318 318 316 316 316 316 316 316 315 315 315 314 314 315 315 315 314 315 315 316 315 315 315 315 314 315 316 315 316 316 315 313 311 310 309 309 308 308 309
326 323 321 321 322 323 322 322 321 319 318 319 318 318 318 318 319 318 318 318 318 318 319 319 319 318 317 317 318 317 317 317 316 316 315 314 314 316 316 315 314 315 315 315 316 316 316 316 316 316 316 316 316 316 315 314 312 311 310 310 310 310 311
327 325 320 321 322 322 321 321 321 321 321 319 318 318 317 317 318 317 318 318 318 318 318 320 320 319 319 318 318 319 319 318 317 317 316 316 316 316 317 317 316 315 316 316 316 316 316 316 316 316 316 316 316 315 315 315 314 313 313 312 312 311 312
328 326 322 320 322 320 318 320 321 323 323 320 318 318 317 317 317 317 318 318 318 319 319 319 320 320 319 320 319 320 319 319 319 318 319 319 319 317 318 318 317 316 316 316 315 316 317 316 315 315 315 315 316 316 315 315 315 315 314 313 313 313 313
329 328 325 323 322 320 319 320 321 321 322 321 319 319 318 317 317 317 318 317 318 319 318 319 320 320 320 321 321 321 320 320 320 320 320 320 320 319 319 319 319 318 317 317 316 316 316 316 314 313 314 315 315 315 315 315 315 315 315 314 314 314 314
327 327 326 325 324 322 320 320 320 319 320 320 319 320 319 318 317 317 317 317 317 318 318 319 319 319 321 322 322 322 321 322 321 321 321 321 320 321 320 320 320 319 318 318 319 318 316 316 314 312 312 314 314 314 315 314 315 315 315 315 315 314 314
326 325 326 326 324 322 321 320 319 318 319 319 319 320 319 319 318 318 318 317 317 318 318 319 319 320 321 322 321 322 322 322 322 322 322 322 321 321 320 320 320 320 319 319 319 319 317 316 315 312 311 313 313 313 314 314 314 315 315 315 315 314 314
326 325 326 325 324 323 323 322 321 320 320 320 321 321 319 319 318 318 318 317 318 320 319 319 319 319 320 321 321 321 321 322 322 321 321 321 321 321 321 320 319 320 320 319 318 318 317 316 315 313 312 312 313 312 312 313 314 314 314 315 315 315 314
326 326 326 325 324 324 324 324 323 323 323 322 322 322 320 320 319 319 319 320 320 320 320 319 319 319 321 322 321 322 322 322 321 320 320 320 320 321 321 321 320 319 320 320 319 318 317 316 315 315 314 314 313 312 312 313 313 313 314 315 314 314 314
326 326 326 325 324 324 325 325 324 324 324 323 322 321 320 320 320 319 320 321 321 321 320 320 319 319 321 322 322 322 322 322 321 320 320 321 319 319 320 320 320 319 320 320 320 318 317 316 315 315 315 314 313 313 313 313 313 314 314 314 314 313 313
325 325 325 325 324 324 325 325 325 324 324 324 322 321 320 320 320 320 319 320 321 321 321 320 319 318 319 321 322 322 321 320 320 320 320 321 320 319 319 319 319 319 319 320 320 319 318 317 315 314 314 313 312 312 313 313 313 313 313 313 312 312 311
324 324 324 324 324 324 325 324 324 325 325 324 323 322 321 321 320 320 319 321 323 322 322 321 320 318 317 318 320 321 320 319 318 319 320 320 319 319 319 318 318 319 320 319 320 319 318 317 316 314 314 313 312 311 311 311 311 312 311 311 311 311 311
321 322 323 323 323 323 323 323 324 324 323 323 323 322 321 321 320 320 320 322 323 324 322 321 320 319 318 317 319 320 320 318 318 318 318 318 317 318 318 318 318 319 319 320 320 319 318 318 317 315 313 313 312 311 311 310 310 310 309 309 309 310 311
315 317 319 320 321 322 323 323 323 323 323 323 323 323 322 322 321 321 322 323 323 324 323 321 320 320 319 319 320 320 319 318 318 317 317 316 317 318 318 317 317 318 319 320 319 318 318 317 317 315 313 312 311 310 309 309 308 308 307 306 308 309 310
313 313 314 315 316 317 320 322 323 323 323 323 322 322 322 322 320 319 321 322 323 323 323 321 321 320 320 320 320 319 318 318 318 316 316 316 316 317 317 316 316 318 319 320 319 318 317 317 316 314 312 310 309 308 307 307 307 306 306 306 307 307 307
313 313 313 313 314 313 314 317 318 320 321 321 321 321 321 321 319 318 320 322 323 323 322 321 321 321 320 319 319 319 319 318 317 316 316 316 317 318 318 317 316 317 319 320 318 316 316 315 314 312 311 309 308 308 308 307 306 305 305 305 305 305 304
311 312 313 313 313 313 313 314 314 316 317 318 318 319 320 320 320 320 320 321 321 321 321 321 320 320 319 318 319 319 318 317 316 316 316 316 317 317 315 314 316 317 317 318 317 315 315 315 314 312 310 309 309 309 309 308 307 305 304 304 304 303 303
309 310 312 312 312 313 313 313 313 313 314 315 316 316 318 318 318 318 319 320 320 320 321 319 318 317 318 318 319 318 317 316 317 316 315 314 314 312 310 311 315 316 315 315 315 314 314 315 313 311 310 310 311 310 310 308 306 305 304 305 305 304 304
308 308 309 310 310 311 311 312 313 313 313 314 314 315 315 316 316 317 317 318 318 319 319 318 315 314 315 318 319 316 314 315 316 314 314 314 312 309 309 311 313 313 311 311 312 313 314 313 312 311 311 311 311 310 309 308 307 306 305 305 304 304 303
306 306 307 308 308 308 309 310 311 311 312 313 313 313 313 314 314 315 315 316 317 317 317 317 314 312 314 317 318 315 312 313 315 315 314 313 312 310 310 309 310 310 308 308 309 312 313 311 310 310 310 310 309 309 307 307 306 305 304 303 303 303 303
304 304 304 305 306 307 307 309 310 310 311 312 312 313 313 312 313 313 313 314 315 315 316 316 314 314 315 317 318 315 312 312 314 314 314 313 312 310 309 309 308 307 306 306 308 310 310 309 308 308 307 306 306 305 304 304 303 303 303 303 302 302 302
304 303 304 304 304 305 306 307 308 308 309 310 311 312 312 312 312 311 311 312 311 312 313 315 314 312 315 318 318 316 314 313 313 313 314 313 312 310 309 308 307 306 306 306 307 308 308 307 307 306 304 303 303 302 302 302 302 302 302 302 301 301 300
303 303 303 303 304 304 305 305 306 307 307 309 310 311 312 312 312 311 311 311 310 310 312 314 312 308 309 312 315 316 316 314 313 312 312 313 311 310 309 308 306 306 306 305 305 306 305 305 305 303 302 302 302 301 301 301 301 301 301 300 300 300 300

ECMWFFLT1_925_thetae_045.txt.gz
Theta_e
324 323 323 323 324 325 324 325 326 325 324 324 325 325 325 326 326 327 326 326 326 326 326 326 327 328 328 329 329 329 329 329 329 329 330 330 330 329 329 329 329 330 329 328 327 327 327 327 325 326 327 328 327 327 327 327 328 327 327 327 327 327 327
325 323 322 323 324 323 323 324 325 325 324 325 325 325 324 324 324 325 325 325 326 326 326 325 326 327 329 329 329 329 329 328 328 329 329 329 328 329 329 329 329 329 329 328 327 326 325 326 326 326 327 327 327 327 327 327 327 326 326 326 326 326 325
325 324 323 323 322 323 324 325 325 325 324 324 324 325 325 323 324 324 323 324 325 325 324 325 326 327 329 329 329 329 329 328 327 328 328 328 328 328 328 328 328 328 327 327 327 326 325 325 326 326 326 326 327 327 327 326 325 324 325 325 325 324 321
324 323 323 323 323 324 325 325 325 325 325 324 324 324 324 324 323 323 323 323 325 325 325 325 325 326 327 327 327 328 328 328 328 328 327 327 327 326 326 326 326 326 326 327 327 326 325 324 325 326 325 326 326 327 326 324 323 322 322 322 322 319 316
323 322 322 323 324 325 323 324 325 325 324 324 323 323 323 323 322 322 322 322 322 323 323 323 324 325 325 325 326 326 327 327 326 326 326 326 326 326 326 326 325 326 325 326 327 327 325 324 325 325 325 326 326 326 325 325 324 321 319 318 318 315 313
322 322 323 323 324 324 323 325 325 324 323 322 322 322 321 321 321 323 323 321 320 320 320 321 322 323 322 323 324 324 324 323 321 320 320 321 321 322 323 323 325 325 325 325 326 326 325 325 325 324 324 324 324 324 325 325 323 320 316 317 317 315 313
322 322 322 323 324 323 324 326 325 324 322 321 322 323 321 320 320 321 322 321 320 319 319 320 320 321 320 320 321 321 321 319 317 316 316 316 316 316 317 318 321 323 324 324 324 325 325 325 325 323 321 322 323 323 323 322 320 318 316 316 317 317 314
322 322 323 323 323 324 325 325 325 323 321 321 322 322 321 320 320 320 320 321 320 318 318 318 318 318 317 316 317 318 318 317 316 315 315 315 315 315 315 315 316 317 319 321 321 322 324 324 323 321 319 320 321 318 316 317 318 317 316 316 316 315 313
322 323 323 323 324 323 324 325 324 322 320 320 320 319 319 319 318 318 319 319 319 317 317 316 316 316 316 316 315 315 316 316 316 316 316 316 315 315 314 314 315 315 315 315 315 316 320 321 320 320 318 319 317 314 314 315 315 315 316 316 316 313 310
323 324 324 324 323 322 323 324 323 321 319 318 318 317 316 316 317 318 318 318 318 317 316 316 315 315 316 316 315 316 316 316 316 316 316 316 315 314 314 313 313 315 315 314 313 313 315 317 318 318 319 318 314 314 316 316 313 314 315 315 314 313 311
322 324 324 323 322 322 323 324 322 320 319 318 317 316 315 315 316 317 317 317 317 316 316 314 314 314 314 315 315 315 315 314 314 315 315 315 315 315 314 313 313 313 314 314 313 313 313 315 316 316 318 316 313 313 314 314 313 312 313 313 312 312 311
323 323 323 323 322 322 323 323 322 321 319 317 316 315 316 315 315 315 316 316 316 316 315 315 314 314 315 315 315 315 315 314 314 315 315 315 316 316 315 314 313 313 313 313 313 313 313 314 315 316 317 315 313 312 310 311 312 310 310 311 310 309 309
323 323 322 322 321 322 322 322 321 321 319 317 316 316 316 315 315 316 316 316 316 316 315 314 315 315 315 315 315 315 315 315 315 315 314 314 314 315 315 315 314 313 313 312 312 313 313 314 314 315 316 315 312 311 309 309 310 308 307 308 309 308 308
323 322 322 321 321 321 321 322 321 320 319 317 317 317 317 316 317 316 316 316 316 315 315 315 316 315 315 314 315 315 315 314 315 315 314 314 314 314 314 314 314 314 313 314 313 313 314 314 315 315 315 315 312 312 312 309 308 307 307 307 307 308 307
322 322 322 321 321 320 321 321 321 320 319 318 317 317 318 318 317 317 316 317 317 316 316 316 317 316 315 315 316 315 314 314 315 314 314 315 315 314 313 313 314 315 315 315 315 315 315 315 315 315 315 315 313 312 312 310 307 307 308 307 307 308 308
323 322 322 321 320 320 321 321 321 320 319 318 317 317 318 318 318 318 318 318 318 318 317 317 317 316 315 316 316 315 314 314 315 314 313 314 314 314 313 312 312 314 315 315 315 316 315 315 315 315 315 314 313 312 312 311 309 308 308 308 308 308 309
323 321 322 321 321 321 320 320 320 319 319 319 318 317 318 318 318 318 318 318 318 318 318 318 318 316 315 316 317 317 316 315 314 315 314 314 315 315 316 314 313 313 314 315 316 316 316 315 315 315 315 315 314 313 312 312 311 309 308 308 309 310 311
323 322 322 321 322 322 321 320 320 318 318 318 318 318 318 317 318 318 317 318 318 318 318 319 319 318 316 317 318 317 317 316 316 318 317 317 316 316 317 317 315 315 314 314 316 316 316 315 315 316 315 315 315 314 313 313 312 311 310 309 310 311 312
323 322 323 322 323 323 322 321 319 319 320 318 317 318 318 317 317 318 317 318 317 318 318 318 319 319 319 319 319 319 319 318 318 319 319 319 318 318 318 318 317 316 316 315 315 316 315 315 315 316 316 315 315 315 314 315 314 313 312 311 311 312 313
323 321 322 322 322 321 320 320 320 321 322 320 317 318 318 316 316 317 317 318 318 318 318 318 318 319 319 319 320 320 320 320 320 321 321 320 320 319 319 319 318 317 317 317 317 316 316 314 314 315 315 315 315 315 314 315 315 314 314 313 313 313 313
325 321 320 321 320 319 319 320 320 321 322 321 318 319 319 317 316 317 317 317 317 318 318 318 319 319 320 321 321 321 321 321 321 321 321 321 321 320 320 320 319 319 318 318 318 317 316 315 314 313 313 314 314 314 314 314 314 314 314 315 314 314 313
326 323 321 321 320 318 318 320 321 320 321 321 319 319 319 318 317 317 317 317 317 318 318 318 319 320 320 321 322 322 321 322 322 322 321 321 321 321 321 320 320 320 319 319 318 318 317 316 315 313 312 312 312 313 314 314 314 314 314 314 314 314 314
325 324 324 323 321 319 318 320 321 321 321 321 321 320 320 319 319 318 318 319 318 318 318 319 319 318 320 321 321 321 321 321 321 321 321 320 320 320 321 320 320 320 320 320 319 318 317 317 316 314 313 312 312 313 313 313 313 313 313 313 313 313 313
324 324 323 323 322 321 321 321 322 322 322 322 322 321 320 320 319 319 319 320 320 319 319 319 319 319 319 319 320 320 321 321 322 321 320 319 319 319 320 320 320 320 320 320 319 318 318 317 316 315 314 314 314 313 313 313 313 313 313 313 312 312 312
323 323 323 322 322 321 322 323 323 322 323 323 322 322 321 320 320 319 319 319 319 320 320 320 320 319 319 319 319 321 322 322 322 322 321 320 319 319 319 319 319 320 320 320 319 319 318 317 317 315 315 314 314 313 313 313 313 313 313 313 312 311 311
322 322 321 321 321 321 323 324 324 323 323 323 323 323 322 321 321 320 320 320 319 319 319 320 319 320 320 319 319 321 321 321 321 321 321 320 319 319 319 319 318 319 319 319 319 319 318 318 317 316 315 314 313 312 312 312 312 312 312 312 312 311 311
321 321 321 321 321 322 323 324 324 324 324 323 323 323 323 322 322 321 320 320 320 319 319 319 319 320 321 320 319 320 320 320 320 320 320 320 318 318 318 318 319 318 319 319 319 319 319 318 317 316 315 314 313 312 311 311 311 310 311 311 311 310 310
316 318 320 320 322 323 323 323 324 323 323 323 323 322 322 322 322 322 321 321 320 320 319 319 320 321 321 320 319 319 319 319 320 320 319 318 317 317 317 318 318 319 318 319 319 319 319 319 318 317 315 314 313 313 311 311 310 310 310 309 309 309 309
311 312 314 315 317 319 321 323 323 323 322 321 321 321 321 321 321 321 321 321 321 322 321 321 322 322 321 320 320 319 319 319 320 319 318 317 317 316 317 317 318 318 318 318 319 319 319 318 317 316 315 314 313 312 311 310 310 309 309 308 307 308 308
308 309 310 311 312 313 315 318 320 322 322 320 320 319 318 318 319 319 320 320 320 321 322 323 323 323 322 321 321 320 320 320 320 318 318 317 317 316 317 317 317 317 318 318 319 319 319 318 317 315 314 313 312 310 309 309 308 307 307 306 306 306 307
306 307 308 308 309 310 311 312 313 316 317 317 318 318 318 317 317 317 319 319 319 320 321 322 323 322 322 321 321 320 320 319 318 318 318 317 316 316 316 316 316 316 316 318 319 319 318 317 316 315 313 312 310 308 308 308 308 307 306 305 305 305 305
304 305 305 305 307 308 309 309 310 311 311 312 314 316 318 319 318 317 317 318 318 319 320 321 321 321 321 321 321 320 320 319 319 319 319 317 316 315 315 315 316 315 315 318 319 318 316 316 315 314 312 311 309 308 309 309 308 307 305 304 304 304 304
303 303 303 304 304 305 305 306 307 308 309 310 311 312 314 316 318 318 317 316 316 317 319 320 320 320 320 319 319 319 319 318 319 319 319 317 316 315 314 315 316 316 317 318 318 316 315 315 314 313 311 310 309 309 310 309 308 306 305 305 304 304 303
302 302 302 303 303 303 304 304 304 305 306 308 309 310 311 312 314 315 316 317 316 316 316 317 317 318 318 317 316 317 318 318 318 318 317 315 315 314 312 313 316 317 317 317 316 315 315 314 313 312 310 310 310 310 310 309 307 306 305 304 303 302 302
301 301 301 301 302 302 302 303 303 304 304 306 306 307 308 309 310 311 313 315 316 316 316 315 314 315 315 315 315 316 318 318 317 316 314 313 313 312 310 310 313 313 313 314 314 313 313 313 312 311 310 309 309 309 308 307 306 305 303 303 302 301 301
300 301 301 301 301 301 301 302 302 303 303 304 305 305 306 307 308 309 311 312 313 315 316 316 314 314 313 313 313 315 317 318 316 315 314 313 312 311 309 309 310 310 309 309 311 311 311 310 310 309 308 307 307 306 305 304 304 303 302 302 301 301 300
300 300 300 300 300 300 301 301 301 302 301 302 303 304 305 306 307 308 309 310 311 313 315 316 316 315 314 313 312 313 315 317 316 314 313 313 313 311 309 308 308 308 307 307 308 309 309 308 307 306 306 305 304 303 302 302 302 302 301 301 300 299 299

ECMWFFLT1_925_thetae_048.txt.gz
Theta_e
325 326 328 328 326 326 327 326 325 325 324 324 324 325 326 326 327 327 327 328 328 327 327 328 328 328 328 329 328 329 329 329 329 329 330 330 329 328 329 329 328 327 327 327 326 327 327 327 327 327 327 327 327 327 327 327 326 326 325 325 325 326 326
325 327 328 327 326 326 327 326 325 324 324 324 325 326 325 325 326 326 326 326 326 326 326 327 327 327 328 328 328 328 328 328 329 329 329 329 328 328 329 329 328 327 327 327 326 325 325 327 328 328 327 327 327 327 326 326 326 325 324 325 325 325 325
325 325 326 326 325 325 325 325 325 324 324 325 326 326 325 323 324 325 325 326 326 325 326 327 327 327 328 328 328 328 328 327 328 328 328 328 328 328 329 329 328 327 326 326 325 325 324 325 327 327 326 326 327 326 326 325 325 325 324 324 323 322 322
323 323 324 324 323 324 325 325 324 324 325 326 325 324 324 323 323 324 325 325 325 324 325 327 328 328 328 328 328 327 327 327 327 327 327 328 328 328 328 328 328 327 327 326 325 325 324 323 325 326 325 325 326 326 325 324 324 324 322 319 317 316 316
323 323 324 322 322 324 325 324 324 324 324 325 325 324 323 323 323 324 325 324 324 324 325 326 327 328 328 328 328 327 327 327 327 327 327 327 327 327 327 327 327 327 327 326 326 325 324 324 325 324 324 325 325 325 324 323 321 319 316 314 312 312 312
323 323 322 322 323 324 325 324 324 323 323 324 324 324 323 322 322 323 324 324 324 323 324 325 325 326 326 326 326 325 325 325 325 325 326 326 326 325 326 326 326 326 327 326 325 325 325 325 324 324 324 325 324 324 324 322 317 314 312 311 311 311 310
323 322 322 323 325 325 325 324 324 324 323 322 323 323 322 322 321 321 322 323 322 322 323 323 323 324 325 325 322 319 318 319 320 321 320 321 321 322 324 326 325 326 326 326 325 325 325 325 324 324 323 323 324 324 324 321 316 314 314 312 311 310 308
323 322 322 324 324 324 324 324 324 324 323 322 322 321 321 322 322 320 319 320 320 320 320 321 321 322 323 323 319 316 316 316 315 316 316 316 317 318 320 322 324 325 326 326 325 324 324 324 324 324 323 322 323 322 320 319 316 315 315 314 312 310 307
322 321 323 324 323 323 324 324 324 322 320 321 321 321 320 320 321 320 318 318 319 319 319 319 318 318 320 320 317 315 316 315 315 315 315 315 315 315 316 316 319 322 324 326 324 323 322 322 323 323 322 322 322 318 316 316 316 315 315 314 313 311 307
321 321 322 324 323 324 325 324 323 321 321 322 322 321 320 319 320 320 318 317 318 318 317 316 315 315 316 317 316 316 316 315 314 314 314 314 314 314 314 313 313 315 319 322 323 323 322 322 322 322 322 322 319 317 317 318 317 315 315 314 313 311 308
321 321 322 323 324 325 325 323 322 321 321 320 320 320 320 318 318 319 318 316 316 316 315 315 315 315 315 315 315 316 316 315 315 314 313 313 312 313 314 313 313 313 315 318 320 321 321 321 322 321 321 321 319 316 317 318 317 315 315 315 312 310 308
322 322 323 323 323 324 324 323 321 320 319 318 317 317 317 317 317 318 318 317 316 315 314 315 316 315 314 313 314 315 315 314 314 313 313 312 311 311 312 313 313 313 314 315 315 316 316 318 319 320 320 320 319 317 316 315 314 314 314 314 311 308 307
323 323 323 323 322 323 323 322 319 319 318 316 314 315 315 316 317 317 317 316 315 314 314 314 314 314 313 312 312 313 313 313 313 313 314 314 313 312 312 313 313 312 313 313 313 314 314 315 317 318 319 319 317 316 316 314 311 311 313 312 309 307 307
324 324 323 322 322 323 322 321 319 318 317 315 314 315 315 316 316 316 316 316 315 313 313 314 314 314 313 313 313 313 313 313 313 313 314 315 314 313 312 312 313 312 312 313 313 313 314 315 315 316 318 317 315 315 314 312 309 308 310 311 308 307 307
323 323 322 322 322 322 322 321 319 318 316 314 315 315 314 314 315 316 316 315 315 314 314 315 315 315 314 314 314 314 315 314 313 313 314 314 314 314 313 313 313 313 313 313 314 314 314 315 315 315 315 315 314 313 312 311 309 307 307 309 309 308 307
323 322 322 321 322 322 321 320 319 318 316 315 316 316 315 314 315 316 316 315 315 314 314 315 315 315 314 315 315 315 315 315 314 313 313 313 313 313 313 313 315 315 314 314 314 314 314 315 315 313 312 312 312 311 310 310 308 307 307 308 308 308 307
322 321 321 321 321 321 321 320 319 318 317 316 316 317 316 316 316 316 315 316 315 315 315 315 315 314 315 315 314 314 314 314 314 314 313 313 313 312 312 312 314 315 315 315 315 315 315 314 314 313 312 311 311 311 309 309 308 307 306 307 307 307 307
321 321 321 320 320 321 321 320 319 319 317 317 316 317 318 317 316 316 316 316 316 316 317 316 315 315 316 316 314 313 314 314 313 313 313 313 314 314 313 313 313 314 315 315 315 315 315 314 314 314 313 312 312 311 309 309 308 307 307 307 307 308 308
321 321 321 320 320 321 321 320 319 319 318 317 316 317 318 318 317 317 317 317 316 317 317 317 317 315 315 316 315 314 315 315 315 315 314 314 316 316 317 316 315 314 314 314 315 315 315 315 315 314 314 313 312 310 309 308 308 308 307 307 308 309 310
322 322 321 321 321 320 320 320 319 318 318 318 317 317 318 318 318 318 318 318 317 317 318 318 318 316 315 316 317 316 316 316 318 318 316 315 316 317 317 318 317 317 316 314 315 315 315 315 315 315 314 314 313 311 311 311 310 308 308 308 309 311 311
323 322 322 322 321 321 320 320 319 318 318 319 317 317 318 318 318 318 318 317 317 318 318 318 319 318 317 317 318 318 318 318 319 319 319 318 317 318 318 318 317 318 317 316 315 316 315 315 315 315 315 314 314 314 313 313 313 311 309 309 309 311 312
322 321 322 322 321 321 321 320 319 319 320 321 318 317 318 318 317 317 317 317 317 317 318 317 318 319 319 319 319 319 319 319 319 319 320 320 319 319 319 319 318 318 318 317 316 316 316 314 314 314 315 314 314 314 314 314 314 313 312 312 312 312 312
322 321 322 321 320 320 321 321 321 320 321 322 320 319 319 318 317 316 317 317 317 317 318 318 318 318 319 319 320 320 321 320 320 320 320 320 320 320 320 320 319 319 319 318 318 318 317 316 315 314 314 314 313 313 313 314 314 314 314 314 313 313 312
323 322 322 322 320 319 320 321 322 322 321 321 321 320 320 318 317 317 317 317 317 317 318 318 318 318 319 319 320 321 321 321 321 321 321 321 321 321 320 320 320 320 319 319 319 319 319 317 316 316 315 313 312 312 312 313 313 314 314 314 313 313 312
323 323 323 323 322 320 320 320 321 322 323 323 322 322 321 320 319 319 318 318 319 319 319 318 318 319 320 320 320 321 321 321 321 321 321 321 321 320 320 319 320 320 320 320 319 319 319 318 317 317 316 314 313 312 312 313 313 313 313 313 313 313 312
322 323 322 322 322 322 321 320 322 323 323 323 323 323 322 322 321 320 320 319 319 319 319 319 319 319 319 319 319 320 320 320 320 320 320 321 321 321 320 319 319 320 320 320 320 320 319 318 317 317 316 315 314 314 313 313 313 313 313 313 313 312 312
321 321 321 320 321 321 321 321 322 322 322 323 323 323 323 323 322 322 321 321 320 320 319 319 320 320 319 319 319 319 319 319 319 319 320 321 321 321 321 320 319 319 320 320 319 319 319 318 317 316 316 315 314 314 313 312 313 312 312 313 313 312 312
313 314 315 316 317 319 320 320 320 320 321 321 321 321 321 321 321 321 321 321 321 321 320 320 319 319 320 320 320 320 319 319 319 319 320 320 320 320 320 320 319 319 319 319 319 319 319 317 316 316 315 315 314 313 312 312 312 311 311 311 312 311 311
305 306 307 308 309 312 314 316 317 318 319 320 320 320 321 321 320 320 319 320 320 320 320 320 320 320 320 321 321 320 320 319 319 319 319 319 319 319 319 319 318 318 318 319 318 318 318 317 316 316 315 314 313 312 311 310 310 310 310 310 310 310 310
303 304 304 305 305 305 307 307 308 310 311 313 314 315 316 318 319 319 319 319 318 318 319 319 320 320 321 322 322 321 320 320 319 319 319 318 318 318 318 318 317 317 317 318 318 318 318 317 315 316 316 313 311 310 310 309 309 309 309 308 308 308 308
302 303 303 303 303 304 304 304 304 305 305 306 307 308 310 312 314 317 318 318 318 318 317 317 318 320 321 322 322 322 321 320 320 319 319 319 319 319 318 317 316 316 316 317 318 318 318 317 316 316 316 313 311 309 309 309 308 308 308 307 307 306 305
301 301 301 302 302 302 303 303 303 303 304 304 305 306 306 308 309 312 314 316 317 318 317 317 316 318 320 322 322 322 321 321 320 320 320 319 319 318 317 316 316 316 316 317 317 318 318 318 317 316 316 313 311 309 309 308 307 307 307 306 305 304 304
300 300 300 301 301 301 301 302 302 303 303 303 303 304 304 305 306 307 308 309 312 314 316 317 317 316 317 319 320 321 321 321 320 320 319 319 319 318 317 316 316 316 316 316 316 317 318 318 318 316 315 313 311 310 308 307 307 307 305 305 304 304 303
300 300 300 300 300 300 301 301 301 302 302 302 302 303 303 303 304 304 305 305 307 308 311 314 316 316 316 316 318 319 320 320 320 320 320 319 319 318 317 316 315 315 315 315 316 317 318 318 317 316 314 313 311 310 309 308 307 306 304 304 304 303 302
299 299 299 299 299 300 300 300 300 301 301 301 301 302 302 302 302 303 303 304 305 306 307 309 312 315 317 317 317 318 318 318 318 319 319 318 318 318 317 315 315 315 315 315 315 317 318 316 315 314 313 312 310 309 309 308 307 305 304 303 302 301 301
298 298 298 298 299 299 299 299 299 300 300 300 300 301 301 301 301 301 302 302 303 305 307 307 308 311 314 316 318 318 318 317 316 317 318 318 318 318 316 315 315 315 315 316 316 317 316 314 313 313 312 310 309 309 309 308 306 304 303 302 301 300 299
298 297 297 298 298 298 298 298 298 298 298 298 298 299 299 299 299 300 300 301 302 303 306 308 309 310 311 314 317 317 317 316 316 316 317 318 317 316 315 314 314 315 315 315 316 315 314 313 312 311 310 309 309 308 307 306 304 303 302 301 300 299 298

ECMWFFLT1_925_thetae_051.txt.gz
Theta_e
330 331 330 329 328 327 326 325 326 327 326 324 324 324 324 326 327 327 329 329 328 328 329 329 329 329 329 329 329 329 329 329 329 329 329 329 329 328 328 328 328 327 326 325 326 326 328 328 328 327 327 326 326 325 325 325 324 323 324 324 324 324 324
329 328 328 327 327 326 325 324 324 325 325 325 325 325 325 326 326 327 327 327 326 326 327 327 327 328 328 328 328 329 329 329 329 328 329 329 328 328 328 327 326 326 325 325 325 325 326 327 328 328 326 326 325 326 326 325 323 323 324 325 325 324 324
326 326 327 327 327 325 324 324 324 324 325 326 325 325 325 325 325 325 325 325 324 324 326 326 326 327 328 328 328 328 328 328 328 328 329 329 328 328 328 327 326 326 325 324 325 325 325 326 327 327 326 326 326 326 325 324 324 324 324 323 324 323 322
325 326 327 327 326 325 324 324 323 324 325 325 324 323 324 324 325 325 324 325 325 324 326 326 327 327 327 327 327 327 327 327 328 328 328 328 328 328 328 328 327 326 326 325 324 325 324 324 325 326 325 325 325 324 323 323 323 321 319 319 319 318 316
326 327 327 326 326 325 325 324 324 324 325 325 324 323 323 323 324 325 325 324 324 324 326 327 327 327 327 327 327 327 327 327 327 327 328 328 328 328 328 328 327 326 326 326 325 325 324 324 324 325 324 324 324 322 321 320 317 314 313 313 312 312 311
326 327 326 326 325 325 324 324 324 324 325 325 324 323 323 323 324 325 324 324 323 323 325 327 327 327 327 327 327 327 326 326 326 327 327 327 327 327 327 327 327 327 326 326 325 324 324 323 323 323 323 323 322 322 320 316 312 310 309 309 310 309 309
326 327 325 324 324 324 324 324 324 324 325 324 323 323 322 322 324 324 323 323 322 322 323 326 327 327 327 326 326 326 326 325 326 326 326 325 325 325 325 325 326 327 326 326 325 324 324 323 323 322 322 322 322 322 320 315 312 312 310 308 309 309 308
324 324 324 323 324 324 324 323 323 323 324 324 324 323 321 321 323 324 323 322 321 321 322 324 325 325 325 324 324 324 323 323 323 322 322 322 324 324 324 324 325 326 326 326 325 325 324 323 322 322 321 321 322 321 318 315 315 315 312 309 308 308 306
323 323 323 323 323 324 324 323 323 323 323 323 323 322 321 321 321 323 323 322 320 320 321 322 323 324 321 320 320 319 318 318 318 317 317 319 321 323 324 324 324 325 326 326 325 324 324 321 320 320 319 320 321 320 317 316 315 314 313 311 308 307 305
323 322 322 323 325 325 324 323 323 323 322 322 322 321 321 321 320 320 321 321 319 319 319 319 321 322 319 317 316 315 315 315 315 315 315 316 318 320 323 324 324 325 325 325 324 324 323 320 319 318 317 317 319 320 320 321 318 314 314 313 310 308 306
322 322 322 324 325 324 324 323 324 322 320 320 321 320 320 320 319 318 319 319 318 318 318 316 318 319 317 315 315 315 314 314 314 314 314 314 314 316 319 322 323 324 324 323 323 323 323 320 319 318 318 316 316 318 320 322 320 315 313 314 311 308 307
322 322 323 324 323 323 324 324 323 321 320 320 321 320 319 319 319 318 317 318 318 317 315 314 315 317 316 315 315 315 314 314 314 313 313 313 313 313 315 317 319 321 322 322 322 322 322 321 319 319 319 319 317 316 316 318 320 317 313 313 311 308 306
322 322 323 323 323 324 324 324 323 321 320 320 320 320 319 318 318 317 316 316 316 315 314 313 314 315 315 315 315 314 314 314 313 312 312 313 312 312 313 314 316 319 321 322 321 321 322 322 321 320 320 319 319 318 316 315 317 316 314 313 311 307 306
321 322 323 323 324 325 324 324 322 320 320 319 318 318 318 317 317 318 317 316 315 314 314 314 314 314 314 315 315 314 314 313 313 312 312 312 313 312 312 313 314 316 317 318 318 318 319 319 321 321 321 321 320 319 317 315 314 313 313 314 311 307 306
322 322 323 323 323 324 324 324 322 320 319 317 315 314 315 316 317 317 317 315 314 314 314 314 315 314 313 314 314 314 314 313 313 314 314 313 313 313 313 313 313 313 314 314 314 314 315 316 317 318 319 320 320 319 318 316 313 312 313 313 311 308 306
323 323 323 322 322 322 323 323 321 319 318 316 313 313 314 315 317 317 316 315 314 313 313 313 314 314 313 313 314 314 314 313 313 314 314 314 313 313 313 313 313 313 313 313 313 313 314 314 315 316 317 319 319 319 317 315 313 311 312 312 310 308 307
323 323 322 321 321 322 323 322 320 319 317 315 313 314 314 314 315 316 315 315 314 313 313 314 314 314 314 314 314 314 314 313 313 313 314 313 313 313 313 314 314 314 314 314 313 313 314 314 315 314 315 317 317 316 316 315 312 311 311 310 309 308 307
323 323 322 320 319 321 322 321 319 318 316 314 314 315 314 313 315 316 315 315 314 313 314 315 314 314 314 314 314 314 314 314 313 313 313 313 313 313 312 312 313 315 315 314 314 314 314 314 314 313 313 314 315 314 315 313 310 309 309 309 309 308 307
322 322 322 320 319 322 322 320 319 318 316 315 315 315 314 313 314 315 316 315 315 314 314 315 315 314 314 315 315 314 314 314 314 313 313 312 314 315 313 312 312 313 314 315 314 315 314 314 314 312 311 312 312 312 312 310 308 307 308 307 308 307 307
321 321 321 321 321 321 321 320 319 318 317 315 315 316 316 315 315 315 315 315 315 315 315 316 316 315 314 315 315 313 313 314 314 313 313 313 314 316 316 315 315 314 314 314 314 314 315 315 314 312 311 311 310 310 310 309 307 307 307 307 307 307 307
320 318 319 321 321 321 320 320 319 318 317 316 315 316 317 317 316 315 315 315 315 315 316 316 316 316 316 315 315 314 313 314 314 314 315 315 314 315 316 317 317 317 317 316 315 315 315 315 315 314 313 312 312 312 311 309 308 307 307 306 307 308 308
318 316 318 321 321 321 320 319 318 318 317 317 316 316 317 317 317 317 317 317 316 316 316 316 316 317 317 315 314 315 315 315 315 316 317 317 316 316 316 317 317 317 318 318 317 316 315 315 315 314 315 314 313 313 311 310 309 308 307 307 307 309 310
317 317 320 321 320 320 319 318 318 318 318 318 317 317 317 317 317 317 317 317 317 317 317 317 317 317 317 316 314 315 317 318 317 317 318 318 318 318 317 318 318 318 318 318 318 318 317 316 315 314 314 314 314 313 313 312 312 311 310 308 308 309 311
320 320 321 321 320 321 320 319 319 319 319 320 320 319 318 317 317 318 318 317 317 317 317 317 317 317 318 317 317 317 318 319 319 318 318 319 319 319 319 319 319 319 319 319 319 319 318 317 316 315 314 314 314 313 313 313 314 313 312 310 309 309 310
321 321 321 320 320 320 320 320 321 321 321 321 321 320 319 318 318 318 317 317 317 317 317 317 317 317 318 318 318 318 318 319 320 320 319 319 319 320 320 320 320 320 320 319 319 319 319 318 318 317 316 315 314 313 312 312 313 313 313 313 312 311 311
320 320 320 320 320 320 320 321 322 322 322 322 322 321 321 320 320 319 319 319 318 318 318 317 317 317 317 318 318 318 319 319 320 320 320 320 320 320 320 321 320 320 320 320 319 319 319 319 319 318 318 317 317 315 313 312 312 312 313 313 313 313 312
315 317 318 318 318 319 319 320 320 320 321 322 322 322 322 321 321 321 321 320 320 320 319 319 318 318 318 318 318 319 319 320 320 321 321 320 320 321 321 321 320 320 320 319 319 319 319 319 319 319 319 318 317 316 315 313 312 312 313 313 313 313 313
307 309 311 312 312 312 313 315 316 317 318 319 319 319 320 320 321 321 320 320 320 320 320 320 319 319 319 319 319 319 319 320 320 320 320 320 320 320 320 320 320 320 320 320 319 319 319 319 319 319 318 317 316 315 315 314 313 313 312 313 313 313 313
303 303 304 305 305 305 306 307 309 309 310 312 313 314 315 315 317 318 318 319 320 320 320 321 320 320 320 319 319 319 319 319 319 319 319 319 319 320 320 321 321 320 320 320 319 319 319 319 319 318 317 316 314 314 314 313 313 312 312 312 312 312 312
302 302 302 303 302 303 303 303 304 304 305 306 307 307 308 308 310 312 314 315 317 318 319 320 320 320 320 320 320 320 320 320 320 319 319 319 319 319 319 320 320 320 319 319 319 319 318 319 318 317 316 315 313 312 312 311 310 310 310 310 310 310 310
300 300 301 301 301 301 302 302 302 303 303 304 304 304 305 305 306 307 308 309 309 311 313 315 317 318 319 319 320 320 320 321 321 321 320 320 319 319 319 319 319 319 318 318 318 318 317 318 317 316 315 313 311 310 310 309 308 308 308 309 309 309 309
299 299 299 300 300 300 301 301 301 301 302 302 302 302 303 304 304 304 305 305 306 307 308 310 311 314 316 318 319 319 321 321 322 322 321 321 321 320 320 319 319 319 319 318 318 317 316 317 317 315 314 312 311 310 309 309 308 308 308 308 308 308 307
299 299 299 299 299 299 299 300 300 300 301 301 301 302 302 302 303 303 303 304 304 305 306 307 308 309 311 314 316 318 320 321 322 321 321 321 321 320 320 320 319 319 319 319 318 317 316 317 317 316 314 312 312 312 310 309 308 308 308 307 307 305 304
298 298 298 298 298 298 298 299 299 299 299 300 300 300 301 301 301 302 302 302 303 303 304 306 307 307 308 310 312 314 317 319 321 321 321 320 320 320 319 319 318 319 319 318 317 316 315 316 317 316 314 313 312 312 311 309 308 308 307 306 304 304 303
298 298 298 298 298 298 298 298 298 298 298 299 299 299 299 300 300 300 301 301 301 302 303 304 305 307 307 308 309 311 313 316 318 319 319 319 320 319 318 317 317 317 318 318 317 316 316 316 316 315 313 312 312 311 311 310 308 306 305 304 303 303 302
297 297 297 297 297 297 297 297 297 297 298 298 298 298 298 298 299 299 300 300 301 301 301 302 304 305 307 308 309 310 311 313 315 316 316 316 317 318 318 317 317 317 318 318 316 315 315 315 316 316 314 312 313 313 310 308 306 305 304 303 302 302 301
296 296 296 296 296 296 296 296 296 296 296 297 297 297 297 297 297 297 298 298 299 300 300 301 301 303 305 307 308 309 310 311 314 315 314 313 313 315 316 316 317 317 317 317 316 315 314 314 316 317 315 314 313 311 309 307 306 304 303 302 301 300 299

ECMWFFLT1_925_thetae_057.txt.gz
Theta_e
333 329 327 327 328 328 328 328 327 326 327 327 327 328 329 329 329 329 330 330 330 330 330 330 330 330 330 330 330 330 329 329 329 330 330 330 330 329 328 328 329 328 328 328 328 327 327 327 326 326 326 324 324 323 323 323 323 323 323 323 323 323 323
330 327 326 327 327 327 327 327 327 327 327 327 326 326 327 328 328 329 329 330 329 330 330 330 329 329 329 330 330 330 329 329 329 330 331 331 331 330 329 329 329 328 327 327 328 328 327 326 326 326 325 323 323 322 322 323 323 323 323 323 323 323 322
329 327 327 327 327 327 327 327 327 327 326 326 326 326 326 327 328 329 329 329 329 329 329 329 329 329 329 329 330 330 329 329 329 329 330 331 331 330 330 329 329 328 328 327 328 328 327 326 326 326 325 324 323 321 321 321 322 322 322 322 322 321 321
330 328 328 328 327 327 327 327 327 326 325 325 325 325 326 327 328 328 327 327 327 327 328 327 328 328 328 328 329 329 329 329 329 329 329 330 330 330 329 329 329 329 329 329 328 328 327 326 326 326 325 324 323 321 319 319 319 319 319 319 318 318 317
331 329 328 327 327 327 327 327 328 326 324 324 325 325 326 326 326 326 324 324 324 325 327 326 326 327 327 327 328 328 328 329 329 329 329 329 329 330 329 328 329 328 328 329 329 328 328 326 325 325 324 323 322 321 317 316 315 315 315 314 314 314 312
332 331 329 327 326 326 326 326 326 325 324 324 324 324 325 325 325 324 323 323 322 324 326 326 326 327 327 327 327 327 327 328 328 328 329 329 329 329 329 328 327 327 328 328 328 329 328 326 325 325 323 322 322 320 316 315 314 312 312 312 312 311 309
332 331 330 327 326 325 324 324 324 324 324 324 323 323 324 324 324 324 323 321 320 323 326 327 326 327 326 327 327 326 327 327 327 327 328 328 328 328 328 328 327 327 327 327 327 328 327 326 325 324 323 322 321 319 316 314 314 313 312 311 310 309 308
330 330 329 327 325 324 323 323 323 323 324 324 323 323 322 323 324 324 323 320 318 321 325 326 326 326 325 326 326 326 326 326 326 326 326 327 327 327 328 328 328 327 326 326 327 327 327 326 325 324 323 322 320 319 317 316 315 314 312 310 309 309 307
329 328 327 326 325 324 323 323 323 323 324 324 322 322 322 323 325 324 322 319 317 319 323 325 324 323 322 323 325 325 325 325 324 325 324 325 325 325 326 327 327 327 326 326 327 327 327 326 325 325 324 322 320 318 318 317 316 314 312 311 309 308 307
328 326 326 325 324 324 324 323 323 323 324 323 322 322 321 323 324 323 321 319 317 318 321 323 323 322 319 319 322 322 321 321 320 321 322 322 323 324 324 325 326 327 326 325 326 326 325 325 324 323 323 322 320 318 318 318 317 315 312 311 309 308 306
326 325 324 324 324 324 324 323 323 323 324 323 323 322 321 322 324 323 321 319 318 318 318 320 322 322 317 316 318 318 317 316 316 318 319 321 323 324 324 324 325 325 325 325 325 324 324 323 322 320 320 320 319 318 318 317 317 317 313 311 310 308 306
325 324 324 324 324 325 324 323 323 323 323 323 323 321 321 322 323 323 321 319 318 318 317 317 320 320 316 315 316 315 314 314 314 315 315 318 322 324 325 325 325 325 324 324 324 324 324 323 320 318 316 314 315 317 318 316 316 316 314 312 311 308 306
325 325 324 324 324 324 323 323 323 323 323 323 322 321 320 320 321 322 321 319 318 317 316 317 319 319 315 314 314 314 314 313 313 313 312 313 317 322 325 324 323 324 323 324 324 323 323 322 319 318 315 314 314 314 317 316 315 316 315 314 312 308 306
325 325 324 324 324 323 323 323 323 322 322 322 322 321 320 320 319 320 320 319 317 315 314 316 318 317 314 314 314 313 313 313 313 313 312 312 313 318 322 323 322 322 322 323 323 322 323 321 318 317 315 316 316 314 315 317 316 316 314 312 312 309 306
325 325 324 324 323 323 323 323 323 322 320 320 321 320 319 319 318 319 319 318 316 314 312 315 317 316 314 314 314 313 313 313 313 312 312 312 312 314 318 321 322 322 322 322 322 322 322 320 319 319 318 318 319 318 316 317 317 316 314 313 312 310 307
324 324 323 323 323 323 324 323 323 322 320 320 320 320 319 318 318 318 318 316 315 314 313 313 315 315 314 314 314 313 313 313 313 312 312 312 312 312 314 317 320 321 322 322 322 322 322 320 320 321 321 320 320 320 318 318 317 316 315 315 313 311 309
323 323 322 322 323 324 324 323 323 322 320 319 319 319 318 317 317 317 317 316 315 314 313 313 314 315 314 314 314 313 313 313 313 313 313 312 313 313 313 314 315 316 318 319 320 320 320 319 319 320 321 320 320 320 319 319 318 317 316 315 313 312 311
322 322 322 322 323 324 323 323 323 322 320 319 319 318 318 317 317 317 316 315 314 313 314 314 314 314 313 313 314 313 313 313 313 313 313 313 312 312 312 312 313 313 313 315 315 315 315 315 315 316 317 317 317 316 317 318 318 318 316 315 313 312 312
322 321 322 323 323 323 323 323 323 322 320 319 317 316 316 316 317 317 316 315 314 313 313 313 314 314 313 312 313 314 314 313 313 313 313 313 313 313 312 312 313 313 313 314 314 313 314 314 314 314 314 314 313 312 313 316 317 317 317 316 314 312 311
322 322 322 323 322 322 323 322 322 321 320 318 316 314 314 315 316 316 316 315 314 313 313 313 314 314 314 313 313 314 314 314 313 313 313 313 313 314 314 313 313 313 314 314 314 314 314 314 314 314 314 313 312 311 312 315 315 315 316 316 314 313 311
321 322 322 322 322 322 321 320 320 319 318 317 315 314 314 314 314 315 315 315 315 314 313 313 314 314 314 314 314 314 314 314 313 313 313 313 313 313 314 315 315 316 316 316 316 316 316 315 315 315 314 314 314 312 311 313 314 314 315 315 314 313 313
321 320 320 320 320 320 319 318 317 317 316 315 314 314 314 314 314 314 314 315 315 315 314 314 314 314 314 314 314 314 315 314 313 313 313 313 313 313 314 314 315 316 316 317 317 317 317 317 317 316 316 315 314 313 312 312 313 314 314 314 313 313 313
320 320 320 319 319 318 318 318 317 318 318 317 315 314 314 314 315 315 315 315 315 315 314 314 314 315 315 315 315 315 315 315 314 313 313 314 314 314 314 315 315 316 316 317 318 318 317 318 318 318 317 317 316 314 313 313 313 313 312 312 312 312 312
319 319 318 318 319 318 317 318 318 318 319 318 316 316 316 315 316 316 315 315 315 315 314 314 315 315 315 315 315 316 316 316 316 315 314 314 315 316 316 316 316 316 317 317 318 318 318 318 318 318 318 317 317 316 315 315 315 314 313 312 313 312 312
318 318 317 317 317 316 316 316 317 317 318 317 316 316 317 316 316 316 316 316 316 316 315 315 315 316 316 315 316 316 316 317 317 316 316 315 315 317 318 318 318 318 318 318 319 319 319 319 319 319 318 318 318 317 316 316 316 315 314 314 315 314 312
318 318 318 317 316 316 316 317 317 318 319 318 317 317 318 318 318 317 317 316 316 316 317 316 317 317 316 316 316 316 316 317 317 317 317 317 317 317 318 318 318 318 318 319 319 319 319 319 319 319 319 318 318 318 317 317 316 316 316 315 316 316 315
318 318 318 318 317 317 317 318 318 319 319 319 319 319 319 319 319 319 318 318 318 317 317 317 317 317 317 317 317 317 317 316 317 317 317 317 317 317 317 317 318 318 319 319 319 319 319 319 319 319 319 319 318 318 318 318 317 316 316 316 316 317 317
316 316 316 317 317 316 316 316 317 317 318 318 318 318 319 319 319 319 319 319 319 318 318 318 319 319 318 318 318 318 317 317 317 317 317 317 318 318 318 318 318 318 319 319 319 319 319 319 319 319 319 319 319 318 318 318 318 318 317 317 317 317 317
311 312 312 313 312 310 311 311 311 312 313 314 313 313 314 314 314 314 314 315 315 314 314 315 317 318 319 319 319 319 319 318 318 318 318 318 318 318 319 319 319 319 319 319 319 319 319 319 319 319 319 319 319 319 319 319 318 318 318 318 318 318 317
306 307 308 308 306 305 305 305 305 306 308 308 308 308 307 307 307 307 308 308 308 308 308 309 311 314 316 317 318 319 319 319 319 319 319 319 319 319 319 319 319 319 319 319 319 319 319 319 318 319 319 318 318 318 318 318 318 318 318 318 318 317 317
302 303 303 303 303 303 303 303 303 303 304 305 305 304 304 304 304 304 305 306 305 304 304 304 306 308 309 311 312 314 315 316 317 318 318 318 318 318 319 319 319 320 320 320 320 320 319 319 318 318 318 318 318 317 317 318 317 316 316 315 315 315 315
300 300 300 299 300 300 300 300 301 301 302 302 302 302 303 303 303 303 304 305 305 305 304 302 303 304 305 307 308 309 310 311 312 313 314 315 316 316 317 317 318 319 320 320 320 320 320 319 318 318 318 318 318 318 317 317 317 315 314 312 312 312 312
298 298 298 298 298 298 298 298 299 299 299 299 300 300 300 300 301 301 301 301 302 303 302 301 301 302 302 303 304 305 306 307 308 309 310 311 313 314 314 315 316 317 318 318 319 319 319 319 318 318 318 317 317 317 317 317 316 314 311 310 310 310 309
297 297 297 297 297 297 297 298 298 298 298 298 298 298 298 298 298 298 298 299 299 299 299 299 300 300 300 301 301 302 303 304 305 307 307 308 309 310 311 313 314 315 315 316 317 317 317 318 317 317 317 316 316 317 316 316 316 313 310 309 309 308 307
295 295 295 296 296 296 296 296 296 297 297 297 297 297 297 297 297 297 297 297 297 297 297 298 298 299 299 299 300 300 300 301 302 303 304 306 307 308 309 310 311 312 312 313 314 315 316 316 315 315 316 316 316 316 315 315 314 312 310 308 308 307 306
294 295 295 295 295 295 295 295 295 295 295 296 296 296 296 296 296 296 296 296 296 296 296 297 297 297 297 298 298 298 299 299 299 300 301 302 304 305 307 308 308 309 310 311 311 312 312 312 312 313 314 315 315 315 314 313 312 311 309 308 307 306 305
294 294 294 294 295 295 294 295 295 295 295 295 296 296 296 296 296 296 295 295 295 295 295 296 296 296 296 296 297 297 297 298 298 298 299 300 301 303 305 306 307 308 309 309 309 309 310 310 311 312 313 313 314 314 313 311 310 309 308 307 306 305 305

ECMWFFLT1_925_thetae_060.txt.gz
Theta_e
333 335 334 332 331 330 331 330 330 330 331 331 331 331 331 331 331 330 331 331 331 331 332 333 334 333 333 332 332 332 332 332 332 331 331 331 331 331 331 331 331 331 331 330 330 330 330 329 327 328 327 326 325 325 325 325 324 325 325 325 325 325 325
335 335 333 331 330 330 330 330 330 329 330 330 331 331 330 330 330 330 330 331 331 330 330 331 332 333 333 333 333 332 332 332 331 332 331 331 330 331 331 330 330 331 330 331 330 330 329 329 328 328 327 325 325 324 324 324 323 323 323 324 324 325 324
335 332 331 331 331 330 330 330 329 328 329 330 330 330 330 329 330 330 330 330 331 331 330 330 331 333 333 333 333 333 333 332 331 332 332 330 329 331 331 329 330 330 330 330 331 330 330 329 328 328 328 327 325 324 323 323 323 323 323 323 323 324 323
333 331 330 331 330 329 329 329 329 328 328 329 329 330 330 330 329 330 329 329 330 330 330 329 330 332 333 333 333 333 332 331 331 332 332 331 329 330 331 329 329 330 329 329 330 329 329 330 329 328 328 327 325 324 323 323 323 322 322 322 323 322 321
332 331 331 330 329 329 329 328 328 328 328 328 328 329 330 330 329 329 328 328 328 328 328 328 329 330 332 333 333 332 332 331 331 332 332 332 330 329 330 330 329 330 330 329 328 328 329 329 328 328 327 326 325 324 322 322 321 321 321 321 321 319 317
332 331 331 330 329 329 329 328 328 327 327 327 328 329 329 330 329 328 327 327 327 327 327 327 327 328 330 330 332 332 331 331 331 331 331 332 331 330 330 330 330 329 329 329 328 328 328 328 328 328 326 325 324 323 321 321 319 319 319 319 318 316 315
332 331 330 330 329 329 329 328 328 327 326 327 327 328 329 329 328 328 327 327 327 327 327 328 328 328 329 328 329 331 331 331 332 331 331 331 331 331 331 330 330 330 329 329 329 328 328 328 328 327 326 325 323 322 321 319 319 318 317 316 316 315 313
332 331 330 330 330 330 329 328 328 327 326 326 327 328 329 328 328 328 327 327 327 327 327 328 328 328 329 327 327 330 331 331 332 331 331 331 331 331 331 330 330 329 330 330 329 328 327 327 327 326 325 323 322 321 320 319 319 318 317 315 314 313 312
332 331 330 330 330 329 328 328 327 326 327 327 327 328 328 328 328 328 327 325 325 326 327 327 326 327 327 327 326 329 329 329 330 331 330 331 331 331 331 331 330 330 330 330 329 328 328 327 326 325 323 321 321 321 320 320 319 318 317 315 314 312 310
332 332 331 330 330 329 328 327 327 327 327 326 327 328 328 327 327 327 326 324 323 325 326 325 325 325 326 326 326 326 326 326 327 327 328 330 330 330 331 331 331 330 330 330 329 329 328 327 325 323 322 320 320 320 319 319 319 318 316 315 314 311 310
332 333 330 330 329 329 328 327 327 328 327 326 326 327 328 327 327 326 325 323 322 323 325 325 324 324 324 325 324 324 324 324 324 325 326 328 329 330 331 331 331 330 330 331 330 329 329 327 323 321 320 319 318 318 318 318 317 317 316 315 313 311 310
332 332 330 329 329 329 328 327 328 328 327 326 326 326 327 327 326 326 324 323 322 322 324 325 324 323 323 323 322 321 322 322 322 323 325 326 329 330 330 331 331 330 330 331 330 329 328 326 321 319 320 319 318 318 317 317 316 316 316 314 312 310 309
332 331 330 329 328 328 327 327 328 328 327 326 326 326 326 326 326 325 324 322 321 320 322 324 323 322 322 321 320 320 320 321 320 321 322 324 327 329 329 330 330 330 330 329 328 328 327 324 321 319 319 319 319 318 317 317 317 316 316 314 312 310 309
331 331 329 328 328 328 327 327 328 327 327 326 326 326 326 325 325 325 323 322 320 319 321 323 322 321 321 321 320 319 319 319 319 319 320 322 324 326 326 326 327 329 329 327 326 325 324 323 321 319 319 319 319 319 318 317 317 317 317 316 312 310 309
330 330 329 328 328 328 327 327 327 327 326 326 325 325 325 324 324 324 323 321 318 318 320 322 322 320 320 320 319 319 318 318 319 319 319 321 323 325 324 324 325 327 327 325 323 322 321 321 320 319 319 319 319 319 319 318 318 318 318 317 313 310 310
330 329 328 329 328 327 327 326 326 326 325 325 324 324 323 323 323 323 321 320 318 317 319 321 322 320 319 319 318 318 317 317 318 319 319 319 320 323 323 323 324 325 325 324 322 320 320 320 319 319 319 319 319 319 319 319 319 318 318 316 314 312 311
330 328 329 328 327 326 327 326 326 325 324 323 323 323 322 321 322 322 320 319 317 316 317 320 321 320 319 318 317 317 317 317 318 319 318 319 319 320 321 322 323 324 324 323 322 320 320 320 319 319 319 319 319 320 320 320 319 319 319 317 315 313 312
330 329 329 328 327 327 326 326 326 325 323 322 322 322 321 320 321 321 319 318 317 317 316 317 319 320 319 319 318 317 317 317 318 318 318 318 318 319 320 320 320 321 321 321 320 319 319 319 318 318 318 318 318 319 320 321 320 319 319 319 317 314 313
330 330 329 328 327 327 326 326 326 325 323 322 321 320 320 319 319 319 318 317 317 316 316 316 317 318 319 319 318 318 318 318 318 317 317 317 318 319 319 319 319 320 320 319 319 319 318 318 318 317 318 318 317 318 319 319 320 319 319 319 318 316 315
328 330 329 328 327 326 326 325 325 324 323 322 320 319 319 319 318 318 318 317 316 316 317 317 317 318 318 318 318 318 319 318 318 318 317 317 318 318 318 318 318 318 319 319 319 319 319 319 318 318 318 318 317 318 318 318 318 319 319 319 318 317 316
326 327 328 327 326 326 325 325 325 324 323 321 319 318 318 318 319 319 318 317 317 317 317 317 318 318 318 318 318 319 318 318 318 318 318 318 318 319 318 319 318 318 319 319 319 320 320 319 319 319 318 318 318 318 318 318 318 318 318 318 318 317 317
323 323 325 326 325 325 324 324 323 323 322 321 320 319 318 317 317 318 319 319 318 317 318 318 318 318 318 318 318 318 319 318 318 317 318 318 318 318 319 319 320 320 319 319 318 319 319 318 319 320 319 319 319 318 318 318 317 317 317 317 317 318 317
322 322 324 325 324 324 324 323 323 322 321 320 320 320 320 319 318 318 319 319 319 320 320 319 317 317 318 318 319 319 318 318 318 317 317 318 318 318 319 319 320 318 317 317 317 318 318 317 318 318 318 318 319 318 318 318 318 317 317 317 317 317 317
322 322 322 322 322 322 322 322 322 322 320 318 318 318 318 319 319 318 319 319 321 322 320 316 315 315 316 316 318 320 319 318 318 318 318 318 319 319 319 319 319 318 317 317 318 318 318 318 318 318 318 318 318 318 318 318 318 318 317 317 317 317 317
320 320 319 319 319 319 318 319 320 320 319 317 317 316 316 317 317 317 319 321 321 319 316 314 314 315 315 314 316 318 320 320 319 319 319 319 320 320 320 321 321 321 320 319 319 320 319 319 319 319 319 319 319 319 318 318 318 318 318 318 318 318 318
320 319 318 317 317 316 316 317 317 318 317 316 316 317 317 317 317 318 319 319 318 317 316 315 316 315 315 316 315 316 319 321 321 320 320 321 320 320 321 322 323 324 323 321 320 321 322 321 320 319 319 319 319 319 319 319 319 319 318 318 319 319 318
318 318 317 316 316 316 315 316 316 317 317 317 316 316 317 318 318 319 319 317 316 317 317 317 317 316 316 317 316 316 318 321 322 321 321 322 322 322 323 323 323 323 324 323 322 322 323 323 322 321 320 320 320 320 320 320 319 319 319 318 319 319 319
315 315 315 315 316 315 315 316 317 318 318 318 317 317 318 318 318 318 317 317 317 317 316 317 318 318 318 318 317 318 319 321 322 322 323 323 323 323 323 323 323 322 323 324 324 323 323 323 324 323 323 322 322 321 321 320 320 319 319 318 318 319 319
312 312 313 314 314 314 313 314 315 316 317 316 315 315 316 315 316 317 317 316 316 314 313 314 315 317 318 319 319 320 321 322 323 324 325 324 324 324 323 324 324 323 323 324 324 322 321 321 323 324 324 323 323 322 322 322 320 320 319 319 319 319 319
308 308 310 311 311 311 310 310 310 311 311 310 309 310 310 310 310 312 313 311 310 309 309 310 311 313 315 316 318 319 320 322 324 324 324 325 324 324 324 323 322 322 323 323 323 322 320 319 320 322 323 323 323 323 323 322 321 319 319 318 318 318 318
305 305 306 306 306 307 307 307 307 308 308 307 306 305 306 307 307 308 308 307 307 307 306 306 307 309 310 311 313 314 316 319 321 322 322 323 322 322 322 321 318 319 321 322 322 321 320 319 320 322 323 323 323 322 322 321 320 319 318 318 318 318 318
302 302 302 302 302 303 303 304 305 306 306 305 305 305 306 306 305 306 307 306 306 307 307 306 306 306 306 307 307 309 312 315 316 317 317 317 318 319 320 320 318 318 319 320 321 321 320 320 320 321 321 321 321 320 320 319 319 319 318 318 318 317 317
300 299 299 299 299 300 300 300 301 302 302 303 303 303 303 303 302 302 302 302 303 305 306 305 305 304 304 303 303 304 307 309 310 311 312 312 313 315 317 318 318 317 316 317 318 318 318 318 318 319 319 320 320 319 318 318 318 318 318 317 316 315 314
300 300 300 299 298 298 298 298 299 300 301 301 301 301 301 302 301 301 300 300 301 301 301 300 301 301 301 301 301 300 302 303 303 304 306 308 310 312 315 316 316 316 315 315 315 315 315 315 315 316 317 318 318 318 317 317 318 317 316 316 315 314 312
299 299 300 300 300 299 298 298 299 299 299 299 299 299 300 301 302 302 300 299 299 299 298 298 299 299 299 299 299 299 299 300 299 300 304 307 309 310 311 312 313 312 310 309 310 310 311 311 311 312 313 315 316 316 316 316 316 316 315 315 314 313 312
298 298 299 299 300 300 300 300 300 300 300 300 300 301 301 301 302 302 301 300 299 299 298 298 298 297 297 298 298 298 298 298 298 299 301 303 305 307 308 309 309 307 305 305 306 306 307 308 309 310 311 312 312 313 314 314 314 314 314 314 313 312 311
299 299 299 299 300 301 301 301 301 301 301 302 302 302 302 302 302 302 301 301 300 299 299 299 297 296 295 295 296 296 296 296 297 297 298 300 303 304 304 304 304 303 302 303 304 306 306 307 307 308 309 309 310 311 312 312 313 313 314 313 313 312 311

ECMWFFLT1_925_thetae_063.txt.gz
Theta_e
333 333 333 332 331 331 333 333 332 331 331 331 332 332 332 332 333 333 332 333 333 332 333 335 335 334 333 333 333 334 333 333 333 331 331 332 332 332 333 332 331 332 330 330 331 330 330 329 329 329 329 328 327 327 327 327 327 327 327 326 327 327 327
333 332 332 331 331 331 332 332 330 329 331 332 332 331 331 331 332 332 332 332 332 331 331 333 334 334 333 333 333 334 334 334 333 331 331 332 332 332 332 331 331 331 330 330 329 329 330 329 329 329 328 328 327 326 326 326 326 326 326 326 326 326 326
331 332 331 330 330 330 332 332 330 329 331 332 331 331 331 330 331 331 331 331 332 331 330 331 333 334 334 334 334 335 334 333 333 333 333 333 332 331 331 331 332 330 330 330 328 329 331 330 329 329 328 328 327 326 326 325 325 325 325 325 325 325 325
331 330 330 330 330 330 331 331 330 329 330 331 331 331 330 330 330 330 330 330 331 331 330 330 333 334 334 334 334 335 334 334 333 333 333 332 332 332 331 332 332 330 330 329 328 329 331 330 329 329 328 327 326 326 325 324 324 324 324 325 324 323 322
330 329 329 330 330 330 330 330 329 329 329 329 330 331 330 330 329 330 330 330 331 331 330 330 331 333 334 334 334 333 334 334 333 334 333 331 332 333 332 331 331 331 330 329 329 329 330 329 329 328 328 327 326 325 325 324 323 323 323 323 322 321 319
330 329 328 330 330 330 330 329 329 328 329 329 329 330 330 330 329 329 329 329 330 330 330 329 329 331 333 333 334 333 332 333 333 333 332 330 331 333 331 331 330 330 330 329 329 330 328 329 329 328 327 326 325 324 323 323 322 321 321 320 320 319 318
329 329 329 329 329 330 330 329 329 329 329 329 329 329 329 329 329 329 329 329 329 330 330 329 328 329 331 331 332 333 332 333 333 333 331 330 331 332 331 331 330 328 329 328 328 329 328 329 329 327 326 325 324 323 322 321 320 320 320 319 318 317 316
328 328 329 329 328 330 329 330 330 329 329 329 328 329 329 329 329 329 329 329 329 329 330 330 329 329 329 328 331 333 333 333 333 333 332 332 332 330 329 330 329 328 329 329 328 328 328 329 329 327 325 324 323 322 321 320 320 319 318 318 317 316 314
328 328 330 329 329 330 329 330 329 328 328 328 328 329 329 329 329 329 328 328 328 329 330 329 328 329 329 327 330 332 331 332 333 333 333 333 333 331 329 330 329 328 329 329 328 328 327 328 328 326 324 323 322 322 321 321 320 319 317 317 316 315 314
329 330 330 329 330 330 329 329 329 328 328 328 328 329 329 329 329 328 327 327 327 328 328 328 327 328 328 327 328 329 328 329 331 332 332 333 333 332 331 330 329 328 328 328 327 328 327 327 326 324 323 322 322 321 321 320 319 318 317 316 315 315 314
330 331 330 329 330 330 329 329 328 329 329 328 329 329 329 329 328 327 326 325 325 327 327 327 326 326 326 327 327 327 327 328 328 329 330 332 333 332 332 331 329 328 329 328 328 328 327 325 324 323 321 321 320 320 320 320 319 318 317 316 314 314 314
330 331 330 329 330 329 329 329 328 329 329 328 328 328 328 328 326 326 325 324 324 326 327 326 325 325 325 326 326 325 326 326 326 327 328 330 332 332 332 331 329 329 330 329 329 328 326 323 322 321 320 320 319 319 319 319 318 317 316 315 313 313 312
330 330 329 328 329 329 329 329 328 329 329 328 327 327 328 327 326 326 325 322 322 324 326 326 324 325 324 324 324 324 324 324 325 326 326 327 330 331 331 331 330 330 330 329 328 326 324 322 321 320 320 320 319 318 317 317 317 316 315 314 313 312 312
331 330 328 328 328 328 328 328 328 328 329 328 327 327 327 327 326 326 324 322 321 323 325 325 324 324 323 323 322 322 322 322 323 324 325 325 327 328 330 331 330 329 329 326 325 324 323 322 321 320 320 319 319 319 318 317 317 317 316 314 312 312 312
332 330 328 328 328 328 327 328 328 328 328 328 327 327 327 326 326 325 323 321 320 322 325 324 323 323 323 322 322 322 321 321 322 323 324 324 325 325 326 328 329 327 325 324 323 323 322 321 320 320 320 319 319 319 318 318 317 317 317 316 313 312 312
333 330 328 328 328 328 328 328 329 328 328 328 327 327 327 326 326 325 323 321 320 322 324 323 323 323 322 322 321 320 321 321 322 323 324 324 324 324 324 326 326 325 324 323 322 321 321 320 320 319 319 319 320 319 319 319 318 318 318 317 315 313 312
332 330 328 328 328 328 328 328 328 327 327 327 326 326 326 325 325 324 322 320 318 321 323 323 322 322 321 321 320 320 320 321 322 322 322 323 324 324 324 324 325 324 323 322 322 321 321 320 320 319 319 320 320 320 320 320 319 319 319 319 316 314 313
331 329 328 328 328 328 328 327 327 326 325 325 326 325 324 323 324 323 322 319 317 320 323 322 321 321 320 319 319 318 318 320 321 321 321 322 322 323 323 323 323 323 323 322 322 321 320 320 320 319 319 319 319 320 321 320 320 319 320 320 318 316 315
329 329 328 328 328 328 328 327 326 326 324 324 325 324 323 322 322 322 320 318 317 318 320 321 321 320 319 319 318 317 318 320 320 321 320 320 321 322 322 322 322 322 322 322 321 321 320 320 319 319 320 319 319 319 320 320 320 320 320 320 319 318 316
330 329 328 328 328 328 328 327 326 325 323 323 323 322 322 322 322 321 319 318 317 317 318 319 320 320 319 319 319 319 319 320 320 320 319 319 320 320 320 321 321 321 321 321 321 320 320 320 319 319 320 319 319 319 319 319 319 320 320 320 320 319 318
333 330 328 327 327 327 327 326 326 325 324 322 321 320 321 320 320 320 318 318 318 317 317 318 319 319 318 319 320 320 320 320 320 319 319 319 320 320 320 320 320 321 321 321 322 321 321 320 320 320 320 319 319 319 319 319 319 320 320 320 320 320 319
332 331 328 327 326 326 326 326 326 325 323 321 319 319 319 319 320 320 319 318 318 318 320 319 319 319 319 319 320 320 320 320 319 319 320 320 320 320 320 320 320 321 321 320 320 320 320 321 321 322 321 320 320 320 320 320 320 319 319 319 319 319 319
330 330 329 327 326 326 326 326 326 325 323 321 320 320 319 319 320 320 320 320 320 321 322 321 319 319 320 320 320 320 320 320 320 319 319 319 320 320 321 321 322 321 319 318 318 318 318 318 319 321 321 321 321 321 321 320 320 319 319 319 318 318 318
328 328 328 327 326 326 325 325 324 323 322 321 321 321 320 320 320 321 321 322 322 322 322 320 319 319 319 320 321 321 320 319 320 320 319 320 320 320 320 321 321 319 317 317 317 317 317 317 317 318 319 319 320 320 320 320 321 320 319 319 319 319 319
326 327 327 326 326 326 325 325 324 324 324 323 323 321 322 323 323 323 323 323 322 321 319 318 317 317 317 318 320 321 321 320 319 319 319 319 320 320 320 320 321 320 319 319 319 319 319 318 318 318 319 319 319 319 319 319 320 320 320 320 320 319 319
324 324 324 323 323 323 324 323 323 322 321 322 321 321 322 322 321 320 320 320 320 318 316 315 315 315 315 315 316 317 319 321 321 319 319 319 319 320 320 319 321 322 322 321 321 321 321 320 320 319 319 319 319 319 319 319 319 319 320 320 320 320 320
322 321 320 319 318 319 319 319 318 318 317 317 318 319 321 320 318 316 317 317 317 317 316 315 316 315 315 315 315 314 317 321 322 320 320 320 320 321 321 322 323 323 323 323 322 321 322 322 322 322 321 320 320 320 320 319 319 319 319 319 320 321 321
319 318 317 317 316 316 316 316 317 317 317 316 316 317 319 319 318 316 316 316 316 316 316 317 317 317 316 317 316 316 318 322 321 320 321 321 322 323 323 324 324 323 323 323 322 321 321 322 322 323 323 323 322 322 322 321 321 321 320 320 320 320 321
316 315 315 315 316 315 315 316 316 317 317 316 316 316 317 318 317 315 314 314 315 315 316 317 317 317 318 318 317 318 321 322 321 321 323 323 324 324 324 324 325 324 324 323 322 321 321 322 322 322 322 323 321 320 320 322 323 323 322 321 321 321 321
313 313 313 314 314 314 314 314 315 316 316 315 314 314 314 314 314 312 311 310 311 312 312 313 314 315 315 316 318 320 322 322 321 322 324 325 325 325 324 325 325 324 324 323 322 321 320 320 321 322 322 322 321 319 319 320 321 322 322 322 321 321 321
309 310 310 310 311 311 312 312 312 313 313 313 312 311 311 311 311 310 308 307 306 307 309 312 313 314 314 315 316 318 319 320 321 322 323 324 324 323 322 323 322 321 321 321 320 320 320 319 320 321 321 321 321 320 320 320 320 320 321 321 321 321 320
306 306 307 307 308 308 309 309 310 310 311 310 309 309 308 308 308 307 306 306 306 306 308 311 311 311 311 310 311 313 316 317 318 319 318 318 319 319 318 319 320 319 319 318 318 319 320 320 321 321 321 320 320 319 319 319 320 320 320 320 320 319 318
304 303 304 304 305 306 307 307 307 307 308 307 307 307 308 308 307 307 306 307 308 308 309 310 309 308 307 306 306 308 310 311 310 312 313 313 313 314 315 317 318 318 318 317 316 317 318 319 320 319 319 319 319 319 318 318 319 319 319 320 320 319 318
303 302 302 302 302 303 304 304 305 305 305 306 306 306 306 306 305 305 304 305 305 306 307 306 305 305 303 302 302 303 305 307 308 307 307 308 309 310 312 314 314 315 316 316 315 315 314 313 312 313 314 315 316 316 317 317 317 318 318 319 319 319 319
303 303 303 303 302 302 302 302 303 303 303 304 304 304 305 305 304 304 303 303 303 303 303 302 301 300 299 300 300 299 301 304 305 303 304 306 308 307 308 310 311 311 312 313 312 311 309 305 304 305 306 307 308 310 311 312 313 315 317 318 318 318 317
302 303 303 304 304 304 303 303 303 303 304 304 305 304 305 305 306 305 305 304 304 304 303 302 299 297 296 297 297 296 297 298 299 300 301 304 305 305 307 309 309 309 309 310 309 307 304 301 301 303 304 304 305 306 308 309 310 311 313 316 317 317 316
303 303 303 303 304 304 304 304 304 305 305 306 306 306 305 305 306 306 305 305 305 304 304 303 301 298 297 296 296 296 296 296 296 296 297 300 302 304 305 307 307 307 307 305 304 302 300 299 301 303 304 305 306 306 306 307 307 309 311 312 314 315 315

ECMWFFLT1_925_thetae_069.txt.gz
Theta_e
335 334 334 334 333 333 333 333 333 333 333 333 332 333 333 333 334 334 334 335 336 335 335 335 334 334 334 333 334 333 333 332 333 332 332 331 331 332 331 331 330 328 329 329 328 328 329 329 328 328 328 328 328 328 328 328 328 328 328 328 327 327 327
335 334 333 333 333 332 332 333 333 333 333 333 333 333 333 333 334 334 334 335 335 335 335 335 334 333 333 333 333 333 332 333 333 332 333 332 331 331 331 331 331 330 330 329 328 328 327 328 329 328 327 327 327 328 327 327 327 327 327 327 326 326 326
334 334 334 334 333 331 331 332 332 332 333 332 332 333 333 333 334 334 334 333 334 333 333 334 334 333 333 333 333 333 333 332 332 332 332 332 331 331 331 331 331 331 331 330 328 328 327 328 328 327 327 327 326 327 327 327 326 327 326 326 326 325 325
334 335 334 333 332 331 331 332 332 332 332 332 332 333 332 333 333 333 333 333 332 332 332 333 333 333 334 333 333 334 333 332 331 331 331 331 331 332 331 330 330 330 330 330 329 328 328 327 327 327 326 326 326 326 326 326 326 326 326 326 325 325 324
333 334 333 332 331 331 331 332 332 332 332 331 332 332 332 332 332 332 332 332 331 331 331 332 333 333 333 333 333 334 334 332 331 331 331 331 331 332 331 330 330 329 329 330 329 328 328 327 327 326 326 325 326 326 326 326 326 325 325 325 325 325 324
333 333 332 332 330 330 331 332 332 332 332 331 331 331 331 331 331 331 331 331 331 330 330 331 333 333 333 333 334 334 333 332 332 332 331 331 331 331 331 331 330 329 328 329 330 329 329 327 327 326 325 325 325 325 326 326 325 325 325 325 324 323 323
334 333 332 331 330 331 331 332 332 332 332 331 331 331 330 330 330 330 330 330 331 330 329 330 332 333 333 334 334 333 333 333 333 332 331 331 331 331 331 330 330 329 328 329 330 330 329 327 327 325 324 325 324 324 325 325 325 323 321 321 321 319 319
334 332 332 331 330 331 331 331 332 331 331 330 330 330 330 329 329 330 330 330 330 330 329 329 331 332 332 333 333 333 333 333 333 332 331 331 331 331 330 330 331 330 329 328 329 330 328 327 326 325 324 324 324 324 323 324 324 321 317 316 316 314 313
333 332 332 331 331 331 331 330 330 330 331 329 329 330 330 329 329 330 330 330 330 330 329 329 330 330 331 332 332 333 333 333 333 331 330 331 332 331 329 330 330 330 329 328 328 329 329 327 326 325 324 323 324 324 323 322 320 317 315 314 313 313 312
333 332 331 330 331 331 330 329 329 329 329 330 330 330 329 329 329 330 330 330 330 330 329 329 329 329 330 330 331 332 332 332 332 331 330 331 332 330 329 329 329 329 329 329 328 328 329 328 326 325 324 323 323 323 324 323 318 314 313 313 311 311 312
333 332 330 330 331 331 329 329 329 328 328 329 329 329 330 329 329 329 329 329 330 329 329 329 329 329 329 329 330 331 331 331 332 331 330 331 331 330 330 330 329 328 329 329 328 328 328 328 326 324 324 323 322 321 321 320 319 314 311 312 312 312 311
333 331 330 330 331 330 329 329 329 329 328 328 329 329 329 328 328 328 328 329 329 328 329 328 327 328 328 329 329 329 330 331 331 331 330 331 331 330 330 329 328 328 328 328 328 328 328 327 326 325 324 323 323 321 318 318 319 316 312 312 313 313 312
331 330 330 331 331 330 329 329 328 328 329 329 329 328 328 328 328 327 326 328 328 327 328 327 326 327 327 327 328 328 329 330 331 331 331 332 331 329 329 328 328 328 328 327 327 327 327 326 325 324 324 323 322 320 318 317 317 316 314 314 314 313 313
330 330 331 331 331 329 329 328 328 329 329 329 328 328 327 327 327 325 325 326 327 327 326 326 326 325 326 327 326 327 328 328 329 329 330 331 331 330 329 328 327 327 327 327 327 327 326 325 324 324 323 322 321 319 318 317 316 315 314 314 314 313 313
330 330 331 330 330 329 328 328 328 329 329 329 328 327 327 327 326 324 323 324 326 326 325 325 325 324 325 326 325 325 326 327 327 328 328 330 330 330 330 329 328 327 327 326 326 325 324 323 323 322 320 320 320 319 318 317 316 315 314 313 313 314 313
329 330 331 330 329 329 329 329 328 329 329 328 327 327 327 326 325 323 321 322 324 325 324 324 324 324 323 324 324 323 324 325 326 327 327 328 329 329 330 329 328 328 327 326 324 324 323 322 321 319 318 319 319 318 317 317 315 314 313 313 313 313 312
330 331 331 329 329 329 329 329 328 328 327 326 327 327 327 326 325 322 320 321 324 325 324 324 323 323 322 322 322 323 324 325 325 325 326 328 329 329 329 330 329 327 327 325 324 323 322 321 320 319 318 319 319 318 316 315 315 314 313 312 312 312 311
331 331 330 329 329 329 329 329 328 327 326 326 327 327 326 326 325 322 320 321 323 324 324 323 323 322 322 321 321 322 324 324 324 324 325 326 328 328 329 329 328 326 325 324 323 322 321 320 320 319 318 319 318 318 317 316 315 314 313 312 312 312 311
331 330 329 329 329 329 328 328 328 327 326 325 326 326 324 325 324 322 320 320 322 323 323 322 323 322 321 320 320 321 322 322 323 324 324 325 326 327 327 327 325 324 324 322 322 321 320 320 320 319 319 318 318 318 319 318 317 315 314 313 312 312 311
330 328 328 329 329 329 328 328 328 328 326 326 326 325 325 325 324 321 320 319 320 322 322 322 322 321 320 320 319 320 320 321 322 324 324 324 325 325 325 324 324 323 322 321 321 320 319 320 320 320 319 319 319 319 319 319 318 317 315 314 314 313 312
329 327 327 328 328 328 328 328 328 327 327 326 326 325 325 324 323 321 319 319 320 322 322 321 321 320 319 318 317 318 319 320 322 323 323 323 324 324 324 323 322 322 321 321 321 320 320 320 319 319 320 319 319 319 319 319 319 318 318 317 317 316 315
328 326 327 328 328 328 328 328 327 327 327 325 324 324 323 323 321 320 318 318 320 321 321 320 320 319 318 318 317 318 319 320 321 322 322 322 323 323 323 322 322 322 321 321 321 320 320 320 320 320 320 319 319 319 319 320 320 320 319 319 319 319 318
327 326 327 328 328 328 327 327 326 326 325 324 323 322 322 322 320 319 318 318 319 319 320 319 320 319 318 318 319 319 320 319 319 320 321 321 322 322 322 322 322 322 321 321 320 320 320 320 321 321 320 320 320 320 320 320 320 320 320 320 320 320 319
326 326 326 327 328 327 326 325 324 324 323 322 322 321 321 321 320 319 318 318 318 318 319 319 319 320 320 320 319 319 319 319 319 320 320 320 321 321 321 321 321 320 320 320 320 319 319 319 320 320 320 320 320 320 320 320 320 320 320 320 320 320 320
325 325 325 326 326 325 324 323 323 322 322 321 321 321 321 320 320 319 318 318 317 318 317 318 318 319 320 320 320 320 320 320 319 319 320 320 321 321 320 320 320 319 318 318 318 318 317 317 317 318 319 319 320 319 319 319 318 319 319 319 319 319 319
324 325 325 325 325 324 323 322 322 322 321 321 321 321 320 320 318 318 318 317 317 317 316 317 317 318 318 319 320 320 320 319 320 320 320 320 321 321 321 320 320 320 320 319 318 318 318 317 317 317 318 318 318 318 318 317 318 318 318 318 318 318 318
323 324 324 324 324 324 323 322 322 322 321 321 321 320 319 319 318 317 317 317 317 316 316 316 316 316 317 316 317 318 318 318 319 320 320 321 321 321 321 320 320 321 321 320 321 321 321 320 320 321 321 321 320 320 319 319 318 318 318 318 319 319 318
323 323 323 323 323 322 322 322 321 321 320 320 319 318 317 316 316 315 315 316 316 316 315 315 315 315 315 314 314 314 315 317 318 320 320 320 320 321 321 321 321 321 320 321 321 321 321 321 321 321 321 322 321 321 320 319 319 318 318 318 319 319 318
321 320 320 321 321 320 320 319 317 318 318 317 316 316 315 314 314 313 313 314 315 315 315 315 315 315 315 315 314 313 313 314 315 318 319 319 319 319 319 319 319 320 320 321 322 322 321 321 321 321 321 321 321 321 320 320 320 320 320 320 320 320 319
316 316 316 317 317 317 317 316 315 315 315 314 314 313 313 313 313 313 313 313 313 314 314 314 315 316 317 317 315 314 314 313 312 315 318 319 318 318 318 318 318 319 320 321 321 320 319 319 319 320 320 321 321 320 321 320 320 320 320 319 319 319 319
312 313 313 313 314 315 315 315 314 314 315 315 314 313 312 312 311 312 312 311 312 312 311 311 313 315 316 316 316 315 315 313 314 316 317 317 317 317 318 318 318 319 319 319 318 317 317 316 317 317 317 317 317 317 318 318 319 318 318 318 318 317 318
311 311 311 311 312 313 314 314 315 315 315 315 314 313 313 313 311 310 309 308 309 309 309 308 309 311 312 313 313 314 314 314 314 315 315 314 314 315 315 316 316 316 316 316 316 315 315 314 314 313 313 312 312 312 312 312 312 312 312 312 312 311 311
310 309 310 310 310 311 312 313 314 314 314 314 313 313 313 313 311 309 308 308 308 307 307 307 307 307 308 309 310 311 312 312 311 310 310 310 311 311 311 311 312 311 312 312 312 311 311 310 310 310 309 308 307 306 305 304 304 303 303 303 303 303 303
308 308 309 310 310 311 311 312 312 313 313 312 312 311 310 310 309 307 306 306 305 304 303 303 302 303 304 305 306 307 308 308 308 308 308 307 307 308 309 309 308 308 309 309 309 309 309 309 308 307 305 304 302 300 299 299 299 299 299 300 299 300 300
305 306 307 308 308 308 309 309 310 311 311 311 310 309 308 307 306 304 303 303 302 301 300 299 299 299 299 300 300 301 302 302 301 303 304 304 304 305 307 307 307 307 308 308 307 307 307 306 304 302 300 298 297 297 298 298 298 299 299 300 301 302 304
305 305 305 306 306 306 306 306 306 306 307 307 307 306 306 305 305 304 303 302 302 301 301 300 299 299 299 299 298 299 299 298 298 298 299 300 301 301 302 303 303 303 303 302 302 301 300 300 299 298 297 297 297 298 299 299 300 300 300 302 304 307 309
304 304 304 305 305 306 306 305 305 305 305 306 306 306 305 305 305 305 303 302 301 301 301 301 300 299 299 299 299 299 299 299 299 299 298 299 300 300 299 299 299 299 298 298 298 299 301 301 301 301 301 301 301 302 302 301 301 301 302 304 307 308 309

ECMWFFLT1_925_thetae_072.txt.gz
Theta_e
335 335 335 334 334 334 334 334 334 333 333 333 333 333 333 333 333 334 334 334 335 335 335 334 335 334 334 334 333 332 332 332 332 332 332 330 330 332 331 330 330 329 327 327 327 328 329 329 329 329 328 328 328 328 327 327 328 328 328 328 328 327 327
335 334 335 335 334 334 334 334 333 333 333 332 332 333 333 333 333 333 334 335 336 335 334 334 334 334 335 334 332 333 332 332 332 332 332 330 330 332 331 330 330 328 328 328 327 327 327 329 329 328 327 327 327 327 327 327 327 327 328 328 327 327 327
334 334 335 335 334 334 334 333 333 333 333 333 332 332 333 333 333 333 333 334 335 335 334 334 333 333 334 333 333 333 333 332 332 332 332 330 330 331 331 330 329 328 328 327 327 327 327 327 329 328 327 327 327 327 327 327 327 327 327 327 326 326 326
334 334 334 334 334 333 333 333 333 333 333 332 333 332 332 333 333 334 334 334 335 335 335 334 333 333 334 333 333 333 332 332 332 332 331 331 331 331 330 330 328 328 328 327 326 327 326 326 327 327 326 326 326 327 327 327 326 327 327 326 326 325 325
334 334 334 334 333 333 332 333 333 332 332 332 333 333 333 333 333 333 334 334 334 334 334 334 334 333 333 333 333 332 332 332 332 332 331 331 331 331 330 329 328 328 328 328 327 326 326 326 327 326 325 326 326 326 327 326 326 326 326 325 325 324 324
334 334 334 333 333 333 332 332 332 332 332 333 333 333 333 333 333 333 333 333 333 333 333 333 333 333 333 333 333 332 333 332 332 332 332 331 331 330 330 329 329 329 329 328 327 326 326 326 326 325 324 325 325 325 326 326 326 326 326 325 325 324 323
334 334 333 333 332 332 331 331 332 332 333 332 332 333 333 333 333 333 333 332 332 331 332 333 333 333 333 333 332 333 333 332 331 331 331 331 331 330 330 330 330 330 329 329 328 327 326 326 326 324 324 325 324 324 325 326 326 325 324 325 325 324 323
333 333 333 332 331 331 330 331 332 332 332 332 332 332 332 332 332 332 332 331 330 330 331 332 333 333 333 333 333 333 333 332 331 330 331 331 331 331 330 329 330 329 329 329 329 327 327 326 326 325 324 324 324 324 323 324 325 323 322 323 323 323 323
333 333 333 332 331 330 331 331 332 332 332 332 332 331 331 332 332 331 331 331 330 329 330 332 333 333 333 333 333 333 333 332 332 331 331 330 331 331 330 330 330 329 328 329 329 328 327 327 326 324 324 324 325 325 323 323 321 318 319 321 321 321 322
333 333 332 332 330 330 331 331 332 332 331 331 331 331 331 330 331 330 330 330 330 329 329 331 332 332 333 333 333 333 333 332 332 332 331 330 331 331 330 330 330 329 328 329 330 329 328 327 325 323 324 323 324 324 324 325 321 314 316 319 317 316 318
334 333 332 331 330 330 331 331 331 331 331 331 330 330 330 329 330 330 329 330 329 329 329 330 331 332 332 332 332 332 333 332 332 332 331 330 331 331 330 330 330 330 329 328 329 329 328 327 324 323 324 323 323 323 322 324 321 315 314 316 313 313 313
333 333 332 331 330 331 331 330 331 330 330 330 330 329 329 329 330 330 329 330 329 329 329 329 330 330 330 331 331 332 332 332 332 331 330 331 332 331 330 329 330 330 329 329 329 329 328 326 324 323 323 323 322 322 321 321 319 315 315 315 312 312 312
333 333 332 331 330 331 330 330 330 330 329 330 330 329 329 329 330 329 329 329 329 329 329 329 329 328 329 330 331 331 331 332 332 331 330 331 332 331 330 329 329 329 329 329 328 329 328 326 325 323 323 323 322 322 321 319 317 314 314 315 313 312 312
333 333 331 330 330 331 330 329 329 329 329 329 330 329 329 329 329 328 328 328 329 328 328 328 328 328 328 329 329 330 331 331 331 330 330 330 331 330 330 330 328 328 329 329 328 328 328 327 327 325 323 323 323 322 320 318 316 313 312 313 312 312 312
333 332 331 330 330 331 330 329 328 329 329 329 329 329 328 328 328 327 327 328 328 328 327 327 327 327 328 328 328 329 330 331 331 330 330 331 331 330 329 329 328 327 328 327 327 327 327 327 327 326 324 323 323 322 320 318 316 313 312 312 312 312 311
333 331 331 330 330 330 329 329 328 328 329 329 329 328 328 328 327 326 326 327 327 327 327 326 325 326 327 327 327 328 329 330 330 330 330 331 331 330 329 328 327 327 328 326 325 325 325 325 326 325 324 324 323 323 320 318 316 314 312 311 312 312 311
332 330 330 331 331 330 329 328 328 328 328 328 328 327 327 326 325 325 326 326 326 326 326 325 324 325 326 326 326 326 328 328 328 328 328 330 331 330 329 328 327 327 327 325 325 325 324 324 323 323 323 321 322 321 318 317 317 315 313 312 312 312 312
330 330 331 331 330 330 328 328 328 328 328 328 327 327 326 323 322 323 325 325 325 325 325 324 324 323 323 323 324 324 325 326 326 326 327 328 329 330 329 328 327 327 327 326 325 323 321 321 321 320 320 319 319 319 317 316 317 316 315 314 313 312 312
329 330 330 330 329 329 328 328 328 329 328 327 327 326 325 322 320 322 324 325 325 324 323 324 323 322 321 322 323 323 324 325 326 325 326 328 329 329 329 328 327 327 327 326 324 321 319 320 319 318 319 318 318 318 317 316 316 316 315 315 314 312 312
329 330 329 329 329 329 328 328 328 328 327 327 327 326 325 322 320 321 322 324 324 324 323 322 322 321 320 321 323 323 323 325 325 324 325 327 328 329 329 328 327 326 325 324 322 320 319 319 319 318 318 318 318 317 316 315 315 315 314 314 313 313 313
328 329 328 328 328 328 328 328 328 326 326 327 327 326 325 323 321 320 322 323 324 323 322 322 322 321 320 320 321 321 321 323 324 324 325 327 327 327 327 327 325 323 323 321 320 319 320 319 319 318 319 318 318 317 316 315 314 313 313 313 313 313 312
327 327 327 326 327 327 326 327 326 325 326 327 326 325 325 323 321 320 321 322 322 322 322 322 321 320 319 319 319 319 320 322 323 324 325 326 325 324 324 324 322 321 321 320 319 319 319 319 319 319 319 319 319 319 318 318 316 314 313 313 313 312 312
327 326 326 326 326 326 325 325 326 325 326 326 325 324 324 321 320 319 320 321 322 322 321 321 320 319 318 317 318 319 320 323 324 324 324 325 323 323 322 322 321 321 320 320 320 320 319 319 319 319 319 319 319 319 319 319 319 317 316 316 316 315 313
326 325 325 325 325 325 325 324 325 325 325 324 324 324 322 320 319 319 320 321 321 320 320 320 319 318 317 317 318 319 320 322 323 323 323 323 323 322 321 321 321 320 319 319 319 319 319 320 320 320 320 319 320 320 319 319 320 319 319 319 319 318 317
326 325 325 325 325 325 325 322 322 323 323 322 322 321 320 319 318 319 319 320 319 319 319 319 318 318 317 318 319 319 320 321 322 322 322 323 322 321 320 320 319 319 318 318 317 317 317 318 318 319 319 319 319 318 318 318 318 318 318 318 318 318 318
325 325 326 325 324 324 324 321 321 322 321 321 321 320 319 318 317 318 318 318 318 319 319 319 319 319 318 318 319 319 319 320 321 321 322 322 321 320 319 318 318 317 317 316 316 316 316 316 317 317 318 318 318 318 318 318 318 318 318 318 318 318 318
325 324 324 324 323 323 321 319 320 321 321 320 320 318 317 317 317 317 317 317 317 317 318 319 320 319 319 319 319 319 319 320 320 321 320 320 319 319 318 318 318 319 319 318 318 318 318 318 319 319 319 319 319 320 320 319 319 319 318 318 318 318 319
323 323 322 322 321 320 319 317 318 319 319 319 318 317 316 316 316 316 316 316 316 316 316 316 317 319 319 319 319 319 319 320 320 321 321 320 320 320 319 319 320 320 320 320 320 320 320 321 321 320 321 321 321 321 320 320 319 319 319 319 318 319 319
320 321 320 320 319 318 317 316 316 317 317 317 316 315 315 315 315 315 315 315 316 316 315 315 316 317 317 318 319 319 319 320 320 321 321 320 320 320 320 320 319 318 317 318 320 320 320 320 320 321 321 321 321 321 320 320 320 319 319 319 319 319 319
315 317 317 317 317 316 315 315 314 314 314 314 313 313 313 312 312 313 313 314 315 315 315 316 316 316 316 316 316 316 317 318 319 320 320 320 320 320 320 319 317 317 317 318 319 319 317 317 318 320 319 319 319 319 319 319 319 319 318 317 317 317 317
311 312 313 313 313 311 311 311 311 311 311 310 310 310 310 309 309 309 310 311 312 313 314 314 316 316 316 315 314 314 315 317 318 318 318 319 319 319 319 319 318 318 319 319 318 318 317 317 317 317 316 316 315 315 314 314 315 315 314 313 312 311 310
311 310 309 310 310 310 309 309 308 308 308 307 306 306 307 307 306 306 306 306 308 309 310 311 313 315 315 315 314 313 314 314 314 313 314 316 317 317 318 318 317 317 317 316 316 316 315 315 315 314 313 312 311 309 308 307 306 306 306 305 304 303 302
311 310 309 309 309 309 310 310 310 309 308 307 306 306 306 306 305 304 304 304 304 306 307 307 309 311 313 313 313 313 313 313 313 313 313 314 315 314 313 314 313 312 312 312 312 312 312 311 311 311 311 309 307 305 302 300 299 299 299 299 299 301 303
309 310 311 311 310 310 310 311 312 311 310 309 308 307 307 307 306 304 303 303 303 303 303 304 305 307 309 310 311 312 312 311 311 312 311 311 311 309 309 309 309 309 309 309 309 309 308 308 306 306 305 303 301 299 298 297 297 298 298 299 302 306 308
307 308 309 310 311 310 310 311 311 311 310 309 308 307 305 304 303 302 301 301 301 300 300 301 301 302 303 305 307 309 310 309 309 309 309 308 307 307 306 306 306 306 307 306 305 303 303 301 300 299 299 298 297 297 297 297 298 299 301 303 306 308 309
305 305 306 307 307 307 308 309 309 308 308 307 305 304 302 302 301 301 300 300 299 299 299 299 299 299 300 300 301 302 303 304 305 306 306 305 303 302 302 302 302 301 301 300 300 300 300 301 301 301 301 301 301 300 300 301 301 301 303 306 308 308 307
304 305 305 305 306 306 306 306 306 306 306 305 303 302 301 301 301 301 300 300 299 298 298 298 298 298 298 299 299 299 300 300 300 301 301 300 299 299 298 298 298 298 298 299 301 302 303 303 303 304 304 304 304 304 304 304 303 303 305 307 307 306 305

ECMWFFLT1_925_thetae_075.txt.gz
Theta_e
336 335 335 335 335 334 334 334 334 333 334 334 334 334 334 334 334 334 333 332 332 333 332 333 333 333 333 332 332 332 331 331 331 331 330 331 330 329 328 329 329 328 327 327 327 327 328 329 329 328 327 328 328 327 327 327 328 328 328 327 327 328 328
336 335 334 334 334 335 334 334 334 333 333 334 334 334 334 333 333 333 332 333 333 334 334 334 334 334 333 332 332 331 332 332 331 331 331 330 330 330 329 330 329 328 327 327 327 327 327 328 329 328 327 327 327 327 327 327 327 328 327 328 327 328 327
335 335 334 334 334 334 334 334 333 333 333 333 333 333 333 333 333 333 333 334 334 334 335 334 334 334 333 333 333 332 332 332 331 331 331 330 331 330 330 330 329 327 327 326 327 327 326 327 328 328 327 326 327 327 326 327 327 327 327 327 327 327 326
335 335 334 334 333 334 334 333 333 333 333 333 333 332 332 332 333 333 334 334 334 335 335 334 334 334 334 334 333 332 332 332 331 331 331 331 331 330 330 330 329 328 328 326 326 327 326 326 326 327 327 326 326 326 326 327 327 327 327 327 327 326 325
335 335 334 333 333 333 334 333 333 333 333 332 332 332 332 333 333 333 334 334 335 335 335 334 334 334 334 335 334 332 332 332 332 332 331 331 331 330 330 331 330 329 328 327 327 326 326 326 326 326 326 326 326 326 326 326 326 326 326 326 326 325 324
333 334 334 334 333 333 334 334 333 333 333 332 332 332 332 333 333 333 334 334 334 335 335 334 334 334 334 334 334 333 332 332 332 332 332 332 331 330 330 330 330 329 328 327 327 326 326 326 325 325 325 325 325 325 326 326 326 326 326 325 325 325 325
330 331 333 333 333 334 333 333 332 332 332 332 332 332 332 332 333 333 333 334 334 335 335 334 333 333 333 333 333 333 333 332 332 332 331 332 331 330 330 330 330 329 328 327 327 326 326 326 325 325 324 324 324 325 325 326 326 325 325 325 325 324 324
330 329 331 333 333 333 333 332 332 332 332 332 332 332 332 332 333 333 334 334 334 334 334 334 333 334 333 333 333 333 332 332 331 332 332 332 331 331 331 330 330 329 328 328 327 326 326 325 325 325 325 325 325 324 324 324 325 325 324 324 324 324 324
332 329 331 334 334 333 332 331 331 332 332 332 332 332 332 333 333 333 333 333 333 332 333 333 333 333 333 333 332 332 332 332 332 331 331 332 332 331 331 330 330 329 329 329 328 327 326 325 325 326 326 325 325 325 324 323 323 322 322 324 324 324 324
333 332 332 334 333 332 332 331 331 332 332 331 332 332 332 333 333 332 333 332 332 331 331 332 332 333 333 332 332 332 332 332 332 331 330 330 331 331 330 330 330 329 329 329 329 328 327 326 325 326 325 324 324 325 324 324 322 319 319 322 323 323 323
334 334 333 333 333 332 332 331 331 331 332 331 331 332 332 332 332 332 332 331 331 330 330 331 331 332 332 332 332 332 332 333 332 331 331 330 330 330 330 330 330 329 329 329 328 328 327 326 326 325 325 324 323 324 323 324 323 320 319 321 322 322 320
333 333 333 333 333 332 331 330 331 331 332 331 331 332 331 331 332 332 332 331 330 329 329 330 331 332 332 333 333 332 333 332 332 331 331 331 330 330 330 331 330 330 329 329 328 328 328 327 326 326 325 324 323 323 322 323 324 322 320 321 322 320 316
333 334 333 332 332 332 330 330 330 331 331 330 331 331 331 331 331 331 330 330 330 329 329 329 331 332 332 332 332 332 332 333 332 332 332 331 331 331 330 331 330 330 330 329 329 329 328 327 327 326 324 323 323 323 322 322 322 319 318 320 321 319 314
334 333 333 332 332 332 330 330 331 331 331 330 330 331 330 330 330 330 329 330 330 329 328 329 330 331 332 331 331 332 332 333 332 332 332 331 330 331 331 330 329 329 330 330 329 328 328 328 327 325 324 323 323 322 322 322 319 315 314 316 318 317 313
333 333 331 331 332 331 330 330 331 331 330 330 330 330 330 330 330 329 329 329 329 329 328 328 329 330 330 330 330 331 332 332 332 332 331 330 330 331 331 330 329 329 329 330 330 328 328 328 327 325 323 323 323 322 322 322 320 316 314 314 315 315 313
332 333 331 331 331 331 330 330 330 330 330 329 329 329 329 329 329 329 329 329 329 328 328 328 328 328 328 328 330 330 331 331 331 331 331 330 329 331 331 330 329 329 328 329 328 328 328 328 327 325 323 323 323 322 322 322 320 318 315 314 314 314 313
332 333 331 331 331 330 330 330 329 329 330 329 329 329 329 328 329 329 329 329 329 328 328 328 327 327 327 328 329 329 330 330 330 331 330 329 329 331 331 330 329 328 328 328 327 326 327 327 327 326 325 324 323 322 322 322 320 319 317 315 315 315 314
330 331 329 330 330 329 329 330 329 329 330 329 329 329 329 329 329 328 327 327 328 328 327 327 327 326 327 328 328 328 329 329 329 330 330 329 330 330 330 329 329 328 328 328 326 325 325 325 326 326 326 326 325 324 323 322 320 319 318 317 315 314 313
328 329 328 328 329 328 328 328 328 329 329 329 329 329 329 328 328 327 326 327 327 328 327 326 326 326 326 327 326 327 327 327 328 328 329 329 329 330 330 329 328 328 328 326 325 325 324 324 324 324 323 325 325 324 322 322 321 318 317 317 315 313 313
328 329 329 328 327 328 328 328 327 328 329 329 329 329 328 328 328 327 326 326 327 327 326 325 325 324 324 324 324 325 326 326 326 327 327 327 329 330 330 329 327 327 327 326 325 323 321 321 322 321 321 322 322 321 319 319 319 317 316 315 314 313 313
327 328 328 327 327 328 329 328 327 326 327 328 329 328 328 327 326 326 326 326 325 326 325 325 324 322 322 322 323 323 324 324 325 326 326 327 328 329 329 328 326 326 325 325 323 321 319 319 319 319 319 319 319 318 317 316 316 315 315 314 313 313 313
326 327 327 327 327 328 328 327 326 326 325 325 327 327 327 325 324 323 325 325 325 324 324 324 323 321 320 322 323 323 323 323 324 325 326 327 327 328 328 326 325 324 323 322 320 319 319 319 318 318 318 317 317 317 316 314 314 314 314 313 312 312 311
326 326 326 326 327 327 326 326 326 326 325 323 325 326 325 322 321 322 324 324 324 324 322 322 321 320 320 321 321 322 322 323 324 325 325 327 327 327 326 324 323 322 321 319 319 319 319 319 318 318 318 317 317 316 315 314 313 313 312 312 312 312 311
326 325 325 326 327 326 325 326 325 326 326 323 323 326 324 321 320 321 322 324 324 323 322 322 321 320 320 320 319 320 320 321 323 324 325 326 325 324 323 322 320 320 319 318 319 319 319 319 319 319 319 319 318 318 318 317 316 315 314 314 315 314 314
326 326 325 325 326 325 325 325 324 325 326 323 322 325 324 321 320 320 322 323 323 322 322 322 321 320 319 319 319 319 319 321 323 324 325 324 322 321 321 320 319 319 319 319 319 319 319 319 319 319 319 318 318 318 318 318 318 318 317 317 317 317 316
326 326 325 324 326 325 324 324 323 324 324 321 320 323 323 321 320 320 321 322 322 321 321 321 321 319 317 317 318 318 320 322 323 324 324 323 321 320 320 319 319 319 319 319 318 318 319 319 318 318 318 318 318 318 318 318 318 318 318 318 317 317 317
323 324 324 324 324 324 323 322 321 322 321 318 318 321 321 319 319 319 319 320 321 320 320 321 320 318 317 318 318 318 320 322 323 323 322 321 320 320 319 318 318 317 317 317 316 317 317 317 317 318 318 318 318 319 319 319 319 318 318 318 318 318 318
320 322 323 323 323 322 322 320 319 319 318 315 316 319 318 316 317 317 318 319 319 319 320 319 319 318 318 318 318 319 320 322 321 321 319 319 319 318 318 317 317 317 316 317 317 318 318 318 319 319 320 320 320 320 320 319 319 319 319 318 318 318 317
315 317 318 320 320 319 318 317 315 315 313 312 313 314 315 314 315 315 317 318 318 319 319 319 319 318 318 318 319 319 320 320 320 319 319 318 318 318 319 319 318 318 318 319 319 320 320 320 320 320 320 320 320 320 319 319 319 319 318 318 317 316 316
311 312 312 314 314 314 313 312 311 311 310 309 309 309 311 312 312 314 316 317 318 319 318 319 319 319 319 319 319 319 320 320 319 319 319 318 319 319 319 318 319 319 319 320 320 320 320 320 319 320 319 319 319 319 318 317 316 315 314 313 312 311 310
309 309 308 308 308 309 309 308 308 308 308 307 307 306 308 310 311 312 314 315 317 318 318 318 319 319 319 319 319 319 319 320 319 319 319 318 318 318 317 317 316 317 318 318 319 318 318 317 317 318 317 317 317 316 315 314 312 311 308 306 305 304 303
308 308 307 306 306 306 306 306 306 306 306 305 305 305 306 308 309 309 311 313 314 316 317 317 318 319 319 319 320 320 320 319 319 318 318 317 316 316 316 316 316 316 316 316 316 316 315 315 315 315 315 314 313 312 311 310 309 308 306 304 302 301 302
307 307 307 306 305 304 305 305 305 306 305 303 303 303 303 304 305 305 307 309 311 313 314 315 316 317 318 319 319 319 318 318 316 315 315 315 314 314 315 316 316 317 316 314 314 314 313 313 313 312 311 310 308 306 304 302 302 302 302 301 301 302 304
306 307 307 307 306 305 304 304 304 304 304 302 302 301 301 301 302 302 303 305 306 308 310 312 313 314 315 316 316 316 316 315 314 313 313 313 313 314 315 315 316 317 316 314 312 312 312 311 310 309 307 305 302 300 299 298 298 299 299 300 303 305 306
306 306 306 308 308 307 307 305 304 304 304 305 304 303 301 302 302 301 301 302 302 303 305 308 310 312 313 313 313 313 313 313 313 313 313 312 312 312 312 311 312 313 312 311 309 308 308 306 305 304 302 300 299 298 298 298 299 300 302 304 306 307 306
306 306 305 306 307 307 307 307 305 304 304 304 303 302 301 301 302 301 300 300 300 300 301 302 304 306 308 309 311 312 312 312 312 312 311 310 309 308 307 307 307 307 305 304 302 302 301 301 300 300 300 299 299 300 300 300 302 304 306 307 306 305 304
306 306 305 305 305 305 305 305 304 304 303 303 302 300 299 300 300 299 299 299 299 299 299 299 300 301 302 304 305 307 308 308 308 308 309 307 305 304 303 303 302 301 300 300 300 301 301 302 302 303 303 303 303 303 303 303 305 306 306 305 304 303 302